GFSNGP_prec_cloud_003.txt.gz
Cloud_Cover
5 5 5 5 5 5 5 5 5 5 5 98 26 7 5 5 5 89 100 100 98 60 99 82 95 56 5 5 5 5 5 5 5 5 26 34 56 96 100 50 25 5 53 5
59 9 5 59 17 5 5 5 5 5 5 4 5 5 16 63 100 84 93 94 40 88 96 93 5 5 5 5 5 5 10 8 15 46 97 100 100 100 61 52 5 5 7 7
83 38 57 100 23 5 5 5 5 19 7 5 5 56 100 100 70 52 44 9 43 86 98 72 5 9 13 5 25 50 67 85 99 100 100 100 98 93 64 4 5 5 5 5
59 5 86 72 66 5 5 5 5 5 5 14 38 100 100 79 57 99 14 27 38 98 100 52 42 78 24 74 63 96 100 100 100 100 97 86 40 22 4 0 3 5 84 18
8 8 76 95 90 87 5 8 5 5 26 5 99 100 100 97 92 53 45 82 100 100 100 100 89 59 100 93 100 100 100 100 100 100 72 56 10 0 0 0 5 5 5 49
43 57 92 100 95 10 5 33 49 100 10 100 94 68 99 60 35 76 100 100 100 100 100 91 99 100 100 100 100 100 100 90 100 78 26 5 5 5 5 0 3 5 5 5
32 26 50 18 5 5 26 29 91 100 98 85 74 39 96 70 82 100 100 100 100 100 100 100 100 100 100 100 100 100 83 89 97 16 37 5 2 5 5 5 5 3 5 3
100 100 24 9 10 11 56 97 35 12 5 5 8 84 34 100 100 100 100 100 100 100 100 100 100 100 100 96 100 90 78 65 40 100 8 0 0 5 25 5 5 5 5 8
100 100 11 5 8 97 99 6 5 5 5 71 100 95 80 76 89 100 100 100 100 100 100 100 100 88 95 95 76 96 63 56 99 7 5 0 5 60 98 96 87 8 74 11
49 79 48 48 99 70 5 9 9 5 76 100 93 45 32 90 100 100 100 100 100 100 100 100 100 93 28 93 90 81 89 94 25 38 5 5 6 74 78 90 72 43 5 5
100 100 100 100 90 5 5 5 5 6 5 8 8 65 87 80 99 100 100 100 100 100 100 100 100 100 100 100 99 91 89 29 68 100 85 23 25 97 95 70 30 5 5 5
97 91 16 29 13 11 28 17 28 40 49 50 37 80 100 100 100 100 100 100 100 100 100 100 100 100 94 92 95 96 90 5 74 100 100 100 100 88 67 58 8 5 5 5
5 5 5 30 96 64 22 55 84 90 81 78 72 65 85 80 97 100 100 100 100 100 100 100 100 100 100 100 100 100 5 5 33 96 100 100 100 75 12 72 96 82 5 5
5 5 5 5 5 5 5 5 5 13 54 64 84 100 100 100 100 100 100 100 100 100 100 100 100 100 100 100 83 15 93 70 69 83 67 42 80 87 95 100 98 55 17 5
31 5 5 8 35 55 21 11 50 59 96 100 100 100 100 100 100 100 100 100 100 100 100 100 100 100 100 95 44 100 100 100 90 91 100 91 28 9 86 99 94 93 52 22
100 68 20 92 49 73 56 93 100 100 100 100 100 100 100 100 100 100 100 100 100 100 100 100 56 98 84 91 100 100 100 74 83 78 100 98 40 64 82 66 58 51 33 50
5 31 79 89 100 100 100 100 100 100 100 100 100 100 100 100 100 100 100 100 100 100 100 100 100 93 100 100 100 100 39 70 94 100 96 97 100 53 75 67 68 40 45 16
64 100 100 100 100 100 100 100 100 100 100 100 100 100 100 100 100 100 100 100 100 100 100 100 100 100 100 100 80 27 100 100 97 89 100 100 100 100 87 57 5 47 93 71
96 99 86 100 100 95 100 100 100 100 100 100 100 100 100 100 100 100 100 100 100 100 100 100 100 96 30 10 5 68 100 100 100 100 100 100 100 100 100 87 75 76 87 96
84 92 97 100 100 100 100 100 100 100 100 100 100 100 100 100 100 100 100 100 100 100 100 86 26 5 5 10 76 89 96 100 100 100 100 100 99 100 100 100 99 98 100 100
87 90 100 100 70 71 98 100 100 100 100 100 100 100 100 100 100 100 100 100 97 92 10 10 12 5 84 96 93 100 100 100 100 100 100 100 100 97 100 100 100 100 98 100
85 85 95 88 89 89 98 98 100 100 100 100 100 100 100 94 39 9 18 28 5 13 16 36 27 22 96 100 94 91 99 100 100 100 99 100 100 100 100 100 100 100 98 94
9 56 100 100 100 100 100 100 100 100 98 89 64 81 97 100 99 94 58 6 40 51 91 93 62 65 100 98 100 95 97 98 100 100 98 100 100 100 100 100 100 100 94 98
89 49 37 68 100 97 100 100 100 100 99 98 100 100 100 100 100 100 100 100 100 100 100 100 100 100 90 100 100 100 99 100 100 100 100 100 95 100 100 100 100 100 95 94
93 91 100 100 100 100 100 97 92 100 22 5 5 5 33 97 100 98 100 100 100 100 100 100 100 100 100 90 96 100 100 100 100 100 100 100 100 100 100 100 100 100 100 100
100 100 100 100 100 100 96 100 71 44 71 87 81 73 67 17 44 70 91 84 80 80 100 100 100 100 100 100 98 100 100 100 100 100 100 100 100 100 100 100 100 100 100 100
90 78 56 35 28 63 50 28 83 100 90 91 99 56 54 98 69 62 71 78 87 100 100 100 100 100 100 100 100 100 100 100 100 100 100 100 100 100 100 100 100 100 100 100

GFSNGP_prec_cloud_006.txt.gz
Cloud_Cover
5 40 48 86 99 23 5 5 5 5 4 5 89 56 100 78 6 5 63 100 100 50 5 24 99 98 81 100 32 29 20 97 82 36 24 93 94 99 100 32 5 89 24 5
77 68 70 99 50 5 5 5 5 13 6 5 5 84 18 8 5 82 100 99 76 100 96 11 93 100 100 91 82 99 74 100 93 42 93 78 100 100 71 7 13 92 96 52
41 62 96 100 13 5 5 5 5 5 5 6 16 5 58 18 69 100 91 46 86 100 49 68 100 100 100 79 76 81 100 100 46 76 99 100 100 71 19 50 27 87 95 64
5 34 100 98 8 3 2 3 5 5 5 13 5 5 9 5 98 90 46 96 100 100 100 100 100 100 100 100 100 100 100 98 89 100 100 100 98 22 17 5 16 78 98 28
24 5 59 99 61 18 5 5 5 5 5 5 5 5 13 96 51 37 80 100 100 100 99 43 90 82 100 100 100 100 100 100 100 100 100 99 51 55 5 61 40 100 27 5
6 67 55 73 28 5 17 36 100 99 92 26 76 100 50 5 9 92 100 100 100 92 35 84 95 100 100 100 100 100 100 100 100 100 99 70 42 7 5 59 29 3 0 4
8 35 9 5 36 90 97 100 100 85 97 100 99 17 5 24 57 91 100 97 41 42 87 98 100 100 100 100 100 100 100 100 86 94 82 66 14 20 5 76 78 5 5 5
6 64 36 5 75 100 80 42 45 28 21 34 6 5 22 58 90 88 45 11 20 74 95 100 100 100 100 100 100 100 94 97 100 87 65 60 96 7 49 48 95 57 55 5
6 5 5 5 65 20 5 18 92 100 23 5 25 17 59 98 86 96 55 79 82 84 99 100 100 100 100 100 100 100 100 100 100 100 100 99 72 26 94 87 27 5 5 80
9 82 7 5 16 86 97 100 80 5 7 63 97 99 95 100 67 63 100 66 100 96 100 100 100 100 100 100 100 100 100 100 100 100 100 96 51 81 94 93 90 10 83 98
12 67 79 100 80 6 9 11 5 9 60 98 53 64 41 8 16 26 46 65 94 100 100 99 100 100 100 100 100 100 100 100 100 100 54 94 80 84 92 96 81 99 99 96
100 74 21 15 27 91 66 34 51 79 39 23 28 6 5 19 78 96 100 100 100 100 100 100 100 100 100 100 100 100 100 100 100 100 100 100 100 100 92 38 12 5 5 5
19 98 100 60 10 74 94 96 78 94 95 51 9 40 75 78 100 100 100 100 100 100 100 100 100 100 100 100 100 100 100 100 100 100 100 100 100 100 86 94 5 5 34 95
100 86 5 5 5 10 33 66 100 43 14 45 79 98 100 100 100 100 100 100 100 100 100 100 100 100 100 100 100 100 100 100 100 100 100 100 100 100 99 96 95 87 56 76
45 5 5 5 40 98 100 94 77 98 100 100 100 100 100 100 100 100 100 100 100 100 100 100 100 100 100 100 100 100 100 100 100 100 100 65 76 95 100 84 100 100 100 93
34 12 27 44 100 100 100 100 100 100 100 100 99 100 100 100 100 100 100 100 100 100 100 100 100 100 100 100 100 100 100 100 100 100 100 100 85 99 100 100 100 100 87 94
98 100 100 100 88 100 100 100 100 99 92 94 99 98 100 100 100 100 100 100 100 100 100 100 100 100 100 100 96 95 97 100 25 79 94 59 100 100 98 100 100 100 86 57
100 100 100 100 100 100 100 85 99 97 92 90 92 100 100 100 100 100 100 100 100 100 100 100 92 57 21 17 19 14 71 100 95 92 97 99 89 91 100 100 100 97 89 81
100 100 100 100 100 100 96 75 70 72 87 96 100 100 99 100 100 100 100 100 76 25 28 70 73 34 4 5 6 85 100 100 100 100 98 99 97 100 96 93 100 100 100 100
100 100 100 100 88 49 16 77 93 66 37 33 44 92 83 99 93 52 64 99 50 5 0 4 5 5 29 20 18 94 81 93 88 47 76 100 97 98 100 100 100 100 100 100
100 100 81 16 10 13 30 52 56 51 21 18 92 68 48 65 58 56 79 10 6 21 6 5 31 29 60 75 78 91 97 100 100 100 84 100 100 100 99 100 98 100 100 100
81 40 15 5 43 16 58 60 61 77 91 99 100 100 100 100 100 100 100 76 77 100 100 100 100 100 100 100 100 85 100 100 98 63 78 100 100 100 100 100 100 100 100 100
35 8 11 42 76 90 100 90 98 99 58 98 100 95 100 99 100 100 100 47 100 100 100 100 100 100 100 100 100 100 100 100 100 88 96 100 100 100 100 100 96 100 100 100
91 74 97 100 100 57 9 5 6 8 5 32 99 100 100 83 50 46 66 11 72 80 88 59 98 84 100 100 100 100 100 100 100 100 95 100 100 100 100 100 100 100 100 100
100 100 100 94 30 6 5 5 5 5 5 36 85 93 68 55 69 47 89 61 48 62 69 90 93 99 100 100 100 100 100 100 100 99 100 100 100 100 100 100 100 100 100 100
97 77 56 43 14 5 5 5 5 5 5 5 5 42 80 98 100 100 100 100 100 100 100 100 100 100 100 100 100 100 100 100 100 100 100 100 100 100 100 100 100 100 100 100
89 95 60 77 56 6 5 8 5 5 66 94 94 99 100 100 100 100 100 100 100 100 100 100 100 100 100 100 100 100 100 100 100 100 100 100 100 100 100 100 100 100 100 100

GFSNGP_prec_cloud_009.txt.gz
Cloud_Cover
5 1 3 11 40 69 5 5 5 0 0 2 5 12 5 10 5 4 5 5 5 67 100 24 5 71 86 98 95 100 100 100 100 79 100 100 99 100 100 100 100 100 100 83
0 3 14 77 65 2 3 5 5 1 4 5 4 5 5 5 5 5 5 5 22 96 27 5 23 46 100 100 100 100 100 100 100 100 100 100 100 100 100 100 58 40 100 100
5 5 5 79 5 5 0 0 4 5 5 5 4 4 5 5 5 5 5 79 30 5 10 53 51 99 84 100 100 100 100 100 100 100 100 100 100 99 33 5 8 98 100 92
7 4 58 8 0 4 4 2 5 5 4 5 5 6 5 5 5 77 100 24 5 30 10 30 52 88 74 99 70 99 100 100 100 100 100 100 100 78 85 75 89 100 96 92
20 4 5 5 30 5 5 4 11 5 5 5 6 8 36 5 5 36 8 5 6 12 54 71 42 16 44 100 100 96 100 100 100 100 100 100 100 99 100 100 81 100 100 78
5 57 63 9 5 5 5 5 37 5 6 18 95 23 5 7 38 5 24 11 32 54 42 5 6 82 100 100 100 100 100 100 100 100 100 100 100 100 100 99 100 100 100 97
5 35 8 56 25 90 57 10 5 54 100 64 74 66 86 100 34 21 18 31 94 52 44 89 86 98 100 100 100 100 96 100 100 100 100 100 100 100 100 100 100 100 100 100
18 65 73 58 76 56 9 5 12 5 5 6 70 100 94 96 92 45 59 99 96 93 100 100 100 100 100 90 100 100 100 100 100 100 100 100 100 100 100 100 100 89 88 94
8 8 11 6 5 5 5 5 44 5 64 87 100 88 63 15 24 72 85 30 40 24 95 100 100 80 100 100 100 100 100 100 100 100 100 100 100 100 100 79 91 100 100 99
21 5 5 5 5 5 5 5 5 20 87 96 56 35 14 59 95 77 66 43 22 7 39 95 57 100 100 100 100 100 100 100 100 100 100 100 100 100 46 97 100 100 100 100
5 5 5 6 4 32 72 6 39 93 53 70 44 9 42 55 61 42 16 5 11 70 100 100 100 100 100 100 100 100 100 100 100 100 100 100 100 100 96 68 100 80 90 84
41 80 100 100 100 54 5 73 98 52 10 13 23 51 41 14 6 24 37 90 100 100 100 100 100 100 100 100 100 100 100 100 100 100 100 100 100 83 100 100 25 5 6 5
100 100 100 100 6 5 50 100 100 64 62 89 99 92 30 69 68 98 100 100 100 100 100 100 100 100 100 100 100 100 100 100 100 100 100 100 100 100 100 94 73 10 5 5
100 96 12 6 5 5 35 31 27 78 97 70 81 94 99 100 100 99 100 100 100 100 100 100 100 100 100 100 100 100 100 100 100 100 100 100 100 100 100 100 100 91 85 74
9 5 6 5 6 20 86 97 100 100 100 96 92 58 20 26 59 84 97 100 100 100 100 100 100 100 100 100 100 100 100 100 100 100 79 86 64 86 99 100 100 100 100 96
5 58 82 68 36 84 100 100 100 100 100 100 100 40 61 70 73 89 98 98 99 100 100 100 100 100 100 100 100 100 99 27 68 99 100 100 100 92 66 97 100 99 62 73
100 74 100 80 77 100 100 100 100 100 100 100 92 65 8 42 74 70 65 85 81 100 97 53 44 5 5 5 5 5 5 72 100 100 100 100 100 100 100 100 100 96 87 86
99 74 52 50 95 99 97 100 99 99 100 100 96 100 100 100 75 56 41 63 100 100 8 3 1 4 5 5 5 5 5 38 100 100 100 100 92 100 100 100 100 100 96 96
83 97 100 100 100 100 100 100 100 100 100 100 100 100 100 100 87 43 24 100 100 60 4 10 88 80 78 24 5 16 53 100 100 100 100 94 98 81 100 100 100 99 100 100
100 100 100 100 100 100 100 100 100 100 68 73 100 100 100 100 100 100 100 100 14 73 95 99 100 100 77 100 95 99 92 94 84 80 66 76 40 84 98 100 100 98 98 100
100 100 100 100 100 100 100 100 100 100 100 100 100 100 74 32 38 40 89 98 100 100 100 99 33 29 56 62 32 83 98 100 100 100 100 83 100 87 46 100 99 100 100 100
100 100 100 100 100 100 100 100 100 65 15 7 13 5 5 5 5 15 29 45 86 59 21 66 62 42 87 94 97 100 100 100 100 100 100 100 100 100 100 100 100 100 100 100
100 100 100 100 100 100 26 5 5 5 5 5 5 7 14 5 19 27 17 95 88 94 58 28 92 90 66 10 70 100 100 100 100 100 100 100 100 100 83 88 98 100 100 100
58 100 100 100 55 6 5 5 5 5 5 5 5 5 17 33 62 93 100 92 100 96 88 100 96 100 100 100 100 100 100 100 100 100 100 100 100 100 100 100 100 100 100 100
100 95 86 12 5 5 5 5 5 5 5 5 18 40 65 95 88 95 100 100 100 100 100 100 100 100 99 100 100 100 100 100 100 100 100 100 100 100 100 100 100 100 100 100
93 83 33 5 5 5 5 5 5 5 5 42 38 94 100 100 100 100 100 100 100 100 100 100 100 100 100 100 100 100 100 100 100 100 100 100 100 100 100 100 100 100 100 100
99 88 53 54 19 5 5 17 49 56 91 100 98 100 100 100 100 100 100 100 100 100 100 100 100 100 100 100 100 100 100 100 100 100 100 100 100 100 100 100 100 100 100 100

GFSNGP_prec_cloud_012.txt.gz
Cloud_Cover
1 27 21 98 22 14 5 0 0 0 0 0 0 0 0 0 5 4 2 4 5 5 81 92 94 7 5 5 5 5 56 100 100 100 93 100 90 63 80 100 94 65 91 94
0 1 5 5 5 4 0 3 5 0 0 0 0 0 5 5 3 5 5 5 5 5 5 5 5 5 12 17 5 5 75 100 100 99 100 67 100 95 100 82 100 98 100 100
0 5 5 5 0 0 0 0 0 4 1 0 0 5 0 2 5 5 60 14 5 5 21 31 5 5 5 5 5 5 61 100 100 96 98 100 100 100 100 100 100 100 100 100
8 5 5 0 0 0 5 0 1 5 5 4 5 5 5 5 6 88 5 5 25 99 37 5 4 4 5 5 5 3 97 100 90 100 95 100 100 100 100 100 99 100 100 100
60 4 1 1 0 0 5 0 15 82 5 5 5 11 5 14 85 26 37 38 100 42 5 5 5 5 5 5 5 68 97 92 100 100 100 100 100 100 100 100 100 100 100 100
5 0 5 5 5 1 5 5 84 6 5 5 27 5 55 83 5 39 100 75 5 5 5 5 20 67 19 83 100 97 100 100 100 100 100 100 100 100 100 100 100 100 100 100
5 33 5 10 11 12 35 41 5 5 8 35 20 61 36 18 94 100 5 5 6 5 43 47 75 92 100 100 100 72 100 100 100 100 100 100 100 100 100 100 100 100 100 100
8 73 58 5 80 90 40 8 42 33 9 14 5 81 94 54 10 79 9 45 18 79 27 5 25 93 97 88 90 91 89 100 100 100 100 100 100 100 100 100 100 100 100 99
14 6 62 87 99 34 35 100 17 5 28 5 9 75 88 7 26 88 82 54 98 12 5 5 5 50 100 100 96 100 100 100 100 100 100 100 100 100 100 100 100 100 100 100
97 18 11 46 46 18 98 31 89 92 67 100 100 64 6 56 75 82 87 25 56 86 28 52 96 100 100 100 100 100 100 100 100 100 100 100 100 100 100 100 100 100 85 72
100 33 5 5 51 88 28 11 99 100 100 100 59 7 8 17 67 76 41 11 56 86 97 94 100 100 100 100 100 100 100 100 100 100 100 100 100 100 100 100 100 100 100 67
88 17 76 5 18 41 44 100 100 100 95 30 19 6 7 43 70 30 85 100 100 97 84 48 74 97 88 94 100 100 100 100 100 100 100 100 100 100 100 100 100 70 16 7
11 5 5 27 86 100 100 100 100 96 25 66 65 29 24 47 66 81 73 14 30 64 72 86 73 82 91 97 99 100 100 100 100 100 100 100 92 6 5 27 88 74 58 5
23 30 8 96 100 100 100 99 59 52 59 71 71 35 36 81 49 42 80 100 100 100 55 75 91 71 13 100 99 91 83 100 86 10 5 10 31 18 19 88 44 11 80 97
84 97 100 100 100 100 69 41 71 86 91 100 100 92 99 95 94 100 100 100 91 41 56 70 70 33 2 1 5 2 2 1 5 5 5 5 23 82 99 94 64 57 86 72
100 100 100 100 69 100 64 48 69 100 100 100 100 100 100 100 100 100 100 100 64 6 5 75 46 0 4 5 5 5 5 5 19 13 9 80 100 100 95 94 92 93 96 90
64 40 62 99 100 100 97 100 100 100 100 100 100 100 100 100 100 100 79 6 94 100 100 56 3 5 5 5 5 5 35 100 67 6 81 86 100 100 100 97 46 52 95 98
32 94 92 100 100 100 100 96 75 67 69 72 100 100 100 100 100 100 100 100 100 100 89 100 100 99 59 63 71 100 92 14 5 7 36 91 92 99 100 100 100 79 74 90
98 100 100 100 100 98 96 99 92 93 100 100 100 100 100 100 100 99 58 78 80 96 100 81 76 61 67 20 5 11 32 77 100 100 58 67 81 77 100 100 100 77 84 72
93 100 100 100 100 100 100 100 100 100 100 100 100 92 72 83 44 7 5 5 5 68 82 33 5 5 5 44 66 90 62 14 64 62 63 89 100 100 100 100 100 88 100 100
100 100 100 100 100 100 100 100 100 100 100 100 99 65 45 5 5 5 5 5 87 59 5 5 11 95 66 38 5 9 55 84 89 76 100 100 100 100 100 100 79 100 100 99
100 100 100 100 100 100 100 100 100 100 100 88 46 6 5 5 5 5 5 39 5 5 5 21 97 14 5 46 97 100 100 98 100 100 100 100 100 100 100 100 100 100 100 100
100 100 100 100 100 100 100 100 100 75 11 5 5 5 5 5 5 5 79 74 55 21 52 99 47 5 15 99 100 96 99 99 100 100 100 100 100 100 100 100 100 100 100 100
100 100 100 100 100 100 100 52 6 5 5 5 5 5 5 8 24 49 31 64 92 77 100 100 77 7 98 100 100 100 100 98 100 100 100 100 100 100 100 100 100 100 100 100
100 100 100 100 96 66 6 5 5 5 5 5 9 6 29 58 74 57 99 92 88 90 100 100 100 72 100 100 100 100 100 100 99 100 100 100 100 100 100 100 100 100 100 100
100 99 98 86 42 5 5 5 5 5 8 62 17 11 76 84 82 80 99 99 92 100 100 100 100 100 100 100 100 100 100 100 100 99 100 100 100 100 100 100 100 100 100 100
100 98 97 60 5 5 5 24 78 66 70 81 34 38 100 100 97 92 96 99 100 100 100 100 100 100 100 100 100 100 100 100 100 97 100 99 100 100 100 100 100 100 100 100

GFSNGP_prec_cloud_015.txt.gz
Cloud_Cover
8 10 10 5 8 15 30 0 0 0 0 0 0 4 4 4 0 1 9 1 1 5 19 80 70 64 15 90 6 1 5 22 70 100 66 87 100 100 82 62 94 100 82 100
0 0 0 4 3 5 4 3 5 3 0 0 0 5 3 0 7 40 20 5 5 5 5 5 34 68 96 66 5 5 22 96 100 97 97 85 76 87 100 100 100 100 100 100
0 0 0 0 0 0 0 0 0 0 0 0 1 4 1 3 4 5 5 5 66 100 53 6 73 20 5 5 5 5 80 100 92 29 23 11 84 100 100 100 100 100 100 98
5 3 3 0 2 0 0 0 0 0 5 2 0 0 5 5 5 5 5 5 18 17 75 98 9 5 5 5 5 26 96 100 100 89 96 92 100 100 100 100 100 100 100 100
5 5 2 0 5 0 0 0 0 5 0 4 5 5 5 5 5 5 5 5 6 44 33 5 5 5 5 5 5 12 18 89 82 100 100 100 100 100 100 100 100 100 100 100
5 5 5 7 7 2 0 5 5 5 5 5 5 9 5 5 5 5 6 44 5 85 60 21 5 5 56 98 100 100 90 100 99 75 100 100 100 100 100 100 100 100 100 100
8 13 5 60 6 5 1 5 5 5 6 13 19 40 66 11 5 7 80 90 100 8 5 5 11 40 78 100 94 82 100 100 100 100 100 100 100 100 100 100 100 100 100 100
73 78 14 5 45 5 5 5 5 20 5 92 98 68 19 6 7 43 98 100 80 45 16 6 70 100 100 100 100 89 84 100 100 100 100 100 100 100 100 100 100 100 100 100
5 5 5 5 5 5 46 92 75 71 85 78 21 6 12 60 99 100 100 85 53 22 43 39 82 94 95 100 100 100 100 100 100 100 100 100 100 100 100 100 100 100 100 100
5 5 21 76 65 80 100 100 100 64 100 100 68 52 89 100 100 100 87 76 85 57 79 100 100 100 100 100 100 100 100 100 93 100 100 100 100 100 100 100 100 100 100 59
10 5 7 16 59 100 100 100 100 100 82 53 90 98 100 100 99 80 26 26 43 79 100 82 97 100 100 100 100 100 100 100 100 100 100 100 99 89 54 38 46 18 2 24
90 100 13 43 26 40 29 58 86 100 98 100 100 100 100 93 66 10 43 82 48 43 59 95 100 100 100 100 100 94 99 62 26 10 5 4 2 0 5 5 33 19 5 5
100 99 100 100 100 55 8 19 14 26 72 100 100 100 88 54 12 34 30 41 48 93 100 100 100 100 100 89 98 81 5 5 3 0 0 0 0 5 5 6 5 8 13 5
100 99 100 100 99 41 37 76 89 100 100 100 100 81 67 15 42 30 67 94 100 100 100 100 100 100 81 96 17 6 8 2 0 0 0 1 5 24 92 38 10 5 5 5
100 100 98 100 100 98 74 100 100 100 96 90 78 36 10 5 61 96 100 100 100 100 100 100 96 28 9 5 33 27 5 5 5 10 18 64 76 78 100 100 84 5 5 10
100 100 100 100 53 54 71 45 88 85 96 100 100 97 65 82 100 100 100 100 100 100 100 100 100 56 38 75 10 5 5 10 52 100 100 99 100 100 100 93 89 35 5 5
100 100 100 100 100 100 100 100 100 100 100 57 90 100 100 98 100 100 100 100 100 100 100 100 100 100 100 97 45 5 5 11 7 34 88 100 94 68 71 76 30 6 100 12
83 52 61 80 100 100 100 94 96 92 98 100 100 100 100 100 99 98 100 100 100 100 100 92 56 6 5 8 54 72 69 48 5 5 5 7 6 78 95 100 100 96 82 100
72 94 100 100 100 75 80 98 100 100 100 100 100 100 100 100 99 100 100 100 100 100 74 78 28 9 6 5 5 5 5 25 82 100 100 93 86 61 79 74 84 100 94 92
96 97 74 46 87 99 100 100 100 100 100 100 100 100 100 100 100 100 100 99 94 86 60 22 25 5 5 5 50 98 99 100 98 94 99 98 100 100 100 89 63 100 100 100
90 98 100 100 100 100 100 100 100 100 100 100 100 100 100 100 100 100 71 38 97 5 5 99 5 5 5 75 90 85 100 80 87 100 100 100 100 100 100 100 100 100 100 100
100 100 100 100 100 100 100 100 100 100 100 100 100 100 100 100 95 40 63 56 57 5 16 100 5 10 5 74 62 73 98 61 66 100 100 100 100 100 100 100 100 100 100 100
100 100 100 100 100 100 100 100 100 100 100 100 100 100 100 97 43 40 87 69 5 5 5 90 78 7 5 5 75 70 58 100 76 100 100 100 100 100 100 100 100 100 100 100
100 100 100 100 100 100 100 100 100 100 100 100 100 58 9 31 47 5 13 16 42 28 36 5 70 41 31 36 25 97 77 95 100 78 100 100 100 100 100 100 100 100 100 100
100 100 100 100 100 100 100 100 100 100 100 97 12 7 82 40 36 16 48 30 33 18 55 36 36 90 72 54 36 66 100 97 95 80 99 100 100 100 100 100 100 100 100 100
100 100 100 100 100 100 100 100 100 99 52 22 11 9 100 100 55 13 6 32 18 31 58 56 46 34 72 69 65 72 48 74 74 100 32 74 100 100 100 100 100 100 100 100
100 100 100 100 100 100 100 100 95 25 91 67 40 31 100 100 75 13 12 36 79 74 52 73 59 30 23 100 97 69 53 5 53 98 6 34 100 100 100 100 100 100 100 100

GFSNGP_prec_cloud_018.txt.gz
Cloud_Cover
100 100 25 99 95 54 15 17 5 0 0 0 0 0 5 2 0 0 1 0 3 5 8 5 6 8 23 63 90 70 32 46 24 100 100 100 100 100 17 8 80 94 100 100
5 47 14 82 46 16 2 2 0 0 0 0 40 74 12 1 2 5 5 5 1 0 3 5 5 5 14 25 65 6 25 9 100 100 100 100 100 99 50 23 99 100 100 85
0 0 0 0 0 0 0 94 5 22 5 5 5 4 5 5 5 4 5 5 5 5 4 0 0 0 0 5 5 5 5 33 100 100 100 100 94 64 68 96 100 100 100 100
0 0 0 0 0 0 0 0 0 3 5 1 0 3 5 5 5 4 12 5 5 0 5 5 5 5 5 15 5 5 5 56 100 100 100 96 90 94 100 100 100 100 100 100
0 0 1 0 0 0 0 0 4 5 5 5 0 0 0 5 5 60 47 34 5 5 5 5 6 85 100 43 5 5 19 60 42 50 70 100 93 100 100 100 100 100 100 100
11 4 2 9 5 0 0 6 38 8 5 5 5 5 5 8 6 5 5 5 5 5 5 6 94 97 8 14 5 17 57 70 20 100 100 100 100 100 100 100 100 100 100 100
33 5 1 5 0 5 5 34 43 31 39 6 5 22 22 17 5 5 5 8 76 56 12 100 99 7 5 30 99 92 98 100 100 100 100 100 100 100 100 99 100 100 100 100
66 25 5 5 5 6 57 91 64 17 5 9 5 5 5 16 11 5 6 75 63 91 100 98 61 18 7 75 100 100 100 100 100 100 100 100 100 100 93 84 100 100 100 100
20 5 3 5 36 54 8 7 13 38 54 88 99 100 77 70 99 67 63 68 93 100 100 88 48 73 73 84 99 100 100 100 100 100 100 100 100 100 99 100 77 14 8 11
5 5 5 5 5 68 97 62 50 93 100 100 100 100 98 55 44 50 62 86 100 100 100 66 58 100 100 100 100 100 100 100 100 100 100 100 100 76 30 5 4 5 5 5
16 26 40 28 5 5 15 58 76 91 81 100 100 100 100 100 100 100 100 100 100 100 86 81 79 30 98 100 100 100 100 100 100 100 100 98 58 90 5 3 1 5 5 5
69 100 75 60 22 13 64 86 99 100 100 100 100 100 100 95 99 94 100 91 99 87 72 9 9 81 100 98 100 100 100 100 100 100 100 84 82 10 4 0 0 32 93 100
100 99 57 44 55 71 81 85 99 100 100 100 100 100 79 56 54 41 72 70 62 22 5 54 80 88 100 100 100 100 100 100 100 100 98 65 5 3 4 23 70 49 96 55
71 100 100 100 100 100 100 100 99 100 74 50 47 86 43 34 42 57 39 14 5 54 73 62 54 43 92 100 100 100 100 100 97 99 45 15 30 43 66 95 100 98 59 5
100 100 100 100 100 100 98 100 100 100 100 100 95 37 54 64 49 46 52 35 71 86 100 75 63 96 100 100 100 100 89 47 28 10 26 47 72 90 81 91 92 91 91 35
100 100 100 100 100 100 100 100 97 94 98 68 81 76 91 93 98 100 100 100 100 100 99 94 99 97 91 97 90 15 28 10 5 5 5 5 5 12 12 39 94 100 100 94
97 99 100 100 48 61 55 84 100 97 94 100 100 100 100 95 66 69 98 100 100 80 95 99 90 98 72 71 20 5 5 6 46 92 98 99 99 100 100 94 92 78 14 82
100 98 86 42 47 100 100 100 100 98 100 100 100 98 72 84 82 100 98 89 94 68 51 40 69 100 64 7 70 88 97 100 100 98 69 100 100 99 100 100 100 100 91 19
94 100 100 98 91 100 100 100 100 100 100 100 100 98 98 100 99 100 100 95 82 76 94 100 84 8 5 27 82 44 100 47 30 79 100 100 100 100 100 100 100 100 100 100
100 100 100 100 100 100 100 100 100 100 99 99 100 100 100 100 100 100 100 100 100 100 99 74 30 5 8 82 44 6 100 6 23 98 100 100 100 100 100 99 100 100 100 100
100 100 100 100 100 100 100 100 100 100 100 100 100 100 100 100 100 100 100 100 88 66 55 73 5 5 5 26 74 44 85 76 18 96 100 100 100 100 100 100 100 100 100 100
100 100 100 100 100 100 100 100 100 100 100 100 100 100 100 100 100 100 91 75 24 25 66 96 73 50 24 44 34 77 7 95 62 35 100 100 100 100 100 100 100 100 100 100
100 100 100 100 100 100 100 100 100 100 100 100 100 100 100 100 100 100 75 82 14 37 32 88 90 77 48 64 76 100 93 61 100 54 90 91 100 100 100 100 100 100 100 100
100 100 100 100 100 100 100 100 100 100 100 100 100 100 100 100 100 48 25 70 80 78 86 62 87 94 63 86 88 75 100 75 87 86 7 37 97 100 100 100 100 100 100 100
100 100 100 100 100 100 100 100 100 100 100 100 100 100 100 99 68 83 89 70 74 68 68 91 82 96 93 91 97 89 100 91 83 96 73 5 92 100 100 100 100 100 100 100
100 100 100 100 100 100 100 100 100 100 100 100 100 95 100 100 97 76 58 73 64 66 77 92 69 40 65 93 98 90 91 45 75 100 64 43 66 98 100 100 100 100 100 100
100 100 100 100 100 100 100 100 100 100 99 100 100 100 100 99 81 68 57 53 98 90 99 69 94 33 7 77 99 99 70 28 88 66 58 65 31 74 100 100 100 100 100 100

GFSNGP_prec_cloud_021.txt.gz
Cloud_Cover
5 5 5 2 1 4 5 5 5 8 5 4 89 34 0 5 6 0 0 54 69 69 97 100 93 47 35 44 16 17 76 100 66 69 16 56 99 100 100 100 100 100 100 100
99 64 5 5 0 5 5 91 5 5 1 0 0 0 0 3 3 0 5 5 4 4 5 5 7 38 95 55 92 100 100 36 21 5 40 100 100 100 100 100 100 100 100 100
1 3 5 5 92 100 43 11 3 1 0 0 0 3 1 0 0 5 5 4 0 1 2 5 5 5 12 66 72 62 10 5 38 5 45 44 85 92 100 100 100 100 100 100
3 0 5 0 0 0 0 0 0 0 4 4 2 5 5 7 5 2 0 4 5 5 9 49 51 5 5 3 3 5 5 5 5 97 100 100 98 99 84 100 100 100 100 100
2 4 2 0 0 0 0 0 4 5 0 0 0 0 5 7 2 4 5 5 5 5 5 5 17 7 5 5 42 40 97 83 14 66 95 100 100 100 100 100 100 100 100 100
10 16 11 100 0 0 1 11 5 3 0 0 0 0 0 3 5 5 5 7 10 19 5 5 5 5 5 28 69 100 78 12 87 100 100 97 100 100 100 100 100 100 100 100
50 5 29 100 22 4 0 22 4 4 5 5 4 4 5 5 5 24 69 81 36 5 5 6 18 23 5 32 92 100 83 100 85 100 100 100 100 100 100 100 100 100 100 100
4 5 93 100 100 7 1 4 2 2 5 5 5 10 17 5 22 52 21 5 5 72 100 100 100 100 100 100 100 44 85 91 100 100 100 100 100 100 100 100 100 100 100 100
0 5 78 6 5 5 5 5 0 5 5 5 49 30 22 50 65 18 55 96 100 100 100 100 100 100 100 100 98 100 96 97 92 100 100 100 100 100 98 100 100 100 100 100
3 5 7 29 13 7 6 6 6 5 5 26 7 30 100 100 100 100 98 72 74 98 100 100 97 68 63 99 90 85 74 54 66 45 60 77 89 96 100 100 100 100 76 4
91 18 67 95 43 38 49 37 50 64 60 69 79 62 90 100 100 100 100 100 100 100 100 91 97 99 92 49 26 81 79 17 5 5 5 84 100 100 100 100 89 23 4 0
96 5 60 100 100 100 100 100 100 100 100 100 99 100 100 100 100 100 100 100 100 100 96 80 75 58 87 90 74 19 5 5 5 5 81 100 100 100 100 72 7 5 5 27
76 5 12 30 100 100 99 100 100 100 100 100 100 100 100 100 100 100 100 100 100 67 14 7 71 69 6 5 5 20 44 74 99 100 100 100 100 92 95 22 5 5 5 6
100 17 5 14 47 44 70 75 88 100 100 100 100 100 100 100 96 71 76 73 95 97 96 76 8 5 13 59 84 97 98 100 100 100 100 100 49 5 22 74 94 69 88 98
100 99 25 8 5 5 25 63 73 69 74 77 94 99 100 100 81 100 94 100 100 95 58 21 42 77 97 96 100 100 100 100 100 93 44 5 5 8 68 82 94 82 42 13
99 35 16 5 60 91 45 22 6 5 77 100 100 100 100 89 96 100 100 100 97 100 99 100 99 92 99 100 100 100 100 74 42 69 66 22 74 100 100 100 98 100 100 100
100 100 100 100 72 22 56 34 96 100 100 100 100 100 100 100 100 100 100 100 100 100 100 100 100 100 100 100 100 100 100 88 64 73 73 100 100 100 100 100 100 100 100 98
100 100 100 100 100 100 96 100 100 100 100 98 95 100 100 100 100 100 100 100 100 100 100 99 100 90 87 100 86 30 98 5 5 71 100 100 100 100 100 100 100 100 100 99
96 100 99 100 100 100 100 100 100 100 100 100 100 100 100 100 100 100 100 100 96 95 100 100 100 97 62 67 58 9 98 24 23 30 88 90 100 100 100 100 100 100 100 100
100 100 100 95 99 100 100 100 100 100 100 100 100 100 100 100 100 100 100 100 100 100 100 100 100 100 100 100 64 5 85 56 6 5 87 100 100 100 100 100 100 100 100 100
100 100 100 100 100 100 100 100 100 100 100 100 100 100 100 100 100 100 100 100 100 100 100 100 100 100 100 52 21 77 61 96 63 50 85 99 100 100 100 100 100 100 100 100
100 100 100 100 100 100 100 100 100 100 100 100 100 100 100 100 96 100 98 96 99 100 100 100 100 87 27 78 45 98 51 44 100 63 55 45 75 100 100 100 100 100 100 100
100 100 100 100 100 100 100 100 100 100 100 100 100 100 100 100 100 97 100 100 100 100 100 100 99 90 99 84 96 100 99 88 98 99 69 64 57 100 100 100 100 100 100 100
100 100 100 100 100 100 100 100 100 100 100 100 100 100 100 98 98 93 100 100 100 100 99 100 100 100 86 100 100 100 100 98 100 100 18 12 42 67 65 92 100 100 100 100
100 100 100 100 100 100 100 100 100 100 100 100 100 100 100 100 100 100 100 100 100 100 99 100 84 85 100 100 100 100 100 94 100 100 97 68 43 53 43 83 100 99 100 100
100 100 100 100 100 100 100 100 100 100 100 100 100 100 100 100 100 100 98 94 69 81 96 100 42 38 59 100 100 100 92 40 99 100 72 55 46 8 53 78 100 87 96 100
100 100 100 100 100 100 100 100 100 100 100 100 100 100 100 100 100 98 69 97 100 100 100 99 99 63 27 97 100 99 98 60 100 90 60 67 30 60 53 74 96 71 64 73

GFSNGP_prec_cloud_024.txt.gz
Cloud_Cover
0 0 0 0 4 5 4 7 15 70 81 2 30 75 100 100 8 0 0 0 0 4 5 2 2 42 5 8 5 5 5 5 5 11 25 100 88 97 97 90 91 100 80 70
5 5 5 4 5 4 5 5 11 23 91 5 5 5 19 21 5 0 0 0 3 2 0 0 5 5 5 2 5 46 41 60 97 66 56 100 89 100 100 100 100 100 100 97
15 100 27 3 9 1 4 5 4 37 100 9 0 5 5 1 2 0 5 1 0 0 4 5 4 5 5 12 48 67 83 60 51 66 47 94 87 94 100 100 100 100 100 100
72 13 4 0 0 3 6 2 1 0 2 0 0 1 5 2 3 5 5 5 5 5 5 5 5 5 5 10 26 41 90 93 32 8 49 84 100 100 100 99 94 100 100 100
76 5 0 0 2 0 0 0 0 0 0 0 0 0 0 0 0 0 1 5 5 4 5 5 6 28 40 45 56 46 16 6 50 61 94 100 100 100 100 100 100 100 100 100
12 16 0 1 52 5 13 83 0 0 0 0 1 5 5 0 3 5 5 5 5 5 6 48 41 26 12 12 58 64 99 94 76 100 100 100 100 100 100 100 100 100 100 100
21 3 2 0 89 3 4 95 4 4 4 0 0 0 4 5 4 5 5 5 6 43 20 24 28 5 8 55 75 18 5 5 15 63 87 94 78 100 100 100 99 100 85 100
5 0 2 0 0 0 4 15 50 25 7 5 5 3 1 2 5 5 5 14 30 45 7 5 5 32 42 48 42 28 23 38 88 98 100 100 100 100 78 88 100 100 58 98
3 5 57 5 0 0 0 0 0 5 5 5 0 0 1 5 5 19 10 11 34 7 5 6 26 62 29 36 51 83 100 100 100 100 100 96 76 62 71 99 65 56 93 100
6 100 22 5 0 0 1 4 0 5 5 5 5 5 5 5 9 5 28 41 22 18 7 27 11 56 77 100 100 100 100 88 92 68 25 5 5 5 10 85 98 99 100 73
100 100 71 6 5 5 5 5 5 5 5 5 5 9 31 54 39 33 45 60 25 42 63 89 100 100 100 100 100 100 74 24 5 5 5 5 5 10 34 90 99 57 27 9
100 94 90 100 77 9 17 8 5 5 5 5 5 14 58 79 89 95 100 100 100 100 100 100 100 100 100 94 99 62 12 5 9 10 14 5 5 43 95 99 88 6 6 75
100 100 100 98 98 64 43 83 79 73 100 100 100 100 100 100 100 100 100 100 100 100 100 100 100 100 90 96 64 18 5 55 68 50 42 52 47 68 91 94 53 39 5 10
100 100 100 100 71 75 99 100 100 100 100 100 100 100 100 100 100 100 100 100 100 94 98 100 100 100 100 90 68 60 52 68 94 97 94 88 63 81 93 98 95 72 63 42
100 100 100 100 100 96 90 100 100 73 77 94 100 100 100 100 100 100 100 95 84 88 92 100 100 100 100 95 92 99 100 100 100 100 99 82 97 98 88 99 100 100 74 18
100 100 100 100 100 100 100 100 100 97 99 77 61 83 100 100 100 100 100 96 98 100 100 99 97 100 100 100 97 99 100 100 99 100 100 100 100 99 100 100 100 100 100 100
100 100 100 100 100 100 100 80 58 67 39 69 100 100 100 100 100 100 100 100 100 100 100 100 100 100 100 100 100 100 100 100 100 100 100 100 92 100 100 100 100 100 100 100
100 100 100 100 100 100 100 93 100 99 100 100 100 100 100 100 100 100 100 100 100 100 100 100 100 100 100 100 100 100 100 100 100 97 99 100 75 94 100 100 100 100 100 99
100 100 100 100 100 100 100 100 100 100 100 100 100 100 100 100 100 100 100 100 100 100 100 100 100 100 100 100 100 100 95 100 100 100 92 46 41 58 100 100 100 100 100 100
100 100 100 100 100 100 100 100 100 100 100 100 100 100 100 100 100 100 100 100 100 100 100 100 100 100 99 100 100 100 100 100 100 44 13 5 28 59 88 35 92 100 100 100
100 100 100 100 100 100 100 100 100 100 100 100 100 100 100 100 100 100 100 100 100 100 100 100 100 100 100 100 100 98 98 93 74 27 98 79 57 38 82 8 77 92 100 100
100 100 100 100 100 100 100 100 100 100 100 100 100 100 100 100 100 100 100 100 100 100 100 100 100 100 100 98 77 88 91 100 98 47 16 29 16 64 88 70 71 96 96 100
100 100 100 100 100 100 100 100 100 100 100 100 100 100 100 100 100 100 100 100 100 100 100 100 100 96 88 100 100 100 100 99 100 100 69 65 54 51 72 74 74 91 94 95
100 100 100 100 100 100 100 100 100 100 100 100 100 100 100 100 100 100 100 100 100 100 100 100 100 100 100 100 100 100 100 99 100 100 60 16 56 31 6 40 50 98 81 60
100 100 100 100 100 100 100 100 100 100 100 100 100 100 100 100 100 100 100 100 100 100 100 100 100 100 100 100 100 100 100 84 99 100 100 86 45 40 7 19 7 91 77 56
100 100 100 100 100 100 100 100 100 100 100 100 100 100 100 100 100 100 100 100 100 100 100 100 100 100 100 100 100 100 100 90 99 100 82 47 6 16 28 7 6 49 57 57
100 100 100 100 100 100 100 100 100 100 100 100 100 100 99 100 100 100 100 100 100 100 100 100 100 98 57 97 100 100 95 100 99 100 90 52 24 52 49 50 51 53 34 43

GFSNGP_prec_cloud_027.txt.gz
Cloud_Cover
5 0 1 0 0 0 1 0 0 90 100 100 3 5 26 22 16 14 5 0 4 5 3 0 5 5 5 5 5 5 5 5 5 5 7 16 6 58 100 100 100 100 100 100
5 5 0 0 0 0 0 0 0 5 91 97 5 49 88 100 76 10 5 1 0 0 0 5 6 14 5 5 6 5 5 5 5 5 5 72 100 100 100 100 100 100 100 93
5 5 5 0 7 27 5 0 5 84 85 83 74 80 100 28 20 50 6 0 1 4 4 1 5 5 5 5 5 5 5 6 41 51 39 51 100 100 100 100 100 100 100 100
3 1 2 0 6 1 0 0 4 5 4 5 9 6 44 0 0 7 10 5 5 2 0 0 0 5 2 1 5 5 26 39 23 10 80 76 96 95 100 97 100 100 100 100
81 3 2 0 0 0 0 1 0 4 0 0 0 0 0 0 4 5 5 2 5 5 4 5 5 5 5 5 5 7 27 32 54 90 97 76 89 99 100 100 100 100 100 100
4 5 5 0 0 0 0 35 3 0 0 0 0 0 5 10 10 5 5 4 10 53 47 78 95 95 56 20 46 10 21 69 82 92 98 100 90 64 100 100 100 100 100 100
5 3 5 5 0 0 0 0 0 5 3 5 5 50 88 27 5 1 2 5 5 5 42 72 66 47 12 16 45 78 86 90 88 100 99 54 56 100 100 100 99 79 55 58
5 5 23 2 0 0 0 0 0 2 5 41 34 38 37 5 0 4 5 5 5 4 5 5 5 6 32 80 84 92 80 81 90 94 100 91 96 55 27 58 70 68 36 70
5 17 5 5 4 0 0 0 0 0 0 5 5 5 5 5 5 5 3 0 4 4 5 24 5 5 49 92 34 13 6 12 95 100 100 100 92 59 70 70 63 14 31 76
72 45 10 5 5 5 5 11 5 6 0 4 5 5 5 5 5 5 5 5 5 5 5 5 5 5 5 5 5 7 61 100 98 100 100 91 69 50 73 60 36 27 43 38
83 100 91 5 5 44 90 10 21 39 8 5 5 5 5 5 5 5 5 13 27 24 14 49 16 7 5 22 82 100 98 100 100 100 85 75 56 44 46 23 44 49 25 57
100 100 98 100 100 100 77 46 5 5 5 5 29 58 63 38 23 44 35 15 9 45 54 88 92 38 29 31 90 100 100 100 100 90 64 24 18 31 58 45 8 11 5 6
100 100 100 100 100 100 100 76 5 97 100 70 23 45 73 11 7 5 5 5 48 64 100 100 95 99 100 100 98 76 78 69 77 46 43 53 53 56 37 32 28 86 67 72
100 99 46 100 80 81 100 100 97 100 100 100 100 99 66 59 96 100 100 98 69 100 100 100 100 97 99 92 88 95 65 17 5 5 9 13 6 5 5 5 5 24 61 47
100 100 100 100 100 99 99 100 100 99 100 100 92 92 100 100 100 100 67 54 98 100 99 100 100 98 99 97 99 87 76 72 52 5 5 5 5 5 5 5 25 20 5 6
100 100 100 100 100 97 100 100 100 100 100 100 100 70 70 88 100 95 86 100 100 99 99 93 73 75 88 98 93 83 71 51 6 5 18 20 19 5 5 23 38 52 67 86
100 100 100 100 100 100 100 100 100 100 100 100 88 100 100 100 100 100 100 100 100 98 100 99 94 99 81 80 65 100 80 17 11 48 78 98 23 12 64 87 80 90 95 100
100 100 100 100 97 59 100 98 100 93 100 100 92 100 100 100 100 100 100 100 100 100 99 96 96 80 82 95 100 99 100 86 47 77 97 45 6 5 90 86 86 98 99 90
97 100 100 100 100 100 100 100 100 100 100 100 100 100 100 100 100 100 100 100 100 100 100 100 100 99 100 100 100 100 85 65 78 90 44 27 23 29 87 100 93 100 100 98
100 100 100 100 100 100 100 100 100 100 100 100 100 100 100 100 100 100 100 100 100 100 100 100 100 100 100 100 100 95 93 100 100 100 72 65 96 100 100 85 59 90 97 100
100 100 100 100 100 100 100 100 100 100 100 100 100 100 100 100 100 100 100 100 100 100 100 100 100 100 100 100 100 100 100 99 94 82 100 100 100 100 62 79 80 98 100 100
100 100 100 100 100 100 100 100 100 100 100 100 100 100 100 100 100 100 100 100 100 100 100 100 100 100 100 100 100 100 81 93 100 100 100 100 96 75 68 74 86 98 100 100
100 100 100 100 100 100 100 100 100 100 100 100 100 100 100 100 100 100 100 100 100 100 100 100 100 100 100 100 100 100 100 100 100 100 100 96 92 80 14 6 38 100 100 100
100 100 100 100 100 100 100 100 100 100 100 100 100 100 100 100 100 100 100 100 100 100 100 100 100 100 100 100 100 100 100 100 100 89 100 74 100 74 5 5 5 17 98 100
100 100 100 100 100 100 100 100 100 100 100 100 100 100 100 100 100 100 100 100 100 100 100 100 100 100 100 100 100 100 100 100 100 100 100 100 100 86 69 64 76 73 77 99
100 100 100 100 100 100 100 100 100 100 100 100 100 100 100 100 100 100 100 100 100 100 100 100 100 100 100 100 76 65 97 100 100 100 99 100 99 95 81 65 80 89 100 97
100 100 100 100 100 100 100 100 100 100 100 100 100 100 100 100 100 100 100 100 100 100 100 100 100 100 100 93 96 99 100 100 99 100 100 100 100 100 82 89 88 93 100 100

GFSNGP_prec_cloud_033.txt.gz
Cloud_Cover
100 100 100 76 100 100 100 90 87 40 100 98 79 91 8 33 80 33 5 1 1 2 85 49 100 100 100 55 27 12 26 47 94 100 100 100 100 100 100 100 99 79 100 100
100 100 70 65 88 100 100 99 100 100 77 97 100 53 5 5 48 26 60 5 5 4 5 76 74 41 37 61 52 62 5 6 5 13 14 50 51 41 48 59 81 100 93 100
100 100 100 80 96 59 100 85 13 30 4 7 75 70 5 2 5 13 28 66 12 6 5 5 3 8 34 31 91 87 9 5 5 5 57 84 87 87 81 82 50 100 100 100
100 100 92 100 57 100 34 53 5 50 8 5 61 5 2 0 1 5 5 5 13 61 47 7 83 100 100 34 5 5 5 5 5 5 5 5 5 5 10 68 98 98 100 100
100 79 88 100 100 100 91 32 30 98 17 5 73 2 0 0 0 1 3 0 3 3 6 5 6 28 5 5 5 5 5 23 99 98 100 100 100 100 99 96 92 100 100 80
100 100 100 100 100 100 24 40 17 99 5 5 5 0 0 0 0 0 0 5 5 5 5 6 8 10 5 5 5 32 70 68 34 19 49 84 80 100 100 98 86 98 80 93
100 100 100 100 100 98 64 46 91 36 84 14 5 2 1 0 5 0 0 5 5 6 38 82 74 68 26 5 8 5 5 5 19 44 95 99 83 91 98 96 90 65 52 31
100 83 100 100 100 14 100 1 5 46 45 5 5 5 2 0 0 0 0 0 1 9 42 48 22 5 31 24 17 42 23 48 83 96 100 94 72 67 90 98 82 56 80 18
100 100 100 100 100 95 65 6 5 5 5 5 5 0 0 4 0 0 0 0 0 5 4 5 27 43 53 48 57 80 100 100 99 93 99 100 100 100 100 70 38 15 5 5
100 100 100 100 100 100 52 4 5 7 90 5 5 5 5 5 0 0 1 0 0 5 5 12 29 45 98 100 99 98 98 91 77 65 73 85 100 99 90 46 7 5 6 5
100 100 100 100 100 100 74 66 60 99 100 100 62 11 5 6 5 16 5 3 36 5 5 5 10 5 39 82 62 39 51 46 55 99 96 71 35 17 5 5 11 44 23 5
100 100 100 100 100 100 75 88 79 63 100 100 100 100 47 12 5 5 5 80 100 22 5 5 11 8 11 8 5 6 39 90 63 7 17 28 6 5 17 57 60 34 5 5
100 100 100 100 100 100 91 100 51 61 100 100 100 100 100 23 11 34 31 100 100 41 5 5 15 100 100 46 6 10 47 11 64 35 13 5 58 83 77 40 71 44 30 5
100 100 100 100 100 100 97 100 100 100 100 100 100 100 100 14 26 39 65 30 94 91 98 100 100 94 100 100 100 89 81 81 73 74 81 77 80 86 75 68 48 23 32 5
100 100 100 100 100 100 100 100 53 83 98 100 100 100 100 67 80 77 50 76 90 94 85 31 48 99 100 100 100 99 100 97 96 100 100 97 94 99 98 92 77 65 95 100
100 100 100 100 100 100 100 100 98 72 100 99 100 100 100 90 94 100 100 100 84 55 19 93 100 100 100 100 100 100 100 100 100 99 100 100 100 97 100 100 100 100 100 100
100 100 100 100 100 100 98 100 100 100 79 100 100 100 100 100 100 100 100 100 82 100 100 100 100 100 100 100 100 100 100 100 100 100 100 100 100 100 100 100 100 100 100 100
100 100 100 100 97 100 100 100 100 100 100 100 100 100 100 100 100 100 99 100 100 100 100 100 100 100 100 100 100 100 100 100 100 100 100 100 100 100 100 100 100 100 100 100
98 80 66 14 76 100 100 100 100 100 100 100 100 100 100 100 100 100 100 100 100 100 100 100 100 100 100 100 100 100 100 100 100 100 100 100 100 100 100 100 100 100 100 100
100 100 100 100 100 100 100 100 100 100 100 100 100 100 100 100 100 100 100 100 100 100 100 100 100 100 100 100 100 100 100 100 100 100 100 100 100 100 100 100 100 100 100 100
100 100 100 100 100 100 100 100 100 100 100 100 100 100 100 100 100 100 100 100 100 100 100 100 100 100 100 100 100 100 100 100 100 100 100 100 100 100 100 100 100 100 100 100
100 100 100 100 100 100 100 100 100 100 100 100 100 100 100 100 100 100 100 100 100 100 100 100 100 100 100 100 100 100 100 100 100 100 100 100 100 100 100 100 100 100 100 100
100 100 100 100 100 100 100 100 100 100 100 100 100 100 100 100 100 100 100 100 100 100 100 100 100 100 100 100 100 100 100 100 100 100 100 100 100 100 100 100 100 100 100 100
100 100 100 100 100 100 100 100 100 100 100 100 100 100 100 100 100 100 100 100 100 100 100 100 100 100 100 100 100 100 100 100 100 100 100 100 100 100 100 100 100 100 100 100
100 100 100 100 100 100 100 100 100 100 100 100 100 100 100 100 100 100 100 100 100 100 100 100 100 100 100 100 100 100 100 100 100 100 100 100 100 100 100 100 100 100 100 100
100 100 100 100 100 100 100 100 100 100 100 100 100 100 100 100 100 100 100 100 100 100 100 100 100 100 100 100 100 100 100 100 100 100 100 100 100 100 100 100 100 100 100 100
100 100 100 100 100 100 100 100 100 100 100 100 100 100 100 100 100 100 100 100 100 100 100 100 100 100 100 100 100 100 100 100 100 100 100 100 100 100 100 100 100 100 100 100

GFSNGP_prec_cloud_036.txt.gz
Cloud_Cover
100 100 100 100 100 87 93 100 99 68 100 100 65 14 87 100 84 100 6 91 95 6 3 0 0 10 5 20 94 61 19 4 11 7 14 100 100 100 100 100 100 100 100 100
100 100 100 100 100 100 100 100 96 100 100 100 86 100 39 40 24 92 8 0 84 6 0 1 1 5 28 12 5 5 4 2 29 99 100 100 100 100 100 100 100 28 9 10
100 100 100 46 87 100 100 96 95 92 99 100 100 41 61 31 5 0 0 0 3 5 5 5 5 5 5 5 5 5 1 3 4 3 4 5 12 24 65 61 9 5 28 91
100 100 86 62 95 100 100 37 98 96 100 100 83 56 16 11 100 8 0 0 0 2 5 5 2 1 4 6 5 6 66 59 86 53 5 5 5 5 5 9 38 40 13 11
66 75 100 7 100 100 100 100 100 56 100 100 100 25 14 14 13 1 0 0 0 0 0 0 0 0 0 5 5 8 35 5 5 5 5 5 5 5 5 5 10 40 48 72
100 53 6 83 100 100 100 100 86 96 99 100 91 91 68 4 0 0 0 0 0 0 0 0 0 0 2 5 6 55 51 26 6 25 13 9 20 16 43 57 97 100 99 98
62 36 2 98 100 100 99 100 96 99 41 100 100 89 5 5 5 5 0 0 0 0 0 0 0 0 0 3 4 24 22 28 58 54 52 56 100 88 79 88 100 97 99 56
98 93 23 100 100 100 100 100 100 26 100 100 93 57 5 5 5 5 5 0 0 4 0 0 0 0 1 1 0 0 5 5 21 65 99 100 100 96 100 100 100 79 22 6
100 52 98 100 100 100 100 100 98 60 7 100 100 90 5 5 5 5 5 5 5 5 5 5 2 5 5 5 5 5 10 63 91 100 100 100 100 98 100 91 56 58 11 5
97 100 100 100 100 100 100 100 58 97 100 100 100 34 5 5 7 19 5 10 5 5 10 20 17 5 14 7 6 5 22 24 77 55 79 98 99 92 77 82 66 76 13 79
100 100 100 100 100 100 100 100 85 100 100 100 97 8 16 80 100 100 100 100 36 35 12 57 26 77 100 100 64 8 17 89 82 61 83 89 93 95 74 63 74 69 76 34
100 100 100 100 100 100 91 100 98 100 100 100 100 40 16 22 68 100 98 100 100 100 44 48 52 100 56 99 96 65 98 100 100 65 66 72 75 30 42 56 89 78 74 88
100 100 100 100 100 100 100 100 100 100 100 100 100 68 33 99 100 99 100 100 100 100 100 85 94 100 100 84 91 89 66 98 100 100 97 90 95 78 94 100 100 100 100 100
100 100 100 100 100 100 100 100 100 100 100 100 82 69 89 57 19 15 69 85 100 100 100 100 100 100 100 56 60 87 96 88 100 100 100 99 100 100 100 92 100 94 96 92
100 100 100 100 100 100 100 100 100 100 90 98 58 5 43 48 39 50 98 100 100 100 100 100 100 100 100 100 100 100 100 100 100 100 100 100 100 100 100 100 100 94 85 94
100 100 100 100 100 97 100 100 100 99 100 85 88 66 56 80 100 100 100 100 100 100 100 100 100 100 100 100 100 100 100 100 100 100 100 100 100 100 100 100 100 100 100 100
100 100 100 100 100 100 100 100 99 90 100 93 100 100 100 100 100 100 100 100 100 100 100 100 100 100 100 100 100 100 100 100 100 100 100 100 100 100 100 100 100 100 100 100
100 100 100 100 100 100 100 100 100 100 100 100 100 100 100 100 100 100 100 100 100 100 100 100 100 100 100 100 100 100 100 100 100 100 100 100 100 100 100 100 100 100 100 100
100 100 100 100 96 95 100 100 100 100 100 100 100 100 100 100 100 100 100 100 100 100 100 100 100 100 100 100 100 100 100 100 100 100 100 100 100 100 100 100 100 100 100 100
100 100 100 100 100 100 100 100 100 100 100 100 100 100 100 100 100 100 100 100 100 100 100 100 100 100 100 100 100 100 100 100 100 100 100 100 100 100 100 100 100 100 100 100
100 100 100 100 100 100 100 100 100 100 100 100 100 100 100 100 100 100 100 100 100 100 100 100 100 100 100 100 100 100 100 100 100 100 100 100 100 100 100 100 100 100 100 100
100 100 100 100 100 100 100 100 100 100 100 100 100 100 100 100 100 100 100 100 100 100 100 100 100 100 100 100 100 100 100 100 100 100 100 100 100 100 100 100 100 100 100 100
100 100 100 100 100 100 100 100 100 100 100 100 100 100 100 100 100 100 100 100 100 100 100 100 100 100 100 100 100 100 100 100 100 100 100 100 100 100 100 100 100 100 100 100
100 100 100 100 100 100 100 100 100 100 100 100 100 100 100 100 100 100 100 100 100 100 100 100 100 100 100 100 100 100 100 100 100 100 100 100 100 100 100 100 100 100 100 100
100 100 100 100 100 100 100 100 100 100 100 100 100 100 100 100 100 100 100 100 100 100 100 100 100 100 100 100 100 100 100 100 100 100 100 100 100 100 100 100 100 100 100 100
100 100 100 100 100 100 100 100 100 100 100 100 100 100 100 100 100 100 100 100 100 100 100 100 100 100 100 100 100 99 100 100 100 100 100 100 100 100 100 100 100 100 100 100
100 100 100 100 100 100 100 100 100 100 100 100 100 100 100 100 100 100 100 100 100 100 100 100 100 100 100 99 96 100 100 100 100 100 89 99 100 100 100 100 100 99 88 100

GFSNGP_prec_cloud_039.txt.gz
Cloud_Cover
100 100 100 100 100 91 100 100 100 100 100 100 93 28 100 100 100 50 66 100 88 9 21 100 59 4 0 0 0 5 1 28 58 45 49 57 88 100 100 100 100 100 100 100
100 92 100 100 100 68 61 100 100 100 100 100 61 57 100 100 88 28 0 74 71 0 3 0 58 8 0 0 0 0 0 0 0 0 20 33 62 100 99 100 100 100 100 100
65 100 100 99 100 100 100 100 100 100 100 100 88 46 51 100 38 8 5 5 4 0 0 0 0 0 2 4 0 0 0 0 0 0 0 0 6 21 69 96 100 64 27 19
32 100 100 80 100 100 100 100 100 100 100 100 100 91 100 100 100 90 4 0 2 0 0 0 0 1 0 0 0 0 0 0 0 0 4 2 2 6 39 33 4 5 5 6
82 42 90 100 100 100 100 100 100 100 100 100 100 94 22 100 100 5 5 5 4 0 0 0 0 0 0 0 0 0 0 1 3 4 5 7 66 42 38 56 60 59 42 24
100 93 8 100 100 100 100 100 100 100 100 100 100 10 88 100 100 11 5 5 5 0 0 0 0 0 0 0 0 0 1 5 5 24 2 0 0 0 5 26 45 7 22 95
100 100 5 8 100 100 100 100 100 100 62 72 100 73 100 100 100 98 12 15 5 5 0 0 0 0 0 0 0 0 2 0 5 4 2 0 0 1 5 5 5 22 61 84
100 66 41 52 100 100 100 100 100 99 32 20 82 95 100 100 100 93 4 5 5 5 5 3 11 13 36 14 4 4 5 5 5 5 5 5 2 1 5 5 6 6 39 23
100 93 91 100 77 97 80 100 100 41 96 86 99 100 100 100 95 5 98 9 5 5 23 98 100 100 100 16 5 7 35 12 8 5 26 11 41 30 62 18 86 52 82 93
99 100 100 100 100 100 100 100 99 100 65 93 100 100 100 100 14 100 100 61 6 82 100 100 96 100 51 35 100 100 95 46 41 5 38 61 62 57 33 99 44 20 63 94
100 100 100 15 95 78 100 100 94 49 95 64 100 100 100 99 46 100 100 100 100 96 42 5 9 98 100 100 100 100 100 100 99 83 64 100 99 85 99 80 94 100 100 98
100 100 100 99 98 98 100 100 100 100 100 100 98 100 100 100 100 94 100 100 100 97 6 5 19 100 100 100 100 100 100 100 100 100 100 100 100 100 99 100 100 100 100 100
99 97 42 100 100 100 100 100 100 100 100 100 100 85 100 100 100 100 100 100 100 47 5 61 100 100 41 82 97 100 100 100 100 100 100 100 100 100 100 100 100 100 100 100
70 99 64 100 100 100 100 100 100 100 100 100 39 100 85 100 100 100 100 95 100 100 100 100 91 78 73 99 91 100 100 100 100 100 100 100 100 100 100 100 100 100 100 100
71 99 100 100 100 100 100 100 100 100 100 100 100 48 100 100 100 100 100 92 100 100 100 100 100 100 100 100 100 100 100 100 100 100 100 100 100 100 100 100 100 100 100 100
5 6 100 100 100 100 100 100 100 100 100 100 100 100 100 100 100 99 80 98 100 100 100 100 100 100 100 100 100 100 100 100 100 100 100 100 100 100 100 100 100 100 100 100
86 100 100 100 100 100 100 100 100 100 100 88 100 100 100 100 100 100 100 100 100 100 100 100 100 100 100 100 100 100 100 100 100 100 100 100 100 100 100 100 100 100 100 100
100 100 100 94 100 100 100 100 100 100 100 100 100 100 100 100 100 100 100 100 100 100 100 100 100 100 100 100 100 100 100 100 100 100 100 100 100 100 100 100 100 100 100 100
100 100 100 100 100 100 100 100 100 100 100 100 100 100 100 100 100 100 100 100 100 100 100 100 100 100 100 100 100 100 100 100 100 100 100 100 100 100 100 100 100 100 100 100
100 100 100 100 100 100 100 100 100 100 100 100 100 100 100 100 100 100 100 100 100 100 100 100 100 100 100 100 100 100 100 100 100 100 100 100 100 100 100 100 100 100 100 100
100 100 100 100 100 100 100 100 100 100 100 100 100 100 100 100 100 100 100 100 100 100 100 100 100 100 100 100 100 100 100 100 100 100 100 100 100 100 100 100 100 100 100 100
100 100 100 100 100 100 100 100 100 100 100 100 100 100 100 100 100 100 100 100 100 100 100 100 100 100 100 100 100 100 100 100 100 100 100 100 100 100 100 100 100 100 100 99
100 100 100 100 100 100 100 100 100 100 100 100 100 100 100 100 100 100 100 100 100 100 100 100 100 100 100 100 100 100 100 100 100 100 100 100 100 100 100 100 100 100 95 94
100 100 100 100 100 100 100 100 100 100 100 100 100 100 100 100 100 100 100 100 100 100 100 100 100 100 100 100 100 100 100 100 100 100 100 100 91 93 82 86 95 100 100 100
100 100 100 100 100 100 100 100 100 100 100 100 100 100 100 100 100 100 100 100 100 100 100 100 100 100 100 100 100 100 100 100 100 100 100 98 94 95 46 81 100 100 100 95
100 100 100 98 95 98 100 94 100 100 100 100 100 100 100 100 100 100 100 100 100 100 100 100 100 100 100 100 100 97 69 52 75 72 72 84 72 38 46 88 90 88 88 85
100 100 100 100 100 78 62 73 99 95 100 100 100 100 100 100 100 100 100 100 100 100 92 74 92 81 37 25 41 66 49 14 69 100 97 16 53 99 91 70 40 61 63 54

GFSNGP_prec_cloud_042.txt.gz
Cloud_Cover
58 100 76 95 98 100 100 68 10 100 100 100 99 93 99 5 93 56 30 26 36 100 9 44 14 4 0 0 4 1 7 96 100 100 100 100 100 100 100 100 100 100 100 100
5 79 100 91 91 99 96 100 55 76 81 100 100 75 57 100 100 60 100 65 90 21 92 75 94 40 0 0 16 2 5 16 100 100 100 100 100 100 100 100 100 100 100 100
33 97 100 100 25 68 100 100 100 99 100 100 100 100 100 100 100 100 100 35 98 9 0 0 0 0 0 0 20 79 97 100 100 100 100 100 100 100 100 100 100 100 100 100
95 90 97 8 100 100 71 36 100 100 100 100 100 100 86 52 86 100 100 100 100 92 4 4 5 2 0 0 0 28 100 100 100 100 100 100 98 86 52 12 48 100 99 99
100 93 86 1 100 100 100 88 100 100 100 100 100 100 100 100 100 68 100 100 100 92 15 5 4 0 0 0 0 0 5 40 54 70 97 90 15 5 18 92 65 10 0 0
100 100 100 81 85 100 100 98 100 100 100 100 100 100 100 84 100 100 100 100 100 100 17 0 4 5 2 0 0 0 0 0 16 1 0 1 5 5 41 0 0 0 0 1
100 100 95 100 96 100 100 66 99 100 100 100 98 70 69 29 93 100 16 99 100 100 60 5 3 5 5 5 5 1 2 0 0 0 3 4 2 3 5 5 5 29 62 57
100 100 100 100 100 100 39 95 100 100 100 41 90 88 57 95 99 99 91 84 100 100 26 5 6 5 5 8 5 4 5 1 0 0 4 5 5 4 5 5 30 99 61 100
100 100 100 100 98 67 52 100 100 100 18 5 29 96 98 100 100 100 88 100 100 100 92 100 100 100 3 5 5 5 4 5 5 4 5 5 5 5 5 8 6 92 55 44
100 100 100 100 100 100 100 100 100 100 94 9 86 21 97 99 100 100 100 100 100 100 100 100 100 100 94 12 14 8 8 5 5 5 22 33 67 62 5 5 5 43 36 69
100 100 100 100 100 100 100 100 100 100 100 96 29 92 100 100 100 100 100 100 100 100 100 100 100 100 100 100 100 100 58 8 5 12 7 86 100 100 69 50 36 63 45 82
100 100 100 100 100 100 100 100 100 100 83 84 100 100 96 87 90 100 100 100 100 100 100 100 100 100 100 100 100 82 96 76 86 92 100 100 99 100 100 100 100 97 100 100
100 100 100 100 100 100 100 100 100 100 100 95 100 100 100 100 100 100 100 100 100 100 100 100 100 100 100 100 100 100 100 100 79 85 87 100 100 100 100 100 100 100 99 100
100 100 100 100 100 100 100 100 100 100 100 100 100 100 100 100 100 100 100 100 100 100 100 100 100 100 100 100 100 100 100 100 100 100 100 100 100 100 100 100 100 100 100 100
100 100 100 100 95 94 43 58 100 100 100 100 100 100 100 100 100 100 100 100 100 100 100 100 100 100 100 100 100 100 100 100 100 100 100 100 100 100 100 100 100 100 100 100
100 100 100 100 22 84 100 100 64 100 100 100 100 100 100 100 100 100 100 100 100 100 100 100 100 100 100 100 100 100 100 100 100 100 100 100 100 100 100 100 100 100 100 100
100 100 100 100 100 100 99 96 95 100 100 100 100 100 100 100 100 100 100 100 100 100 100 100 100 100 100 100 100 100 100 100 100 100 100 100 100 100 100 100 100 100 100 100
100 100 100 100 100 100 100 100 100 95 100 100 100 100 100 100 100 100 100 100 100 100 100 100 100 100 100 100 100 100 100 100 100 100 100 100 100 100 100 100 100 100 100 100
100 100 100 100 100 100 100 100 100 100 100 100 100 100 100 100 100 100 100 100 100 100 100 100 100 100 100 100 100 100 100 100 100 100 100 100 100 100 100 100 100 100 100 100
100 100 100 100 100 100 100 100 100 100 100 100 100 100 100 100 100 100 100 100 100 100 100 100 100 100 100 100 100 100 100 100 100 100 100 100 100 100 100 100 100 100 100 100
100 100 100 100 100 100 100 100 100 100 100 100 100 100 100 100 100 100 100 100 100 100 100 100 100 100 100 100 100 100 100 100 100 100 100 100 100 100 100 100 100 100 100 100
100 100 100 100 100 100 100 100 100 100 100 100 100 100 100 100 100 100 100 100 100 100 100 100 100 100 100 100 100 100 100 100 100 100 100 100 100 100 100 100 100 100 100 100
100 100 100 100 100 100 100 100 100 100 100 100 100 100 100 100 100 100 100 100 100 100 100 100 100 100 100 100 100 100 100 100 100 100 100 100 100 100 100 100 81 100 100 100
100 100 100 100 100 100 100 100 100 100 100 100 100 100 100 100 100 100 100 100 100 100 100 100 100 100 100 100 100 100 100 100 100 100 100 95 100 87 99 100 100 92 74 95
100 100 100 100 95 100 100 100 100 100 100 100 100 100 100 96 98 100 100 99 100 100 100 100 100 100 100 100 99 91 100 98 84 93 100 100 100 100 100 100 99 96 93 99
100 100 100 100 100 100 100 100 100 100 100 100 100 100 100 100 97 100 100 96 92 94 100 98 45 5 31 76 81 71 89 100 99 98 100 100 100 100 100 99 77 78 96 100
95 84 92 48 30 32 67 60 83 100 93 73 98 100 97 90 99 98 90 78 84 70 28 51 21 55 35 42 49 92 92 90 16 7 23 95 100 100 100 71 83 91 95 100

GFSNGP_prec_cloud_045.txt.gz
Cloud_Cover
100 100 100 100 100 98 18 30 16 54 32 100 100 99 100 100 53 96 100 18 5 5 13 4 5 3 3 5 27 1 4 0 0 4 45 100 100 100 97 100 100 100 100 100
97 100 97 99 100 100 70 79 74 72 96 100 100 100 100 98 100 96 65 100 78 25 27 100 76 8 100 55 1 0 0 0 0 0 30 100 100 100 100 100 100 100 100 100
88 100 100 11 5 82 100 99 85 61 100 100 100 100 100 100 100 86 60 83 100 59 49 99 50 9 11 4 5 1 0 1 1 33 68 100 100 100 100 100 100 100 100 100
85 100 100 0 79 44 100 96 100 100 100 100 100 100 98 74 100 100 100 60 73 99 29 46 86 46 28 42 32 16 40 90 96 100 100 100 100 100 100 100 100 100 100 100
49 24 32 1 90 100 100 5 50 99 100 100 100 100 100 100 98 100 100 89 100 8 45 77 100 100 100 42 93 100 100 100 100 100 100 100 100 100 100 100 100 100 100 100
91 59 40 0 13 100 88 6 6 44 12 5 100 30 76 100 100 100 100 100 99 86 82 100 100 100 100 50 73 100 100 100 100 100 100 100 100 100 100 99 65 99 100 100
100 100 82 25 100 100 85 28 64 19 21 83 50 4 72 90 91 98 100 100 100 99 99 100 100 100 100 100 100 46 89 89 94 99 100 100 77 70 33 67 85 100 100 100
100 96 94 100 100 100 67 95 64 89 6 100 93 66 19 68 87 70 100 97 100 100 100 100 99 100 100 100 100 100 98 52 95 100 100 65 55 81 76 78 100 100 100 100
2 4 79 90 100 100 100 100 83 58 94 24 64 96 93 21 100 100 100 100 100 100 100 100 100 100 100 100 100 100 100 100 77 23 5 5 5 40 66 99 100 100 100 100
0 0 100 100 100 100 100 100 92 100 94 77 100 100 72 96 100 99 100 100 100 100 100 98 100 100 100 100 100 100 100 100 97 94 9 12 14 24 46 100 100 100 92 100
2 21 100 100 100 100 100 100 100 100 100 100 100 98 94 98 100 96 100 100 100 100 100 100 100 100 100 100 100 100 100 100 100 96 100 100 100 100 100 100 100 72 90 86
2 100 100 100 100 100 100 100 100 100 100 100 82 100 100 100 100 100 100 100 84 95 100 100 100 100 100 100 100 100 100 100 100 100 100 100 100 100 100 92 90 100 100 100
94 100 100 100 100 100 100 100 100 100 100 95 100 100 100 100 100 100 100 100 89 100 100 100 100 100 100 100 100 100 100 100 100 100 100 100 100 100 100 100 100 100 100 100
99 16 100 100 100 100 100 100 99 100 100 100 100 100 100 100 100 100 100 100 100 100 100 95 100 100 100 100 100 100 100 100 100 100 100 100 100 100 100 100 100 100 100 100
88 73 99 100 100 100 100 100 100 100 100 100 100 100 100 100 100 100 100 100 100 100 100 100 100 100 100 100 100 100 100 100 100 100 100 100 100 100 100 100 100 100 100 100
100 99 100 100 100 100 100 83 100 100 100 100 100 100 100 100 100 100 100 100 100 100 100 100 100 100 100 100 100 100 100 100 100 100 100 100 100 100 100 100 100 100 100 100
100 100 100 100 100 100 100 100 100 100 100 100 100 100 100 100 100 100 100 100 100 100 100 100 100 100 100 100 100 100 100 100 100 100 100 100 100 100 100 100 100 100 100 100
100 100 100 100 100 100 100 100 100 100 100 100 100 100 100 100 100 100 100 100 100 100 100 100 100 100 100 100 100 100 100 100 100 100 100 100 100 100 100 100 100 100 100 100
100 100 100 100 100 100 100 100 100 100 100 100 100 100 100 100 100 100 100 100 100 100 100 100 100 100 100 100 100 100 100 100 100 100 100 100 100 100 100 100 100 100 100 100
100 100 100 100 100 100 100 100 100 100 100 100 100 100 100 100 100 100 100 100 100 100 100 100 100 100 100 100 100 100 100 100 100 100 100 100 100 100 100 100 99 100 100 100
100 100 100 100 100 100 100 100 100 100 100 100 100 100 100 100 100 100 100 100 100 100 100 100 100 100 100 100 100 100 100 100 100 100 100 100 100 100 100 100 100 100 100 100
100 100 100 100 100 100 100 100 100 100 100 100 100 100 100 100 100 100 100 100 100 100 100 100 100 100 100 100 100 100 100 100 100 100 100 100 100 100 100 100 98 89 94 99
100 100 100 100 100 100 100 100 100 100 100 100 100 100 100 100 100 100 100 100 100 100 100 100 100 100 100 100 100 100 100 100 100 100 100 88 71 73 90 99 100 100 95 98
100 100 100 100 100 100 100 100 100 100 100 100 100 100 100 100 100 100 100 100 100 100 100 100 100 98 66 31 23 44 52 65 92 99 100 100 100 100 100 100 100 100 100 100
100 100 100 100 100 100 100 100 100 100 100 100 100 100 100 90 81 100 100 100 96 90 96 66 68 59 49 68 96 100 100 100 100 100 100 100 100 100 100 100 100 100 100 100
100 100 100 100 100 100 100 100 100 100 100 100 100 100 99 100 100 99 97 94 87 53 40 72 87 47 75 100 100 100 100 90 88 100 95 100 100 100 100 82 80 86 100 100
100 100 100 100 100 100 99 95 91 100 66 61 98 100 96 96 84 76 64 21 24 45 91 95 68 39 24 100 100 100 83 60 94 84 100 100 100 100 100 100 100 100 100 100

GFSNGP_prec_cloud_048.txt.gz
Cloud_Cover
100 100 100 100 100 100 100 100 18 71 18 100 100 99 8 5 37 98 100 99 100 100 100 46 42 9 0 3 0 0 0 0 0 0 2 7 88 100 100 100 98 99 100 100
100 100 100 100 100 100 63 35 5 5 5 13 80 100 5 5 81 100 100 100 100 100 100 100 100 24 46 97 5 3 0 0 0 0 0 0 0 2 100 100 100 100 100 100
66 100 100 96 100 100 100 67 5 4 38 95 68 100 82 79 63 100 100 100 100 100 100 96 96 100 100 71 100 98 1 0 0 0 0 0 45 100 100 100 100 100 100 100
80 100 94 80 98 100 100 66 9 5 55 75 97 90 100 12 52 100 100 100 100 100 100 100 80 100 100 100 100 98 4 2 0 1 28 84 100 100 100 100 100 100 100 100
37 51 77 60 99 85 100 22 57 5 5 18 96 48 100 100 96 76 100 100 100 100 100 100 100 100 100 100 100 100 100 94 39 88 100 100 100 100 100 100 100 100 100 100
97 100 15 82 100 100 100 1 5 4 1 5 5 38 96 100 100 100 100 100 99 93 99 100 100 100 100 100 100 100 100 100 100 100 100 100 100 100 100 100 100 100 100 100
100 99 2 0 0 69 100 28 1 1 0 0 5 5 8 100 100 82 97 100 100 100 100 100 100 100 100 100 100 100 100 100 100 100 100 100 100 100 100 100 100 100 100 100
99 100 23 0 0 2 56 53 4 0 5 0 44 1 5 100 100 100 58 50 100 100 93 75 100 100 100 100 100 100 100 100 100 100 100 100 100 100 100 100 100 100 100 100
2 2 0 0 0 0 5 2 2 5 3 4 34 10 11 100 100 100 100 96 98 99 100 100 80 100 100 99 100 100 100 100 100 100 100 100 100 100 100 100 100 100 100 100
1 0 0 0 0 2 0 5 100 100 64 38 68 64 37 99 100 100 100 100 100 100 100 85 92 100 100 100 100 99 100 100 100 100 100 100 100 100 100 100 100 100 100 100
0 0 0 0 0 0 1 62 100 100 100 100 100 100 100 77 100 100 99 98 100 100 100 100 100 100 100 100 100 100 100 100 100 100 100 100 100 100 100 100 100 100 100 100
0 92 98 20 0 3 6 63 94 100 100 100 100 100 99 100 100 100 97 100 100 100 100 100 100 100 100 100 100 100 100 100 100 100 100 100 100 100 100 100 100 100 100 100
99 44 63 46 51 33 100 100 100 100 100 100 100 100 97 100 100 100 100 100 100 100 100 100 100 100 100 100 100 100 100 100 100 100 100 100 100 100 100 100 100 100 100 100
100 100 74 99 81 19 100 100 100 100 100 100 100 100 100 100 100 100 100 100 100 100 100 100 100 100 100 100 100 100 100 100 100 100 100 100 100 100 100 100 100 100 100 100
100 100 100 100 70 86 100 100 100 100 100 100 100 100 100 100 100 100 100 100 100 100 100 100 100 100 100 100 100 100 100 100 100 100 100 100 100 100 100 100 100 100 100 100
100 100 100 100 95 95 100 100 100 100 100 97 93 100 100 99 100 100 100 100 100 100 100 100 100 100 100 100 100 100 100 100 100 100 100 100 100 100 100 100 100 100 100 100
100 100 100 100 100 100 93 100 100 100 100 100 100 100 100 100 100 100 100 100 100 100 100 100 100 100 100 100 100 100 100 100 100 100 100 100 100 100 100 100 100 100 100 100
88 100 100 100 100 100 100 100 100 100 100 100 100 100 100 100 100 100 100 100 100 100 100 100 100 100 100 100 100 100 100 100 100 100 100 100 100 100 100 100 100 100 100 100
100 100 100 100 100 100 100 100 100 100 100 100 100 100 100 100 100 100 100 100 100 100 100 100 100 100 100 100 100 100 100 100 100 100 100 100 100 100 100 100 100 100 100 100
100 100 100 100 100 94 100 100 100 100 100 100 100 100 100 100 100 100 100 100 100 100 100 100 100 100 100 100 98 97 100 100 100 100 100 100 100 100 100 100 100 100 99 73
100 100 100 100 100 100 100 100 100 100 100 100 100 100 100 100 100 100 100 100 100 100 100 100 100 100 100 100 98 95 100 100 100 100 100 100 100 97 76 63 87 99 99 98
100 100 100 100 100 100 100 100 100 100 100 100 100 100 100 100 100 100 100 100 100 100 100 100 100 97 91 89 97 100 97 99 98 92 89 64 37 71 100 99 100 100 100 100
100 100 100 100 100 100 100 100 100 100 100 100 100 100 100 100 100 100 100 100 100 100 100 100 100 100 99 100 98 78 84 80 66 79 85 90 100 100 100 100 100 100 100 100
100 100 100 100 100 100 100 100 100 100 100 100 100 100 100 100 100 100 100 100 100 100 100 100 100 69 18 32 52 92 100 100 100 100 100 100 100 100 100 100 100 100 100 100
100 100 100 100 100 100 100 100 100 100 100 100 100 100 100 100 100 100 100 100 100 100 100 100 100 96 100 100 100 100 100 100 100 100 100 100 100 100 100 100 100 100 100 100
100 100 100 100 100 100 100 100 100 100 100 100 100 100 100 100 100 100 100 100 100 100 99 89 63 89 100 100 100 100 98 53 73 90 100 100 100 100 100 100 100 100 100 100
100 100 100 100 100 100 100 100 100 100 95 69 95 100 100 92 56 30 60 60 90 99 98 87 84 67 100 100 100 100 99 100 100 100 100 100 100 100 100 100 100 100 100 100

GFSNGP_prec_cloud_054.txt.gz
Cloud_Cover
100 100 100 100 100 100 100 97 89 100 74 90 100 100 100 100 100 92 100 98 100 95 60 60 75 46 34 5 5 67 100 91 4 5 5 5 5 0 0 0 9 12 74 95
100 100 100 100 100 100 100 100 100 100 95 45 100 100 100 100 100 100 99 87 100 100 100 100 100 98 100 79 5 6 77 77 77 5 5 5 5 5 5 4 5 5 0 0
100 100 100 100 100 100 100 100 100 100 100 100 97 88 98 100 100 100 100 100 100 100 100 93 94 97 48 95 55 5 52 82 79 29 5 5 5 5 5 14 20 16 12 20
100 100 100 100 100 100 100 100 100 66 5 5 5 5 69 70 99 100 100 100 100 100 47 100 69 81 100 72 20 64 20 58 100 100 80 62 61 74 90 94 45 83 99 99
96 65 60 100 100 100 99 39 5 4 5 5 1 1 34 35 68 100 100 100 100 100 26 5 76 100 95 92 98 17 92 85 82 92 94 100 100 100 100 98 100 100 100 100
100 96 100 100 100 100 100 100 82 79 26 5 5 45 98 100 100 100 100 100 100 100 100 25 96 100 100 96 100 100 100 100 100 100 100 100 100 100 100 100 100 100 100 100
97 100 99 100 100 100 100 100 100 100 100 100 99 34 70 100 6 5 11 81 98 100 100 100 16 100 100 100 100 100 100 100 100 100 100 100 100 100 100 100 100 100 100 100
91 100 100 100 100 100 100 100 100 100 100 100 100 27 68 100 99 19 11 86 95 100 100 100 100 100 100 100 100 100 100 100 100 100 100 100 100 100 100 100 100 100 100 100
100 99 30 68 100 100 85 100 100 100 95 14 21 5 6 5 5 8 33 74 98 100 100 100 100 100 100 100 100 100 100 100 100 100 100 100 100 100 100 100 100 100 100 100
100 100 100 100 100 100 99 86 59 100 35 6 4 5 0 0 0 5 3 8 68 100 100 100 100 100 100 100 100 100 100 100 100 100 100 100 100 100 100 100 100 100 100 100
64 70 54 9 5 39 3 2 2 5 3 2 2 5 0 0 8 18 80 100 100 100 100 100 100 100 100 100 100 100 100 100 100 100 100 100 100 100 100 100 100 100 100 100
89 61 5 1 3 17 0 2 0 1 0 0 4 3 2 38 92 72 86 100 100 100 100 100 100 100 100 100 100 100 100 100 100 100 100 100 100 100 100 100 100 100 100 100
42 83 41 18 37 17 6 5 20 14 0 1 2 10 76 100 98 100 90 100 100 100 100 100 100 100 100 100 100 100 100 100 100 100 100 100 100 100 100 100 100 100 100 100
63 61 40 100 100 92 61 100 100 96 22 50 70 70 87 100 97 100 100 100 100 100 100 100 100 100 100 100 100 100 100 100 100 100 100 100 100 100 100 100 100 100 100 100
97 79 91 98 100 100 100 100 100 90 67 88 99 100 100 100 100 100 100 100 100 100 100 100 100 100 100 100 100 100 100 100 100 100 100 100 100 100 100 100 100 100 100 100
16 29 100 100 100 100 100 100 100 99 100 100 100 100 100 100 100 100 100 100 100 100 100 100 100 100 100 100 100 100 100 100 100 100 100 100 100 100 100 100 100 100 100 100
83 90 75 100 91 92 100 100 100 100 100 100 100 100 100 100 100 100 100 100 100 100 100 100 100 100 100 100 100 100 100 100 100 100 100 100 100 100 100 100 100 100 100 100
100 100 100 97 100 99 100 100 100 100 100 100 100 100 100 100 100 100 100 100 100 100 100 100 100 100 100 100 100 100 100 100 100 100 100 100 100 100 100 100 100 100 100 98
100 100 100 100 100 100 100 100 100 100 100 100 100 100 100 100 100 100 100 100 100 100 100 100 100 100 100 100 100 100 100 100 100 100 100 100 100 100 100 100 100 100 100 100
100 100 100 100 100 100 100 100 100 100 100 100 100 100 100 100 100 100 100 100 100 100 100 100 100 100 100 100 100 100 100 100 98 100 100 100 100 100 100 100 100 100 100 100
100 100 100 100 100 100 100 100 100 100 100 100 100 100 100 100 100 100 100 100 99 86 82 99 100 96 90 100 100 100 94 94 99 100 100 100 100 100 100 100 100 100 100 100
100 100 100 100 100 100 100 100 100 100 100 100 100 100 100 100 100 100 100 94 83 98 100 100 100 99 100 100 100 98 100 100 100 100 100 100 100 100 100 100 100 100 100 100
100 100 100 100 100 100 100 100 100 100 100 100 100 100 100 100 100 99 100 100 100 100 100 99 100 88 100 100 100 100 100 100 100 100 100 100 100 100 100 100 100 100 100 100
100 100 100 100 100 100 100 100 100 100 100 100 100 100 100 100 100 100 100 100 100 92 71 61 58 99 100 100 100 100 100 100 100 100 100 98 100 100 100 100 100 100 100 93
100 100 100 100 100 100 100 100 100 100 100 100 100 100 100 100 100 100 100 86 66 88 84 98 100 100 100 100 100 100 100 100 97 100 100 100 100 100 100 100 100 100 100 100
100 100 100 100 100 100 100 100 100 100 100 100 100 100 100 100 100 100 100 98 95 84 100 100 99 100 100 100 100 100 100 100 100 100 97 100 100 100 100 100 100 100 100 100
100 97 98 96 100 98 93 84 100 100 100 100 100 100 100 100 96 100 69 100 100 100 100 100 100 93 100 100 100 100 100 100 66 100 100 100 100 100 100 100 100 100 100 100

GFSNGP_prec_cloud_057.txt.gz
Cloud_Cover
100 100 100 100 100 100 100 100 100 100 100 100 100 100 96 100 100 100 74 67 5 97 100 92 4 5 69 64 4 4 0 2 1 3 100 100 7 3 3 5 4 0 0 0
100 100 100 100 100 100 100 100 100 100 100 100 96 82 99 100 100 100 100 100 99 100 100 9 5 5 5 98 69 10 5 31 3 0 5 64 5 5 8 5 5 5 5 5
100 100 100 100 100 100 100 100 100 100 100 100 74 27 99 100 100 100 100 100 100 99 70 10 5 40 100 100 84 23 5 12 37 5 5 3 1 77 29 57 85 64 17 5
100 100 100 100 100 100 100 100 100 100 100 99 76 50 100 91 85 100 100 100 100 100 100 5 5 60 100 100 99 8 5 5 5 45 46 82 40 6 90 100 100 100 56 23
100 100 100 100 100 100 100 100 100 95 87 96 85 92 100 68 100 100 100 100 100 72 100 97 59 19 6 11 5 5 5 61 100 57 84 97 78 97 96 100 100 100 100 100
96 81 87 100 100 100 100 100 100 100 100 100 100 100 100 100 100 100 98 65 92 97 100 100 100 100 100 100 100 11 5 5 9 50 45 54 100 92 96 97 100 100 88 100
100 100 100 100 94 100 100 100 100 100 100 100 100 100 100 100 100 100 38 6 7 93 100 100 100 100 100 100 100 30 89 55 80 52 100 100 100 85 41 87 100 100 100 100
100 100 88 92 100 100 100 100 100 87 83 100 100 100 100 84 53 8 5 5 5 5 16 95 100 100 100 100 94 100 100 100 100 100 80 100 100 100 100 100 100 100 100 100
100 100 100 100 100 100 100 100 100 100 66 7 11 12 14 68 21 5 4 0 0 5 32 98 100 100 100 100 100 100 100 100 100 100 100 100 100 100 100 100 100 100 100 100
100 100 100 100 100 100 100 100 100 99 92 14 5 5 17 5 5 5 5 45 23 12 60 100 48 100 100 100 100 100 100 100 100 100 100 100 100 100 100 100 100 100 100 100
99 100 100 100 72 100 100 100 100 100 99 5 5 34 100 99 6 34 82 95 99 98 100 90 59 100 100 100 100 100 100 100 100 100 100 100 100 100 100 100 100 100 100 100
96 62 100 100 100 100 100 100 100 100 74 58 33 6 23 81 96 98 100 100 100 100 91 100 94 100 100 100 100 100 100 100 100 100 100 100 100 100 100 100 100 100 100 100
48 96 83 12 71 100 88 94 72 25 29 81 69 45 87 100 100 100 100 100 99 100 100 100 100 100 100 100 100 100 100 100 100 100 100 100 100 100 100 100 100 100 100 100
100 46 18 11 58 33 29 8 30 72 81 100 98 99 100 98 100 100 100 100 98 100 100 100 100 100 100 100 100 100 100 100 100 100 100 100 100 100 100 100 100 100 100 100
82 14 57 88 100 97 100 95 100 100 100 100 100 100 100 100 100 100 100 100 100 100 100 100 100 100 100 100 100 100 100 100 100 100 100 100 100 100 100 100 100 100 100 100
32 55 99 100 100 82 68 68 83 87 97 99 98 100 100 100 100 100 100 100 100 96 100 100 100 100 100 100 100 100 100 100 100 100 100 100 100 100 100 100 100 100 100 100
66 95 80 100 78 86 94 100 97 100 100 100 100 100 100 100 100 100 100 100 100 100 100 100 100 100 100 100 100 100 100 100 100 100 100 100 100 100 100 100 100 100 100 100
100 100 100 100 100 100 100 100 100 100 100 100 100 100 100 100 100 100 100 100 100 100 100 100 100 100 100 100 100 100 100 100 100 100 100 100 100 100 100 100 100 100 100 100
100 100 100 100 100 100 100 100 100 100 100 100 100 100 100 100 100 100 100 100 100 100 100 100 100 100 100 100 100 100 100 100 100 100 100 100 100 100 100 100 100 100 100 100
100 100 100 100 100 100 100 100 100 100 100 100 100 100 100 100 100 100 100 100 100 100 100 100 100 100 100 100 100 100 100 100 100 100 100 100 100 100 100 94 100 100 100 100
100 100 100 100 100 100 100 100 100 100 100 100 100 100 100 100 100 100 100 100 100 100 99 100 98 100 100 99 100 100 100 100 100 100 100 100 100 100 100 100 100 100 100 100
100 100 100 100 100 100 100 100 100 100 100 100 100 100 100 100 100 100 100 100 100 100 100 100 94 100 95 89 100 100 100 100 100 100 100 100 100 100 100 100 100 100 100 100
100 100 100 100 100 100 100 100 100 100 100 100 100 100 100 100 100 100 100 100 100 100 100 100 100 100 100 100 100 100 100 100 100 100 100 100 100 100 100 100 100 100 100 100
100 100 100 100 100 100 100 100 100 100 100 100 100 100 100 100 100 100 100 100 100 100 100 100 100 100 100 100 100 100 100 100 100 100 100 100 100 100 100 100 100 100 100 100
100 100 100 100 100 100 100 100 100 100 100 100 100 100 100 100 100 100 100 98 89 100 100 78 100 98 100 100 100 100 100 100 100 100 100 100 100 100 100 100 100 100 100 100
100 100 100 100 100 100 100 100 100 100 100 100 100 100 100 100 100 100 100 100 100 98 100 100 100 100 100 100 100 100 100 100 100 100 99 100 100 100 100 100 100 100 100 100
100 100 98 81 68 82 87 84 100 100 98 100 100 100 100 100 97 100 90 100 100 100 100 100 100 100 100 100 100 100 100 100 100 78 100 100 100 100 100 100 100 100 100 100

GFSNGP_prec_cloud_060.txt.gz
Cloud_Cover
100 100 100 100 100 100 100 100 100 100 100 100 100 100 100 96 100 100 100 37 65 6 5 22 5 5 68 100 100 59 0 4 11 0 2 4 12 2 91 94 25 15 17 2
100 100 100 100 100 100 100 100 100 100 100 100 100 100 100 100 100 100 99 100 100 100 5 57 38 5 56 100 100 22 5 7 89 5 5 5 5 15 46 33 98 33 28 22
100 100 100 100 100 100 100 100 100 100 100 100 100 99 99 100 100 11 98 100 100 100 100 100 86 34 100 100 100 6 18 68 100 100 100 52 5 4 5 4 35 28 20 87
100 100 100 100 100 100 100 100 100 100 100 100 100 81 100 100 87 100 100 100 100 100 93 100 100 90 98 86 48 23 73 14 100 100 100 11 5 5 60 5 5 32 39 38
100 100 100 100 100 100 100 100 100 100 100 90 100 100 100 96 100 100 100 100 100 81 8 91 99 55 100 97 100 100 16 40 5 6 5 5 5 22 100 92 42 82 41 100
100 100 100 100 100 100 100 100 100 61 47 100 98 100 100 100 100 100 100 96 100 100 100 100 100 97 98 100 100 79 88 10 79 100 100 100 100 100 92 43 64 100 100 100
100 100 100 100 100 100 100 100 100 86 100 100 100 100 100 100 44 80 100 100 100 100 100 100 100 100 100 90 49 36 36 55 96 84 100 100 100 100 80 92 100 100 100 100
100 86 84 100 100 100 100 100 100 100 100 100 100 100 100 100 94 69 89 100 100 100 100 100 100 100 100 100 100 100 99 100 83 93 84 91 100 100 100 100 100 100 100 100
91 100 100 100 100 100 100 100 100 100 100 100 100 100 100 100 100 100 100 88 32 91 100 98 100 100 100 100 100 100 100 100 100 100 100 100 100 100 100 100 100 100 100 100
70 88 100 100 100 100 100 100 100 100 78 100 100 94 95 94 100 51 53 100 100 100 100 98 76 94 100 100 100 100 100 100 100 100 100 100 100 100 100 100 100 100 100 100
57 100 93 100 100 100 100 100 100 100 98 76 82 79 88 100 84 70 100 100 100 100 100 100 98 93 100 100 100 97 100 100 100 100 100 100 100 100 100 100 100 100 100 100
100 100 100 100 100 95 92 100 100 100 100 100 100 98 72 84 100 100 100 100 100 100 100 99 98 100 100 100 100 82 98 100 100 100 100 100 100 100 100 100 100 100 100 100
100 100 100 100 78 99 28 92 100 100 100 100 100 100 100 100 95 97 100 100 99 100 100 100 93 100 99 100 94 92 100 100 100 100 100 100 100 100 100 100 100 100 100 100
100 100 100 100 95 45 34 16 41 15 19 23 42 49 99 89 98 98 100 100 100 100 100 100 100 100 100 100 95 100 100 100 100 100 100 100 100 100 100 100 100 100 100 100
100 100 89 46 11 6 6 33 62 57 83 76 90 95 96 96 99 100 100 100 100 100 100 96 100 100 100 100 100 100 100 100 100 100 100 100 100 100 100 100 100 100 100 100
100 100 100 99 91 71 63 75 93 91 98 100 99 100 100 100 100 100 100 100 97 98 100 100 98 100 100 100 100 100 100 100 100 100 100 100 100 100 100 100 100 100 100 100
100 100 100 100 100 85 96 99 100 100 100 100 100 100 100 100 100 100 92 97 100 100 100 100 100 100 100 100 100 100 100 100 100 100 100 100 100 100 100 100 100 100 100 100
100 100 100 100 100 100 100 100 100 100 100 98 97 81 93 100 100 100 100 100 100 92 100 100 100 100 100 100 100 100 100 100 100 100 100 100 100 100 100 100 100 100 100 100
100 100 100 100 100 100 100 100 100 100 99 96 74 98 100 100 100 100 100 100 100 100 100 100 100 100 100 100 100 100 100 100 100 100 100 100 100 100 100 100 100 100 100 100
100 100 100 100 95 100 100 97 98 92 97 79 92 97 99 100 100 99 100 100 100 100 100 100 100 100 100 100 100 100 100 98 99 100 100 100 100 100 100 100 100 100 100 100
100 99 96 94 100 88 97 76 73 91 99 99 100 98 100 100 99 98 100 100 100 100 100 100 100 100 100 100 100 100 100 100 100 100 100 100 100 100 100 100 100 100 100 100
97 89 91 100 96 98 94 100 100 100 100 100 100 100 100 100 100 100 100 100 100 100 100 100 100 100 100 100 100 98 100 100 100 100 83 82 89 78 81 91 94 93 77 99
100 100 96 81 96 100 100 100 100 100 100 100 100 97 100 100 100 100 100 100 100 100 100 100 100 100 100 99 96 99 100 99 97 69 92 88 95 98 66 32 100 99 74 62
100 100 100 100 100 100 100 100 100 100 100 100 100 100 100 100 99 100 92 77 100 100 100 100 100 100 100 100 100 100 99 91 100 100 99 100 100 100 100 82 100 100 78 100
100 100 100 100 100 100 100 100 100 100 100 99 100 100 96 95 100 100 100 96 37 98 94 5 97 100 100 100 37 71 100 31 68 37 100 100 100 100 100 99 100 86 99 100
100 100 100 100 100 97 100 100 100 100 100 100 94 100 100 100 100 98 100 91 70 100 100 89 21 50 94 99 100 99 100 100 16 68 98 100 96 100 100 93 100 100 100 100
100 100 100 100 98 99 72 83 100 100 86 95 97 100 100 100 76 100 93 100 100 100 100 100 100 78 26 71 100 100 100 100 100 90 97 100 100 100 100 100 100 100 100 100

GFSNGP_prec_cloud_063.txt.gz
Cloud_Cover
100 100 100 100 100 100 100 100 100 100 100 100 100 100 100 100 100 95 100 100 100 94 67 38 7 83 90 80 99 60 43 100 100 100 88 3 0 14 100 100 100 84 28 1
100 100 100 100 100 100 100 100 100 100 100 100 100 100 100 100 100 100 14 96 100 100 100 96 68 8 35 30 100 76 94 76 100 100 100 23 18 42 18 80 100 86 23 14
100 100 100 100 100 100 100 100 100 100 100 100 100 100 100 90 93 99 78 88 100 100 100 100 53 82 8 5 5 14 58 97 100 100 84 76 9 7 26 89 92 89 42 58
100 100 100 100 100 100 100 100 100 100 100 100 100 100 100 100 92 98 70 100 100 100 100 100 100 90 96 56 18 35 20 25 100 100 93 90 26 6 54 13 44 26 30 9
100 100 100 100 100 100 100 100 100 100 100 100 100 100 100 100 100 98 89 100 100 100 100 100 100 100 63 5 6 10 43 34 100 100 100 91 94 97 100 71 74 8 90 100
100 100 100 100 100 100 100 100 100 99 98 100 59 100 100 100 78 98 100 100 98 100 100 100 25 37 8 5 60 36 56 93 100 100 99 62 54 100 92 64 16 100 92 100
100 100 100 100 100 100 100 90 100 100 100 100 100 100 100 41 31 100 100 100 100 100 100 100 100 100 95 84 52 97 100 100 100 100 100 100 100 94 89 91 97 100 100 100
88 77 100 100 100 100 70 100 100 100 100 100 100 100 100 100 100 100 100 100 100 100 100 100 100 100 100 100 100 100 99 98 100 100 100 100 100 100 100 100 100 100 100 100
18 78 100 100 100 100 100 100 100 100 100 100 100 100 100 100 100 100 100 100 100 100 100 100 100 100 100 100 100 100 100 100 100 100 100 100 100 100 100 100 100 100 100 100
78 88 63 100 100 100 100 100 100 100 100 100 100 100 100 100 100 100 100 100 100 100 100 100 100 100 100 100 100 100 100 100 100 100 100 100 100 100 100 100 100 100 100 100
89 100 98 100 100 100 100 100 100 100 100 100 100 100 100 100 100 100 100 100 100 100 100 100 100 100 100 100 94 84 83 98 100 100 100 100 100 100 100 100 100 100 100 100
100 100 100 100 100 100 100 100 100 100 100 100 100 100 100 100 100 99 96 95 100 100 96 88 89 90 89 83 88 100 84 94 92 89 100 100 100 100 100 100 100 100 100 100
100 100 100 100 100 100 100 100 98 58 66 92 100 100 100 100 100 100 100 99 99 100 99 100 94 96 93 93 80 95 77 84 95 99 100 100 100 100 100 100 100 100 100 100
100 100 100 100 100 100 100 100 100 66 21 98 100 100 100 100 100 98 97 97 100 100 100 100 100 99 100 100 87 88 91 78 86 100 100 100 100 100 100 100 100 100 100 100
52 100 100 100 100 100 100 100 100 100 99 95 98 98 99 100 100 100 100 98 100 97 100 99 100 100 94 92 95 92 96 100 94 100 100 100 100 100 100 100 100 100 100 100
95 100 100 100 100 100 100 100 100 100 100 100 100 93 99 85 99 100 100 100 100 100 100 100 95 100 100 78 78 81 92 100 100 100 100 100 100 100 100 100 100 100 100 100
100 100 100 100 100 100 100 99 98 100 92 95 100 99 91 100 100 100 100 100 98 100 100 100 100 95 86 86 93 89 100 100 100 100 100 100 100 100 100 100 100 100 100 100
100 100 100 100 100 100 100 100 100 100 100 97 82 82 71 85 100 100 94 91 92 96 95 69 55 73 59 53 54 59 83 100 100 100 100 100 100 100 100 100 100 100 100 100
100 100 100 100 100 100 100 99 100 100 100 94 84 94 70 76 90 96 88 81 77 77 57 58 75 74 68 92 100 98 100 100 100 96 100 100 100 100 100 100 100 100 100 100
100 91 98 98 95 80 100 83 74 88 93 90 51 14 94 100 61 56 81 99 69 51 73 29 37 79 93 90 100 100 100 100 100 100 100 100 100 100 100 100 100 100 100 100
97 96 100 100 100 91 65 65 12 94 94 78 71 60 60 76 99 100 97 99 73 51 94 70 69 88 100 100 100 100 100 100 100 100 100 100 100 100 100 100 100 100 100 100
65 95 87 91 100 100 60 39 11 32 66 81 100 94 100 100 95 70 44 58 79 80 89 90 98 100 100 100 100 100 100 100 100 100 100 100 100 100 93 94 90 75 99 98
100 98 92 98 99 100 78 91 100 95 96 100 100 100 100 98 44 20 72 72 84 93 86 68 69 65 57 63 52 47 74 95 93 71 61 68 78 53 25 82 90 56 42 93
100 100 100 100 100 100 100 100 100 100 100 99 90 100 100 81 94 72 100 100 100 99 91 65 72 61 54 83 99 61 50 56 84 99 100 83 88 94 57 69 6 10 94 86
100 100 100 100 100 100 100 100 97 100 59 31 29 14 35 90 100 91 94 88 78 86 50 57 84 91 75 89 51 97 100 78 19 32 100 100 80 100 85 26 88 100 100 91
96 97 87 79 74 79 99 100 100 100 100 100 100 100 98 99 68 83 100 100 94 99 100 62 6 5 5 66 11 16 96 71 7 5 75 75 38 92 83 56 61 74 88 90
100 100 100 100 100 100 100 100 100 83 67 100 73 99 96 97 90 99 93 85 81 73 86 100 96 43 69 39 54 5 5 34 5 5 28 100 97 86 76 77 5 10 70 60

GFSNGP_prec_cloud_066.txt.gz
Cloud_Cover
24 100 100 100 100 100 100 100 90 100 100 100 100 100 100 100 90 79 100 100 100 100 100 100 100 100 100 91 19 73 92 100 100 100 100 64 42 77 100 100 19 96 100 100
23 100 100 100 100 100 100 100 100 100 100 100 100 100 100 100 100 95 100 100 83 100 82 100 100 100 100 100 91 5 14 60 100 100 100 100 100 100 99 100 23 22 26 100
23 100 100 100 100 100 100 100 100 100 100 100 100 100 100 100 100 100 100 100 100 100 100 100 78 84 100 57 73 72 8 6 6 64 100 100 100 100 100 100 67 61 47 89
100 100 100 100 100 100 100 100 100 100 100 100 100 100 100 100 100 100 100 100 100 100 100 100 100 100 73 8 5 79 91 48 78 79 98 94 100 100 100 100 84 76 47 52
98 100 100 100 100 100 100 100 100 100 100 100 100 100 100 100 100 100 100 100 100 100 100 100 100 98 77 67 7 90 100 100 100 100 88 100 100 100 100 100 100 100 67 96
64 100 100 100 100 100 100 100 100 100 100 99 100 100 100 100 100 100 100 100 100 85 99 100 100 100 100 97 60 88 100 100 100 100 100 100 100 100 100 100 100 100 100 100
99 100 100 100 100 100 100 100 100 100 98 100 100 100 100 100 100 100 100 100 100 100 100 100 100 100 100 100 100 98 72 24 34 60 90 99 100 100 100 100 100 100 100 100
62 96 100 100 100 100 100 100 100 100 100 100 100 100 100 100 93 100 100 100 100 100 100 100 100 100 100 100 100 100 86 97 89 51 79 100 100 100 100 100 100 100 100 100
51 7 100 100 100 100 100 100 100 100 100 100 100 100 100 100 100 100 100 100 100 100 100 100 100 100 100 100 100 100 91 99 100 100 100 79 99 100 100 100 100 100 100 100
100 81 93 100 100 100 100 100 100 100 100 100 100 100 100 100 100 100 100 100 100 100 84 100 100 100 100 100 100 100 100 100 100 100 100 100 100 99 100 100 100 100 100 100
100 100 100 100 100 100 100 100 100 100 100 100 100 100 100 100 100 100 100 100 100 100 100 100 100 100 100 100 100 100 100 100 100 100 100 100 100 100 100 100 100 100 100 100
100 100 100 100 100 100 100 100 100 100 100 100 100 100 100 100 100 100 100 100 100 100 100 100 100 100 100 100 100 100 100 100 98 99 100 98 100 100 100 100 100 100 100 100
100 100 100 100 100 100 99 100 100 100 100 100 100 100 96 100 100 100 100 100 100 100 100 99 99 100 100 100 100 100 100 88 95 97 100 98 81 92 77 92 100 100 100 100
100 100 100 100 100 100 100 100 92 100 96 98 100 100 100 100 100 100 100 100 100 100 100 100 100 100 100 88 59 68 84 86 92 99 100 100 100 100 77 100 100 100 100 100
100 100 100 100 100 100 100 97 100 100 100 100 89 99 100 100 100 100 100 98 86 83 97 92 88 99 92 70 72 94 93 90 71 79 83 88 90 90 100 100 100 100 100 100
100 100 100 100 100 100 100 100 100 100 100 100 98 100 100 100 100 100 100 94 93 98 100 99 98 100 84 64 26 63 86 97 65 70 65 78 97 97 100 100 100 100 100 100
100 100 100 100 100 100 100 100 100 100 100 100 100 100 100 100 96 97 100 89 58 64 65 81 96 80 66 54 70 73 65 63 92 94 99 100 100 100 100 100 100 100 100 100
99 91 99 80 89 97 100 100 100 100 100 100 100 100 85 92 99 98 88 80 48 14 16 33 29 5 5 5 5 8 5 44 45 87 100 100 100 100 100 100 100 100 100 100
100 97 95 100 99 93 96 100 96 93 85 89 93 96 99 90 81 64 51 28 35 71 89 66 44 5 5 5 5 5 20 5 28 95 100 94 100 100 99 100 100 100 100 100
100 100 100 100 100 94 99 97 95 84 81 98 100 91 86 80 78 63 18 91 91 98 66 56 5 5 5 5 25 11 60 88 96 80 85 100 100 100 100 90 99 100 100 100
100 96 96 100 100 80 71 99 97 64 97 100 100 85 97 98 94 89 79 86 81 81 58 34 46 75 6 25 71 44 6 22 78 54 56 85 98 100 100 100 93 100 99 100
86 89 99 100 99 97 96 95 100 98 97 96 100 81 95 99 96 100 99 99 96 71 73 74 65 47 36 44 28 42 60 52 64 57 48 41 64 96 97 91 100 100 94 100
100 99 100 100 100 100 100 100 100 100 100 100 100 100 100 100 100 100 100 99 56 53 17 56 58 10 60 10 16 7 7 62 89 98 100 98 89 100 99 76 85 100 100 96
99 100 100 100 100 100 100 100 100 100 100 100 100 100 90 100 100 100 100 100 93 86 72 80 59 85 22 52 76 78 70 23 90 92 80 100 100 84 95 74 96 100 100 99
100 97 99 100 100 100 100 93 72 72 88 100 100 100 100 100 99 94 80 67 61 82 98 98 71 25 48 58 100 37 43 41 43 100 96 100 94 75 100 100 100 100 100 75
100 100 100 100 100 100 100 100 100 100 100 100 100 100 98 89 89 98 100 98 99 87 74 57 12 10 10 5 55 99 12 5 5 57 89 88 99 72 82 94 67 74 100 100
100 99 100 100 100 100 100 100 100 100 100 100 98 100 78 72 69 47 63 76 57 51 82 94 100 100 96 89 91 89 96 96 97 83 99 82 100 100 98 66 54 62 96 100

GFSNGP_prec_cloud_069.txt.gz
Cloud_Cover
100 100 46 100 100 100 100 100 100 100 100 100 100 100 100 99 99 100 100 100 100 100 100 100 100 100 100 100 100 100 100 100 100 100 100 100 100 100 99 98 80 53 54 100
100 97 65 82 77 100 100 100 100 100 100 100 100 100 100 100 100 100 100 100 100 100 100 100 100 100 100 100 100 100 100 100 100 100 100 100 100 100 100 100 100 100 100 100
100 100 14 64 28 100 100 100 100 100 100 100 100 100 100 100 100 100 100 100 100 100 100 100 100 100 100 100 100 100 99 85 38 61 100 100 100 100 100 100 100 100 100 100
92 31 5 5 94 90 100 100 100 100 100 100 100 100 100 100 100 100 100 100 100 100 100 100 100 100 100 100 100 100 100 100 96 100 80 48 52 85 100 100 100 100 100 100
84 28 5 5 86 100 99 100 100 100 100 100 100 100 100 100 100 100 100 100 100 100 100 100 100 100 100 100 100 100 100 100 100 100 100 100 100 100 100 100 100 100 100 100
96 97 5 7 5 100 100 100 100 100 100 100 100 100 100 100 100 100 100 100 100 100 100 100 100 97 72 100 98 99 93 61 96 100 100 100 100 100 100 100 100 100 100 100
100 92 5 73 5 100 100 100 100 100 100 100 100 100 100 100 100 100 100 100 100 100 100 100 100 100 100 100 100 23 8 60 100 100 100 100 100 100 100 100 100 100 100 100
100 100 86 100 12 96 100 100 100 100 100 100 100 100 100 100 100 100 100 100 100 100 100 100 100 100 100 95 73 53 38 17 15 53 93 94 100 68 100 100 100 100 100 100
100 96 84 100 80 62 100 100 100 100 100 100 100 100 100 100 100 100 100 100 100 100 100 100 100 100 100 77 62 66 75 99 93 92 100 100 100 100 100 78 100 100 100 100
100 100 100 100 99 68 100 100 100 100 100 100 100 100 100 100 100 100 100 100 100 100 100 100 100 100 100 100 100 100 100 97 98 100 100 100 100 100 100 99 77 76 94 100
100 100 100 100 100 92 100 100 100 100 100 100 100 100 100 98 100 100 100 100 100 100 100 100 100 100 100 100 100 100 100 100 90 75 98 99 100 100 100 100 100 95 92 87
100 100 100 100 100 100 100 100 100 100 100 100 100 100 100 100 100 100 100 100 100 100 100 100 100 100 100 100 98 92 98 98 100 100 100 86 97 100 100 100 100 100 100 100
100 100 100 100 100 100 100 100 100 100 100 100 100 100 100 100 100 100 100 100 100 100 100 100 100 100 100 100 87 100 100 100 99 100 100 99 100 100 100 100 100 100 100 100
100 100 100 100 100 96 100 100 100 100 100 100 82 89 100 100 100 100 100 100 100 100 99 100 100 99 100 93 98 73 81 80 100 100 100 100 100 100 100 100 100 100 100 100
100 100 100 100 100 100 100 100 100 100 100 100 100 100 100 100 100 100 100 100 86 76 98 100 100 100 100 100 100 100 100 100 99 100 100 100 90 98 84 83 99 96 99 60
100 100 100 100 100 100 100 100 72 100 100 100 100 100 100 100 100 100 100 99 100 100 100 100 100 100 100 100 100 100 100 98 67 63 57 60 62 80 87 96 100 100 100 100
100 100 100 100 100 100 100 100 100 100 100 100 100 100 100 100 100 100 91 99 100 100 100 100 99 97 97 99 90 95 86 48 46 88 100 100 100 100 100 100 100 100 100 98
100 100 99 82 96 100 100 100 100 100 100 99 93 91 7 94 100 93 99 85 67 5 94 82 10 5 18 5 18 6 57 96 98 100 100 97 100 99 100 100 100 100 92 40
100 100 100 98 56 94 100 100 99 100 100 100 73 94 73 74 94 67 58 85 37 43 99 78 14 5 20 77 14 51 20 35 74 97 86 62 91 100 100 100 100 98 75 73
100 100 100 100 95 82 100 91 60 81 67 67 77 95 84 100 66 34 64 100 100 100 94 34 18 42 55 34 41 5 9 35 50 59 67 80 81 92 89 86 95 100 100 97
100 100 91 90 94 98 100 100 99 93 80 56 59 69 84 79 76 84 77 78 97 90 66 79 82 89 94 98 59 32 8 10 16 46 63 87 47 46 70 79 61 61 97 97
86 88 90 88 84 81 81 87 94 90 86 85 96 100 91 57 27 27 64 60 98 66 22 37 47 62 67 64 24 17 21 22 32 5 31 36 62 94 100 100 100 99 98 100
87 86 89 85 85 88 89 91 88 91 85 89 93 79 67 47 38 45 72 84 70 75 73 64 88 96 99 77 8 25 43 89 100 100 100 97 100 100 72 100 100 100 100 91
100 100 100 100 100 100 100 100 94 96 100 100 96 68 67 64 50 49 21 37 59 73 98 100 98 95 76 59 74 85 95 100 100 100 100 100 100 100 100 100 100 100 100 100
100 100 100 100 100 100 100 100 100 100 100 100 100 100 100 100 100 100 100 100 100 98 99 100 99 93 74 100 64 43 31 25 93 100 100 100 98 100 100 100 100 100 100 87
100 100 100 100 100 100 100 100 100 100 100 100 100 100 100 97 96 95 97 95 63 69 8 14 23 36 64 43 93 99 36 5 38 96 100 100 100 88 100 97 93 93 100 100
100 100 100 100 100 100 100 100 100 100 100 100 96 88 83 77 80 88 98 100 99 80 99 88 92 73 73 89 63 68 93 98 84 65 99 100 100 100 100 96 65 69 94 100

GFSNGP_prec_cloud_072.txt.gz
Cloud_Cover
100 100 56 100 100 100 100 100 100 100 100 100 100 100 100 100 100 100 100 100 100 100 100 100 100 100 100 100 100 100 100 100 100 100 100 100 100 100 100 100 100 100 97 68
100 46 88 100 100 98 100 100 85 100 100 100 100 100 100 100 100 100 100 100 100 100 100 100 100 100 100 100 100 100 100 100 100 100 100 100 100 100 100 100 100 100 100 100
100 57 66 100 100 100 86 100 100 98 100 100 100 100 100 100 100 100 100 100 100 100 100 100 100 100 100 100 100 100 96 100 100 100 100 100 100 100 100 100 100 100 100 100
100 100 49 100 100 100 100 100 100 100 100 100 100 100 100 100 100 100 100 100 100 100 100 100 100 100 100 100 100 100 100 100 100 100 100 100 100 88 89 77 100 100 100 100
100 100 26 18 100 100 100 100 100 100 100 100 100 100 100 100 100 100 100 100 100 100 100 100 100 100 100 100 100 100 100 100 100 100 94 92 65 81 100 100 100 100 100 100
100 100 100 15 5 81 100 98 100 100 99 100 100 100 100 100 100 100 100 100 100 100 100 100 100 100 100 100 100 100 100 100 100 100 100 100 100 100 100 100 100 100 100 100
100 100 38 100 5 5 10 49 100 100 91 100 100 100 100 100 100 100 100 100 100 100 100 100 100 100 100 100 100 100 100 100 100 100 100 100 100 100 100 100 100 100 100 100
100 100 88 100 5 5 63 100 72 100 100 100 100 100 100 100 100 100 100 100 99 100 100 100 100 100 100 100 100 100 100 100 100 100 100 100 100 100 100 100 100 100 100 100
100 100 99 100 99 100 100 100 100 100 100 100 100 100 100 100 100 100 100 100 100 100 100 100 100 100 100 100 100 100 100 100 100 100 100 100 100 100 100 100 100 100 100 100
100 100 100 100 100 100 100 100 100 100 100 100 100 100 100 100 100 100 100 100 100 100 100 100 100 100 100 100 100 100 100 85 93 100 100 100 100 100 100 100 100 100 100 100
100 100 100 100 100 100 100 100 100 100 100 100 100 100 100 100 100 100 100 100 100 100 100 100 100 100 100 100 100 100 100 100 100 90 99 100 100 100 100 100 100 100 100 100
100 100 100 100 100 100 100 100 100 100 100 100 100 100 100 100 100 100 100 100 100 100 100 100 100 100 100 100 99 100 91 94 95 98 96 100 100 100 100 100 100 100 100 86
100 100 100 100 100 100 100 100 100 100 100 100 100 100 100 100 100 100 100 100 100 100 100 100 100 100 100 96 72 95 100 98 85 88 99 99 99 100 100 100 100 100 100 100
100 100 100 100 96 100 99 100 99 97 99 100 100 100 100 100 100 100 100 100 100 100 100 100 99 100 100 86 100 100 94 100 100 100 100 100 100 70 84 88 99 100 100 100
100 100 100 100 100 100 100 90 64 100 100 100 100 100 100 100 100 100 100 100 95 73 93 84 80 99 100 100 100 96 92 86 81 82 100 100 85 74 49 64 84 96 48 32
100 100 100 100 100 100 100 100 85 100 100 100 100 100 100 100 100 100 100 100 97 98 100 92 89 98 67 36 23 57 66 35 63 74 68 44 34 58 60 70 90 100 100 100
100 100 100 100 100 100 100 100 100 100 100 100 100 100 100 100 100 100 100 100 100 100 100 100 100 69 51 52 56 84 85 67 54 60 89 90 96 100 98 90 100 100 100 90
84 94 100 100 100 100 100 100 100 98 100 99 100 87 98 98 88 77 83 89 95 100 100 100 100 100 100 100 100 99 93 94 98 90 74 83 84 75 83 69 69 77 88 20
99 98 93 100 95 100 99 100 100 94 96 100 95 95 81 64 72 79 78 68 80 75 100 71 18 11 28 60 16 5 6 32 26 63 42 47 53 74 71 65 63 30 21 24
100 100 71 85 70 76 100 97 84 81 90 89 61 62 59 69 65 91 86 100 100 100 72 88 51 32 5 8 41 5 58 45 24 60 70 30 28 86 76 72 76 92 68 38
90 86 86 87 98 83 93 85 96 96 91 73 64 91 93 98 100 100 100 100 100 73 42 14 5 5 10 53 60 38 5 5 7 17 26 59 81 84 100 98 88 100 100 90
95 96 100 100 100 100 100 100 100 100 100 100 100 100 100 100 100 100 100 99 100 100 100 89 54 40 24 29 5 8 20 9 38 5 40 58 90 100 100 100 100 100 100 100
84 93 97 99 100 99 80 74 77 84 86 90 100 100 100 100 100 100 100 100 100 100 100 100 82 42 7 12 22 31 72 93 97 90 98 100 100 99 87 100 100 100 100 97
100 100 100 100 100 100 100 100 99 91 92 99 100 100 100 100 100 100 100 100 100 99 99 98 100 95 58 52 58 88 100 100 100 100 100 100 100 100 100 100 100 100 100 100
79 69 97 100 100 100 100 100 100 100 100 100 100 100 100 100 100 100 100 100 100 100 99 75 76 61 100 100 63 44 10 68 99 100 100 100 98 100 100 100 100 100 100 100
97 87 86 100 100 100 100 100 100 100 100 100 100 100 100 100 100 100 100 100 96 97 76 41 39 64 75 62 93 100 88 45 64 100 100 100 100 100 100 100 100 92 100 100
81 71 100 100 100 100 100 100 100 100 100 100 100 100 80 73 98 93 97 89 86 98 100 100 100 98 100 100 100 95 99 100 100 98 100 100 100 100 100 100 100 80 78 100

GFSNGP_prec_cloud_075.txt.gz
Cloud_Cover
100 100 100 100 100 66 100 100 97 94 100 100 100 100 100 100 100 100 100 100 100 100 100 100 100 100 100 100 100 100 100 100 100 100 100 100 100 100 98 89 51 97 48 23
100 100 30 99 99 14 100 100 100 100 100 100 100 100 100 100 100 100 100 100 100 100 100 100 100 100 100 100 100 100 100 100 100 100 100 100 100 100 100 100 100 100 100 100
100 94 29 41 100 99 100 100 100 100 100 100 100 100 100 100 100 100 100 100 100 100 100 100 100 100 100 100 100 100 100 100 100 100 100 100 100 100 100 100 100 100 100 100
99 99 18 78 30 100 100 100 100 100 100 100 100 100 100 100 100 100 100 100 100 100 100 100 100 100 100 100 100 100 100 100 100 100 99 100 100 100 100 100 100 100 100 100
1 5 0 100 76 100 100 100 100 99 100 100 100 100 100 100 100 100 100 100 100 100 100 100 100 100 100 100 100 100 95 98 100 100 100 100 100 100 100 100 100 100 100 100
76 5 5 89 100 100 100 100 100 100 100 100 100 100 100 100 100 100 100 100 100 100 100 100 100 100 100 100 100 100 100 100 100 100 100 100 100 100 100 100 100 100 100 100
71 45 5 99 82 100 100 100 100 100 100 100 100 100 100 100 100 100 100 100 100 100 100 100 100 100 100 100 100 100 100 100 100 100 100 100 100 100 100 100 100 100 100 100
96 95 35 100 39 100 100 100 100 100 100 100 100 100 100 100 100 100 100 100 100 100 100 100 100 100 100 100 100 100 100 100 100 100 100 100 100 100 100 100 100 100 100 100
7 10 62 100 91 100 100 100 100 100 100 100 100 100 100 100 100 100 100 100 100 100 100 100 100 100 100 100 100 100 100 100 100 100 100 100 100 100 100 100 100 100 100 100
100 100 100 100 100 100 100 100 100 100 100 100 100 100 100 100 100 100 100 100 100 100 100 100 100 100 100 100 100 100 100 100 100 100 100 100 100 100 100 100 100 100 100 100
100 100 100 100 100 100 100 100 100 100 100 100 100 100 100 100 100 100 100 100 100 100 100 100 100 100 100 100 100 100 100 100 100 100 100 100 100 100 100 100 100 100 100 100
100 100 100 100 100 100 100 100 100 100 100 100 100 100 100 100 100 100 100 100 100 100 100 100 100 100 100 100 100 100 100 100 100 100 100 98 99 100 100 100 100 100 100 100
100 100 100 100 100 100 100 100 99 100 100 100 100 100 100 100 100 100 100 100 100 100 100 100 100 100 100 100 100 100 100 100 100 100 100 100 100 100 100 97 100 100 100 100
100 100 100 100 100 100 100 99 100 100 100 100 98 96 100 100 100 100 100 100 100 100 100 100 100 100 100 100 100 100 100 100 100 100 99 100 100 100 100 100 100 100 100 100
100 100 100 100 100 100 92 80 95 100 96 100 99 100 100 100 100 100 100 100 100 100 100 100 100 100 100 100 100 100 100 100 100 100 100 100 98 98 100 98 100 100 98 46
100 97 100 100 100 100 94 99 97 100 100 100 100 100 100 100 100 100 100 100 100 100 100 100 100 100 100 98 78 89 88 71 36 81 81 98 100 100 100 74 6 12 62 91
100 100 99 100 100 100 99 100 100 100 100 100 100 100 100 100 100 100 100 100 100 100 100 100 100 100 100 100 86 100 100 95 50 96 97 95 87 23 7 18 5 19 47 80
88 98 99 100 99 100 100 100 100 98 100 99 100 97 96 98 100 100 100 100 100 100 100 100 100 100 100 100 92 93 98 96 82 69 34 62 5 5 5 5 5 5 60 17
96 100 100 99 95 100 100 100 100 100 100 100 92 99 98 100 100 100 99 98 84 74 100 100 100 100 100 100 99 58 55 72 49 60 24 20 57 18 57 59 63 70 77 72
100 99 100 100 96 90 100 100 100 100 100 99 100 100 100 100 100 99 98 100 100 100 100 100 99 97 96 75 40 26 74 96 61 93 98 84 97 100 92 48 90 100 100 100
100 100 100 100 100 100 100 96 89 88 92 92 90 79 91 98 100 100 100 100 100 96 86 85 64 58 56 46 37 67 73 78 87 95 97 100 100 100 100 100 100 100 100 100
91 82 85 80 87 100 99 99 96 94 93 88 90 92 96 97 99 100 100 100 100 100 97 84 75 81 85 91 78 63 48 60 75 88 87 91 96 100 98 100 100 100 100 100
95 86 86 92 88 95 99 99 99 93 82 82 86 93 92 98 98 95 94 99 100 95 93 93 96 94 86 58 69 88 95 93 93 96 94 82 74 65 72 77 98 100 100 100
88 98 100 99 100 100 100 100 100 100 100 100 99 99 100 100 100 100 100 100 100 100 100 100 100 99 84 84 87 86 68 89 100 100 100 87 89 80 88 76 86 98 100 92
70 65 96 99 96 98 100 100 100 100 100 100 100 100 100 100 100 100 100 100 100 97 91 91 87 88 90 85 78 60 29 17 52 94 99 100 100 100 100 96 77 89 66 65
78 43 86 100 100 62 11 41 83 99 100 100 100 100 100 100 100 99 98 98 97 89 97 98 87 52 52 75 81 87 100 100 99 99 88 92 96 97 100 100 100 99 83 58
89 66 42 66 35 78 94 99 100 100 100 100 100 64 29 40 78 69 74 92 88 75 77 95 100 96 100 100 100 88 96 100 93 100 100 100 100 100 100 100 100 100 100 98

GFSNGP_prec_cloud_078.txt.gz
Cloud_Cover
75 72 100 100 100 100 100 100 100 91 100 69 69 100 100 100 100 100 100 100 100 100 100 100 100 100 100 100 100 100 100 100 100 100 100 100 100 100 100 99 98 100 100 100
97 88 100 100 100 100 100 100 100 98 100 95 62 100 100 100 100 100 100 100 100 100 100 100 100 100 100 100 100 100 100 100 100 100 100 100 100 100 100 100 100 100 100 100
100 100 100 100 95 97 100 100 100 92 100 100 100 100 100 100 100 100 100 100 100 100 100 100 100 100 100 100 100 100 100 100 100 100 100 100 100 100 100 100 100 100 100 100
100 100 76 39 100 49 93 100 100 95 100 100 100 100 100 100 100 100 100 100 100 100 100 100 100 100 100 100 100 100 100 100 100 100 100 100 100 100 100 100 100 100 100 100
100 95 61 6 87 100 83 100 88 100 85 100 100 100 100 100 100 100 100 100 100 100 100 100 100 100 100 100 100 100 100 100 100 100 100 100 100 100 100 100 100 100 100 100
100 70 91 74 35 100 50 38 76 98 100 100 100 100 100 100 100 100 100 100 100 100 100 100 100 100 100 100 100 100 100 100 100 100 100 100 100 100 100 100 100 100 100 99
99 98 89 5 78 58 100 56 57 89 100 100 100 100 100 100 100 100 100 100 100 100 100 100 100 100 100 100 100 100 100 100 100 100 100 100 100 100 100 100 100 100 100 100
100 96 77 6 21 17 82 99 94 99 100 100 100 100 100 100 100 100 100 100 100 100 100 100 100 100 100 100 100 100 100 100 100 100 100 100 100 100 100 100 100 100 100 100
98 100 100 100 96 100 100 100 100 100 100 100 100 100 100 100 100 100 100 100 100 100 100 100 100 100 100 100 100 100 100 100 100 100 100 100 100 100 100 100 100 100 100 100
88 100 100 100 100 100 100 100 100 100 100 100 100 100 100 100 100 100 100 100 100 100 100 100 100 100 100 100 100 100 100 100 100 100 100 100 100 100 100 100 100 100 100 100
100 100 100 100 100 100 100 100 100 100 100 100 100 100 100 100 100 100 100 100 100 100 100 100 100 100 100 100 100 100 100 100 100 100 100 100 100 100 100 100 100 100 100 100
100 100 100 100 100 100 100 100 100 100 100 100 100 100 100 100 100 100 100 100 100 100 100 100 100 100 100 100 100 100 100 100 100 100 100 100 100 100 100 100 100 100 100 100
100 100 100 100 100 100 100 100 100 100 100 100 100 100 100 100 100 100 100 100 100 100 100 100 100 100 100 100 100 100 100 100 100 100 100 100 100 100 100 100 100 100 100 100
100 100 100 100 100 100 100 100 100 100 100 100 100 100 100 100 100 100 100 100 100 100 100 100 100 100 98 99 100 98 87 93 99 100 100 100 100 100 100 100 100 100 100 100
100 100 100 100 100 100 100 100 100 100 100 100 100 100 100 100 100 100 100 100 100 100 100 100 100 100 100 100 100 98 100 100 99 98 100 100 99 100 100 100 100 100 100 100
100 100 100 100 100 100 99 86 96 100 100 100 100 100 100 100 100 100 100 100 100 100 100 100 100 100 100 100 100 100 100 100 100 100 100 100 99 69 42 70 36 9 52 59
100 100 100 100 100 100 96 100 98 100 100 100 100 100 100 100 100 100 100 100 100 100 100 100 100 100 100 100 100 100 100 100 100 100 100 100 100 99 72 88 84 41 84 43
93 89 100 98 98 99 98 99 100 100 100 99 100 100 100 100 100 100 100 98 90 94 100 100 100 100 100 100 100 100 100 100 97 96 100 80 54 44 9 11 5 7 29 7
97 97 98 100 99 98 100 100 100 100 100 100 100 100 100 99 98 97 89 67 68 41 95 100 98 97 79 72 90 99 100 100 100 94 60 37 82 61 96 98 100 100 89 90
100 100 100 100 100 100 100 100 100 100 100 100 81 55 54 68 81 86 87 95 100 100 100 83 68 59 48 46 7 79 100 100 100 100 100 100 100 100 94 57 97 100 100 100
100 100 100 100 100 100 100 100 100 100 90 90 85 84 85 89 95 98 94 91 99 98 84 70 55 24 7 7 17 100 100 100 100 100 100 100 100 100 100 100 100 100 100 100
100 100 100 100 100 100 100 100 89 77 78 77 82 83 83 84 86 80 97 93 97 48 70 86 74 28 23 24 96 100 100 100 100 100 100 100 100 100 100 100 100 100 100 100
100 100 100 100 100 99 78 75 69 69 71 69 69 92 85 88 90 86 87 90 100 58 97 100 48 5 5 100 100 100 100 100 100 100 100 100 100 100 100 100 100 100 100 100
100 100 100 95 92 61 68 78 55 49 62 28 6 68 93 100 100 91 91 96 97 96 92 81 62 30 45 100 100 100 100 100 100 100 100 73 100 100 100 100 100 100 100 93
99 84 97 100 100 100 100 100 100 100 100 100 100 100 72 54 99 100 100 98 53 87 100 43 32 16 98 100 100 100 100 100 100 100 100 100 100 100 100 100 100 100 100 100
100 100 100 100 98 100 100 100 100 100 100 100 100 100 100 99 100 97 100 64 100 61 100 100 100 100 100 100 100 100 100 100 100 100 100 100 100 100 100 100 100 100 100 100
100 86 97 99 100 100 94 94 100 100 100 100 100 100 100 100 94 83 49 100 100 100 100 100 100 100 100 100 100 100 100 100 100 100 100 100 100 100 100 100 100 100 100 100

GFSNGP_prec_cloud_084.txt.gz
Cloud_Cover
99 40 100 86 93 94 100 100 100 100 100 100 100 100 100 100 100 100 100 100 100 100 100 100 100 100 100 100 100 100 100 100 100 100 100 100 100 100 100 100 100 100 100 100
5 24 85 100 100 80 99 100 100 100 100 100 100 100 100 100 100 100 100 100 100 100 100 100 100 100 100 100 100 100 100 100 100 100 100 100 100 100 100 100 100 100 100 100
4 77 84 20 3 72 100 100 100 96 92 100 100 100 100 100 100 100 100 100 100 100 100 100 100 100 100 100 100 100 100 100 100 100 100 100 100 100 100 100 100 100 100 100
92 100 30 2 10 9 100 100 81 100 94 100 100 100 100 100 100 100 100 100 100 100 100 100 100 100 100 100 100 100 100 100 100 100 100 100 100 100 100 100 100 100 100 100
100 100 39 100 100 34 100 100 99 100 100 100 100 100 100 100 100 100 100 100 100 100 100 100 100 100 100 100 100 100 100 100 100 100 100 100 100 100 100 100 100 100 100 100
100 100 100 100 100 20 36 96 100 89 100 100 100 100 100 100 100 100 100 100 100 100 100 100 100 100 100 100 100 100 100 100 100 100 100 100 100 100 100 100 100 100 100 100
100 100 100 100 87 5 99 99 100 100 100 100 100 100 100 100 100 100 100 100 100 100 100 100 100 100 100 100 100 100 100 100 100 100 100 100 100 100 100 100 100 100 100 100
100 100 100 100 100 95 100 100 100 100 98 100 100 100 100 100 100 100 100 100 100 100 100 100 100 100 100 100 100 100 100 100 100 100 100 100 100 100 100 100 100 100 100 100
100 100 100 100 100 100 100 100 100 99 100 100 100 100 100 100 100 100 100 100 100 100 100 100 100 100 100 100 100 100 100 100 100 100 100 100 100 100 100 100 100 100 100 100
100 100 100 100 100 100 100 100 100 100 100 100 100 100 100 100 100 100 100 100 100 100 100 100 100 100 100 100 100 100 100 100 100 100 100 100 100 100 100 100 100 100 100 100
100 100 100 100 100 100 100 100 100 100 100 100 100 100 100 100 100 100 100 100 100 100 100 100 100 100 100 100 100 100 100 100 100 100 100 100 100 100 100 100 100 100 100 100
100 100 100 100 100 88 88 100 100 100 100 100 100 99 100 100 100 100 100 100 100 100 100 100 100 100 100 100 100 100 100 100 100 100 100 100 100 100 100 100 100 100 100 100
100 100 100 99 100 100 99 88 98 99 98 100 100 100 100 100 100 100 100 100 100 100 100 100 100 100 100 100 100 100 100 100 100 100 100 100 100 100 100 100 100 100 100 100
100 100 100 100 100 100 96 92 100 100 100 100 100 100 100 100 100 100 100 100 100 100 100 100 100 100 100 100 100 100 100 100 100 100 100 100 100 100 100 100 100 87 100 94
100 100 100 100 100 100 76 97 100 100 100 100 100 100 100 100 100 100 100 100 100 100 100 100 100 100 100 100 100 100 100 100 100 100 100 100 100 100 100 100 100 100 98 69
100 100 98 100 100 100 100 100 100 100 100 100 100 100 100 100 100 100 100 100 100 100 100 100 100 100 100 100 100 97 95 92 94 100 100 100 100 100 100 100 99 80 58 50
100 100 100 100 100 100 100 100 100 100 100 100 100 100 100 100 100 100 100 100 100 100 100 100 100 100 99 68 97 81 99 50 100 99 89 98 100 100 100 100 87 73 59 56
99 96 100 100 100 100 98 98 99 99 98 98 93 96 86 91 90 94 80 78 81 91 100 100 100 100 84 78 54 97 84 59 16 53 50 38 58 16 23 26 90 98 62 9
96 100 99 100 97 99 99 100 100 96 94 79 71 69 67 74 77 79 91 100 100 78 42 56 77 90 100 72 50 86 71 96 96 57 53 89 88 93 97 100 89 86 100 88
99 99 100 100 97 94 98 100 100 100 91 19 5 5 5 12 33 36 22 13 16 57 42 49 64 62 11 27 56 78 74 99 64 81 66 93 90 64 14 20 28 100 100 90
100 100 99 100 87 86 100 100 92 73 17 5 5 5 5 5 5 5 100 100 52 47 61 99 68 97 83 68 90 77 73 98 82 83 95 100 96 100 100 100 100 99 100 100
100 100 100 100 100 100 99 66 25 5 5 5 5 5 55 26 18 11 5 26 58 4 93 59 5 24 40 87 98 98 94 93 95 100 100 100 100 100 100 100 97 100 100 100
100 100 100 100 96 83 21 5 5 5 30 5 34 35 3 6 9 34 100 62 95 1 100 28 4 5 40 72 96 100 100 99 100 94 99 99 100 100 100 98 72 19 100 100
100 100 97 60 12 58 97 93 93 57 5 11 5 5 23 80 98 96 34 17 7 4 14 4 4 4 5 100 100 100 100 100 100 98 100 78 94 100 99 100 89 100 100 98
73 38 14 30 94 98 23 39 38 27 10 78 40 18 5 50 40 98 71 80 28 5 92 94 10 3 5 100 100 100 100 98 97 8 5 54 100 100 100 100 100 100 91 43
100 100 98 74 60 80 98 95 70 99 100 100 88 93 69 12 17 7 88 18 13 54 5 100 96 49 14 52 100 100 66 100 100 100 100 100 57 69 100 100 100 100 99 100
82 80 72 90 70 27 14 22 11 96 100 100 72 99 87 81 90 60 15 24 78 99 94 94 100 100 74 35 12 16 100 100 100 94 99 57 18 21 97 100 100 100 100 97

GFSNGP_prec_cloud_087.txt.gz
Cloud_Cover
5 1 60 100 76 100 96 100 100 100 100 100 100 100 100 100 100 100 100 100 100 100 100 100 100 100 100 100 100 100 100 100 100 100 100 100 100 100 100 100 100 100 100 100
5 0 4 97 5 41 100 97 100 100 100 100 100 100 100 100 100 100 100 100 100 100 100 100 100 100 100 100 100 100 100 100 100 100 100 100 100 100 100 100 100 100 100 100
84 100 87 57 95 100 100 100 50 100 100 100 100 100 100 100 100 100 100 100 100 100 100 100 100 100 100 100 100 100 100 100 100 100 100 100 100 100 100 100 100 100 100 100
89 100 55 85 100 100 100 100 100 100 100 100 100 100 100 100 100 100 100 100 100 100 100 100 100 100 100 100 100 100 100 100 100 100 100 100 100 100 100 100 100 100 100 100
64 100 3 88 100 100 100 100 100 100 100 100 100 100 100 100 100 100 100 100 100 100 100 100 100 100 100 100 100 100 100 100 100 100 100 100 100 100 100 100 100 100 100 100
100 100 100 100 100 100 100 100 100 100 100 100 100 100 100 100 100 100 100 100 100 100 100 100 100 100 100 100 100 100 100 100 100 100 100 100 100 100 100 100 100 100 100 100
100 100 100 100 100 99 98 100 100 100 100 100 100 100 100 100 100 100 100 100 100 100 100 100 100 100 100 100 100 100 100 100 100 100 100 100 100 100 100 100 100 100 100 100
100 100 100 100 100 100 100 100 100 100 99 100 100 100 100 100 100 100 100 100 100 100 100 100 100 100 100 100 100 100 100 100 100 100 100 100 100 100 100 100 100 100 100 100
100 100 100 100 100 100 100 100 100 100 100 100 100 88 100 100 100 100 100 100 97 100 100 100 100 100 100 100 100 100 100 100 100 100 100 100 100 100 100 100 100 100 100 100
100 100 100 100 100 100 100 100 100 100 100 100 100 100 98 100 100 100 100 100 100 100 91 100 100 100 100 100 100 100 100 100 100 100 100 100 100 100 100 100 100 100 100 100
100 100 100 100 100 100 100 100 100 100 100 100 99 96 96 100 100 100 100 100 100 100 100 100 100 100 100 100 100 100 100 100 100 100 100 100 100 100 100 100 100 100 100 100
100 100 100 100 100 100 100 100 99 97 86 86 60 76 62 100 100 100 100 100 100 100 100 100 100 100 100 100 100 100 100 100 100 100 100 100 100 100 100 100 100 100 100 100
100 100 100 100 100 100 99 88 77 100 59 64 87 86 81 100 100 100 100 100 100 100 100 100 100 100 100 100 100 100 100 100 100 100 100 100 100 100 100 100 100 100 100 100
100 100 100 100 97 86 71 94 95 76 98 95 94 97 100 100 94 100 100 100 100 100 100 100 100 100 100 100 100 100 100 100 100 100 100 100 100 100 100 100 100 100 100 100
100 100 100 100 98 98 100 81 48 69 90 75 100 100 100 100 100 100 100 100 100 100 100 100 100 100 100 100 100 100 100 100 100 100 100 100 100 100 100 100 100 100 100 100
100 69 95 91 66 60 99 100 43 78 71 93 100 100 100 100 100 100 100 100 100 100 100 100 100 100 100 100 100 100 100 100 100 100 100 100 100 100 100 100 100 100 100 100
100 97 100 100 100 100 100 96 100 100 100 100 100 100 100 100 100 100 100 100 100 100 100 100 100 100 100 100 100 100 100 99 100 100 100 100 100 100 100 100 100 100 100 93
100 100 100 100 100 100 91 94 79 39 91 92 48 46 60 68 85 88 100 100 100 100 100 100 100 100 100 100 94 89 97 98 90 64 93 100 100 100 100 100 100 100 100 100
62 40 70 82 69 70 71 95 98 92 42 5 5 30 50 50 26 73 99 100 60 65 82 86 78 65 62 83 95 90 66 100 73 56 61 48 74 98 90 98 100 97 59 100
77 56 65 62 17 46 95 57 7 32 32 5 5 5 44 28 49 29 5 7 11 54 86 69 81 66 71 85 97 100 99 100 100 96 100 100 80 42 31 63 100 95 65 72
75 43 52 48 62 65 99 92 79 73 58 43 23 26 5 5 5 97 92 43 5 7 48 5 5 5 5 50 39 56 61 64 97 98 100 94 100 100 100 100 100 100 100 100
99 100 100 100 100 88 60 48 8 5 5 5 6 78 83 71 73 87 61 23 5 5 36 5 5 19 38 63 10 13 6 67 78 93 68 89 100 100 99 81 73 79 88 91
100 100 95 62 60 58 43 26 23 5 5 6 16 5 44 63 86 64 47 5 5 36 5 5 5 5 5 63 41 70 65 37 37 67 67 78 62 63 93 87 99 98 92 52
89 74 92 98 99 100 99 61 64 40 21 41 61 30 6 9 93 87 28 14 5 7 7 56 5 5 5 97 98 97 94 100 100 100 95 81 93 84 87 87 35 49 20 6
100 100 100 73 87 95 79 49 11 16 56 6 15 25 16 5 10 62 15 5 5 5 51 21 40 5 5 38 100 89 81 74 96 72 20 5 98 100 100 100 100 100 98 66
100 100 93 71 70 88 95 99 100 99 100 100 100 100 94 100 8 5 5 5 28 5 20 10 79 92 92 11 52 30 70 79 100 99 79 63 11 48 88 100 100 98 93 94
95 78 61 68 50 5 6 11 23 57 78 83 99 100 100 100 63 13 14 47 20 83 40 72 93 94 59 73 54 6 5 61 100 100 100 93 93 57 7 76 93 100 98 100

GFSNGP_prec_cloud_090.txt.gz
Cloud_Cover
1 0 0 0 0 69 100 60 100 67 100 100 100 100 100 100 100 100 100 100 100 100 100 100 100 100 100 100 100 100 100 100 100 100 100 100 100 100 100 100 100 100 100 100
0 0 0 5 0 14 97 52 84 100 100 100 100 100 100 100 100 99 100 100 100 100 100 100 100 100 100 100 100 100 100 100 100 100 100 100 100 100 100 100 100 100 100 100
0 2 4 5 0 0 90 99 100 99 100 100 100 100 100 100 100 100 100 100 100 100 100 100 100 100 100 100 100 100 100 100 100 100 100 100 100 100 100 100 100 100 100 100
16 99 92 40 99 39 97 100 100 100 100 100 100 100 100 100 100 100 100 100 100 100 100 100 100 100 100 100 100 100 100 100 100 100 100 100 100 100 100 100 100 100 100 100
96 97 100 99 100 100 100 100 100 100 100 100 100 100 100 100 100 100 100 100 100 100 100 100 100 100 100 100 100 100 100 100 100 100 100 100 100 100 100 100 100 100 100 100
100 100 100 100 100 100 100 100 100 100 100 100 100 100 100 100 100 100 100 100 100 100 100 100 100 100 100 100 100 100 100 100 100 100 100 100 100 100 100 100 100 100 100 100
100 100 100 100 100 100 100 100 100 100 100 100 100 100 96 100 100 100 100 100 100 100 100 100 100 100 100 100 100 100 100 100 100 100 100 100 100 100 100 100 100 100 100 100
100 100 100 100 100 100 100 100 100 100 100 100 100 100 100 100 100 100 97 82 100 100 100 100 100 100 100 100 100 100 100 100 100 100 100 100 100 100 100 100 100 100 100 100
100 100 100 100 100 100 100 100 100 100 100 100 100 100 100 100 89 100 100 85 96 100 100 100 100 100 100 100 100 100 100 100 100 100 100 100 100 100 100 100 100 100 100 100
100 100 100 100 100 100 100 100 100 100 99 98 94 100 95 92 97 89 100 100 90 100 100 100 100 100 100 97 99 100 100 100 100 100 100 100 100 100 100 100 100 100 100 100
100 100 100 100 100 100 100 100 100 100 98 77 84 97 91 96 94 100 96 100 100 100 100 100 100 100 100 100 100 100 100 100 100 100 100 100 100 100 100 100 100 100 100 100
100 100 100 100 100 100 100 100 100 100 97 98 69 80 98 100 99 87 93 100 100 100 100 100 100 100 100 100 100 100 100 100 100 100 100 100 100 100 100 100 100 100 100 100
100 100 100 100 100 100 100 100 98 90 88 92 86 56 83 98 100 99 87 99 100 100 100 100 100 100 100 100 100 100 100 100 100 100 100 100 100 100 100 100 100 100 100 100
100 100 100 100 100 100 100 100 100 79 86 47 72 78 82 100 99 91 98 99 100 100 100 99 100 100 100 100 100 100 100 100 100 100 100 100 100 100 100 100 100 100 100 100
100 100 100 100 100 100 98 45 7 90 83 93 80 59 84 89 100 100 100 100 100 100 100 100 100 100 100 100 100 100 100 100 100 100 100 100 100 100 100 100 100 100 100 100
100 100 100 100 100 100 90 75 46 94 49 61 72 89 99 100 99 99 65 100 100 100 100 100 100 100 100 100 100 100 100 100 100 100 100 100 100 100 100 100 100 100 100 100
100 100 100 100 100 99 80 79 79 98 100 100 82 71 57 5 11 43 95 100 97 99 100 100 100 100 100 100 100 100 100 100 100 100 100 100 100 100 100 100 100 100 100 100
100 100 100 96 99 100 96 81 75 75 95 83 56 5 5 16 94 81 53 48 5 53 44 7 47 88 100 100 100 100 100 100 100 100 100 100 92 92 96 100 100 100 100 100
100 100 100 100 94 76 93 98 94 32 13 20 5 52 61 72 59 70 90 70 5 5 5 5 5 6 28 55 67 97 86 85 97 98 76 90 99 100 100 95 100 100 100 100
89 61 8 67 16 15 74 62 7 13 39 10 26 7 58 60 90 5 5 5 5 5 5 5 5 5 5 29 59 74 92 70 43 80 100 100 87 96 96 90 99 93 69 61
92 87 46 64 99 61 100 100 32 53 59 5 8 44 7 17 49 78 58 38 5 5 5 5 3 5 62 60 17 36 74 94 95 99 94 82 84 96 75 84 94 96 88 68
64 65 99 100 100 100 90 45 7 15 10 59 52 46 22 5 5 10 41 5 8 5 5 5 5 4 85 75 5 40 23 76 100 100 100 100 100 100 100 100 99 95 86 88
100 99 92 96 93 95 90 70 54 70 18 46 65 54 35 24 22 47 5 5 9 18 5 5 5 5 57 79 16 52 44 82 85 87 97 100 100 99 100 100 100 100 100 100
99 100 100 100 100 100 97 96 86 66 40 9 5 5 5 92 53 8 12 5 5 89 35 18 5 5 5 68 34 5 32 97 24 8 18 89 99 82 96 71 22 91 67 46
100 100 95 65 100 99 95 86 28 30 93 58 42 92 100 98 92 43 5 5 23 5 5 5 5 5 5 13 96 19 5 91 40 82 24 12 48 99 81 78 84 17 94 64
100 100 96 79 90 58 53 87 68 83 99 100 99 91 100 100 100 94 23 38 5 16 53 48 5 5 8 40 78 97 38 42 100 79 96 98 93 68 94 79 98 96 95 98
100 95 99 91 97 83 84 83 56 72 65 78 92 100 95 99 100 100 90 57 71 73 42 82 92 89 100 99 73 58 96 55 75 74 72 69 98 100 100 78 97 100 97 100

GFSNGP_prec_cloud_093.txt.gz
Cloud_Cover
4 0 0 0 0 0 0 0 3 0 4 5 100 100 100 100 100 100 100 100 100 100 100 100 100 100 100 100 100 100 100 100 100 100 100 100 100 100 100 100 100 100 100 100
0 0 0 0 0 0 0 0 0 15 1 65 100 100 100 100 100 100 100 100 100 100 100 100 100 100 100 100 100 100 100 100 100 100 100 100 100 100 100 100 100 100 100 100
0 0 1 0 29 78 19 0 0 35 8 100 100 100 100 100 100 100 100 100 100 100 100 100 100 100 100 100 100 100 100 100 100 100 100 100 100 100 100 100 100 100 100 100
5 1 66 2 94 100 97 87 100 100 100 100 100 100 100 100 100 100 100 100 100 100 100 100 100 100 100 100 100 100 100 100 100 100 100 100 100 100 100 100 100 100 100 100
34 47 4 16 100 100 100 100 100 100 100 100 100 100 100 100 100 100 100 100 100 100 100 100 100 100 100 100 100 100 100 100 100 100 100 100 100 100 100 100 100 100 100 100
100 93 48 100 100 100 100 100 100 100 100 100 100 100 100 100 100 100 100 100 100 100 100 100 100 100 100 100 100 100 100 100 100 100 100 100 100 100 100 100 100 100 100 100
90 90 97 100 100 100 100 100 100 100 100 100 100 100 100 100 100 100 100 100 99 100 100 100 100 100 100 100 100 100 100 100 100 100 100 100 100 100 100 100 100 100 100 100
100 100 100 100 100 100 100 100 100 100 100 100 100 100 100 100 100 100 99 97 72 99 100 100 100 100 100 100 100 100 100 100 100 100 100 100 100 100 100 100 100 100 100 100
100 100 100 100 100 100 100 100 100 100 100 100 100 100 100 100 100 100 98 89 65 78 100 100 100 100 100 100 90 100 100 94 100 100 100 100 93 100 100 100 100 100 100 100
100 100 100 100 100 100 100 100 100 100 100 100 100 100 100 100 96 80 87 100 89 67 79 98 100 100 100 100 100 100 100 100 100 95 95 94 99 100 100 100 100 100 100 100
100 100 100 100 100 100 100 100 100 100 100 100 100 100 100 100 100 100 99 88 84 100 100 100 99 100 100 98 100 100 100 100 100 99 99 100 100 100 100 100 100 100 100 100
100 100 100 100 100 100 100 100 100 100 100 100 100 100 100 100 94 97 99 100 87 100 94 100 100 100 100 100 100 100 100 100 100 100 100 100 93 100 100 100 100 100 100 100
100 100 100 100 100 100 100 100 100 100 97 100 100 100 85 99 90 98 75 75 96 100 100 98 84 97 98 98 100 100 100 100 100 100 100 100 100 100 100 100 100 100 100 100
100 100 100 100 100 100 100 100 99 100 87 96 100 98 97 97 84 96 99 98 92 91 65 36 56 100 97 92 89 83 100 100 100 100 100 100 100 100 100 100 100 100 100 100
100 100 100 100 100 100 100 100 100 100 100 93 58 63 70 100 100 100 85 41 53 60 51 19 44 97 100 100 100 100 100 100 100 100 100 100 100 100 100 100 100 100 100 100
99 100 85 94 100 92 77 23 50 100 88 77 79 90 96 89 37 8 5 5 5 50 9 54 68 98 99 100 100 100 100 100 100 100 100 100 100 100 100 100 100 100 100 100
64 97 100 20 65 78 88 81 37 97 98 40 50 5 5 5 5 5 5 5 5 5 53 65 29 57 62 35 99 100 100 100 100 100 100 100 100 100 100 100 100 100 100 100
89 80 99 99 84 80 64 30 9 5 56 72 25 5 6 20 69 72 91 6 5 5 5 5 5 5 5 26 9 52 99 100 100 100 100 100 100 100 100 100 100 100 100 100
93 85 84 81 66 93 81 43 55 32 32 47 5 78 84 86 73 98 98 5 11 5 5 5 5 5 5 5 5 5 6 47 37 37 64 99 100 92 100 100 100 100 100 100
100 100 100 100 25 5 56 64 9 47 50 10 40 56 96 100 90 7 6 5 11 8 5 5 4 5 5 5 52 12 69 63 44 74 98 96 79 80 100 100 100 92 100 100
59 18 48 50 92 89 79 38 11 49 60 10 5 9 9 54 56 98 63 5 5 33 5 5 5 9 59 59 10 70 61 73 88 88 92 92 63 81 100 97 80 75 94 62
82 73 85 56 22 94 57 56 89 82 89 75 84 75 59 5 5 18 55 11 8 34 5 5 5 33 87 95 42 17 39 67 83 100 100 100 100 93 97 84 96 93 88 99
62 56 77 93 100 100 100 93 77 69 73 59 67 47 20 30 22 12 5 5 36 31 5 5 21 5 61 94 55 77 92 99 88 74 87 99 100 100 100 100 100 98 91 89
100 100 100 99 95 96 88 71 93 25 42 29 58 6 15 82 65 37 24 29 7 88 81 13 13 5 5 85 72 48 92 100 66 66 76 100 100 94 91 100 100 100 85 65
100 100 98 73 58 50 61 70 47 52 75 51 13 35 20 32 66 21 14 7 32 5 5 13 39 5 5 24 99 100 82 93 99 61 21 33 76 97 100 100 100 98 100 100
99 98 88 79 86 74 66 67 50 64 97 76 70 98 100 100 100 100 100 100 71 41 5 59 84 35 42 5 30 97 100 87 82 86 85 62 92 100 98 100 100 99 100 98
91 100 100 92 66 95 100 100 100 99 100 100 97 45 50 77 88 100 100 100 84 84 66 51 82 60 29 10 61 52 66 58 71 67 99 96 97 98 72 97 98 86 80 81

GFSNGP_prec_cloud_096.txt.gz
Cloud_Cover
100 100 100 100 100 100 94 5 4 0 0 0 1 69 100 100 100 100 100 99 100 100 100 100 100 100 100 100 100 100 100 100 100 100 100 100 100 100 100 100 100 100 100 100
100 81 26 6 5 5 2 31 28 0 0 0 64 100 100 100 100 100 100 100 100 100 100 100 100 100 100 100 100 100 100 100 100 100 100 100 100 100 100 100 100 100 100 100
100 36 5 0 5 41 52 29 44 99 2 5 100 100 100 100 100 100 100 100 100 100 100 100 100 100 100 100 100 100 100 100 100 100 100 100 100 100 100 100 100 100 100 100
5 4 0 3 36 48 60 68 100 61 41 90 100 100 100 100 100 100 100 100 100 100 100 100 100 100 100 100 100 100 100 100 100 100 100 100 100 100 100 100 100 100 100 100
5 51 1 9 52 93 92 98 100 100 100 100 100 100 100 100 100 100 100 100 100 100 100 100 100 100 100 100 100 100 100 100 100 100 100 100 100 100 100 100 100 100 100 100
94 92 76 86 57 100 100 100 100 100 100 100 100 100 100 100 100 100 100 100 97 99 100 100 100 100 100 100 100 100 100 100 100 100 100 100 100 100 100 100 100 100 100 100
100 100 68 100 100 88 100 100 100 100 100 100 100 100 100 100 100 100 100 100 100 100 100 100 100 100 100 100 100 100 100 100 100 100 100 100 100 100 100 100 100 100 100 100
98 91 90 100 100 98 100 100 100 100 100 100 100 100 100 100 100 100 100 100 100 100 100 100 100 100 100 100 100 100 100 100 100 100 100 100 100 100 100 100 100 100 100 100
92 95 92 100 100 100 100 100 100 100 100 100 100 100 100 100 100 100 100 100 100 100 98 96 99 100 100 100 100 100 100 100 100 100 100 100 100 100 100 100 100 100 100 100
97 100 100 100 100 100 100 100 100 100 100 100 100 100 100 100 100 100 100 100 100 94 99 100 100 100 100 89 98 100 100 100 100 100 100 100 100 100 100 100 100 100 100 100
100 100 100 100 100 100 100 100 100 100 100 100 100 100 100 100 100 100 100 100 94 98 100 100 100 100 96 92 81 88 100 100 100 100 100 100 100 100 100 100 100 100 100 100
100 100 100 100 100 100 100 100 100 100 100 100 100 100 100 100 100 98 100 93 82 88 79 98 90 92 97 82 81 87 98 100 100 100 100 100 99 95 100 100 91 97 100 100
100 100 100 100 100 100 100 100 100 100 100 100 100 100 93 96 100 98 78 69 82 94 85 62 28 76 75 64 39 49 88 76 88 84 100 100 100 98 96 100 100 100 100 100
100 100 100 100 100 100 100 100 100 100 100 100 100 100 97 100 100 98 91 93 76 32 5 5 5 48 73 8 5 26 48 45 30 25 80 100 100 99 100 100 100 100 99 96
100 100 100 100 100 100 100 100 100 100 100 98 37 79 77 90 100 99 24 5 5 5 5 5 11 69 47 18 5 5 48 87 85 77 59 51 66 89 100 91 97 100 100 100
100 100 100 100 100 100 100 100 100 100 100 90 78 84 85 78 62 62 14 5 5 65 13 5 30 82 85 32 5 5 22 34 92 72 91 100 100 100 100 100 100 100 100 100
95 100 100 100 100 100 100 99 75 92 56 47 40 58 18 6 5 5 5 5 5 5 31 14 79 82 70 51 8 61 53 34 55 57 99 84 100 100 100 100 100 100 100 100
65 26 94 100 99 90 60 54 55 85 96 63 8 5 5 16 66 100 100 6 5 5 5 5 13 6 5 44 23 47 61 63 42 73 63 38 43 72 100 100 100 100 100 100
88 99 95 98 92 95 14 11 46 50 57 5 5 88 95 94 96 100 57 5 11 5 5 5 5 5 5 36 25 60 58 45 29 67 82 88 83 62 64 64 81 93 100 100
100 100 100 90 93 12 44 60 13 22 71 11 44 74 100 100 94 43 15 5 7 22 9 5 5 10 5 5 64 5 52 59 61 84 100 100 100 98 98 97 89 71 58 75
100 97 70 14 85 66 30 34 68 95 98 86 53 44 12 52 56 100 64 10 5 13 5 2 5 35 14 63 8 70 66 73 85 98 100 100 100 100 100 100 100 99 95 90
99 100 100 87 72 99 99 93 89 100 99 95 97 90 69 54 13 29 42 22 8 31 5 5 5 30 76 73 12 49 46 75 85 80 97 99 100 100 100 100 100 100 100 100
92 65 70 87 97 100 100 100 89 92 68 57 80 69 20 43 58 5 6 5 36 47 6 5 27 6 33 89 58 98 98 100 55 60 81 100 100 98 99 100 100 100 100 100
98 100 100 100 100 82 68 95 76 80 44 28 54 57 74 65 49 42 26 67 21 13 69 66 54 7 5 68 99 94 91 100 100 79 88 89 100 100 100 99 100 100 100 100
100 100 100 100 86 98 90 64 29 52 97 99 81 26 58 68 72 83 88 64 50 27 5 5 25 56 23 5 41 100 100 100 100 100 85 77 61 100 84 91 96 88 100 100
100 95 96 94 77 63 65 62 46 66 73 76 68 80 72 65 90 100 100 100 100 75 6 9 78 82 85 90 72 30 82 100 100 100 100 100 99 100 100 100 100 100 80 98
56 72 83 76 70 70 82 78 85 75 94 84 23 40 19 34 97 80 98 100 100 100 100 100 99 99 100 100 100 100 100 91 97 99 99 99 100 100 100 100 100 98 99 100

GFSNGP_prec_cloud_099.txt.gz
Cloud_Cover
100 100 100 100 100 100 100 98 49 94 20 100 5 5 29 100 91 51 57 90 100 98 100 100 100 100 100 100 100 100 100 100 100 100 100 100 100 100 100 100 100 100 100 100
100 100 99 100 100 100 100 100 97 37 59 37 4 70 47 69 96 100 89 100 100 100 100 100 100 100 100 100 100 100 100 100 100 100 100 100 100 100 100 100 100 100 100 100
100 100 79 49 58 28 47 7 50 94 64 89 98 64 84 86 99 100 100 100 100 100 100 100 100 100 100 100 100 100 100 100 100 100 100 100 100 100 100 100 100 100 100 100
100 96 12 88 75 64 99 66 100 100 100 71 72 98 100 90 100 100 100 100 100 100 100 100 100 100 100 100 100 100 100 100 100 100 100 100 100 100 100 100 100 100 100 100
56 8 3 86 98 81 100 98 100 100 100 100 100 100 100 100 100 100 100 100 100 100 100 100 100 100 100 100 100 100 100 100 100 100 100 100 100 100 100 100 100 100 100 100
90 62 5 86 55 72 100 100 99 97 99 100 100 100 100 100 100 100 100 100 100 100 100 100 100 100 100 100 100 100 100 100 100 100 100 100 100 100 100 100 100 100 100 100
99 95 21 90 14 62 100 100 100 100 100 100 100 100 100 100 100 100 100 100 100 100 100 100 100 100 100 100 100 100 100 100 100 100 100 100 100 100 100 100 100 100 100 100
91 97 83 32 39 83 100 100 100 100 100 100 100 100 100 100 100 100 100 100 100 100 100 100 100 100 100 100 100 100 100 100 100 100 100 100 100 100 100 100 100 100 100 100
100 100 100 83 100 100 100 100 100 100 100 100 100 100 100 100 100 100 100 100 100 100 100 100 100 100 100 100 100 100 100 100 100 100 100 100 100 100 100 100 100 100 100 100
100 100 100 100 100 100 100 100 100 100 100 100 100 100 100 100 100 100 100 100 100 100 100 100 100 98 100 100 100 100 100 100 100 100 100 100 100 100 100 100 100 100 100 100
100 100 100 100 100 100 100 100 100 100 100 100 100 100 100 100 100 100 100 100 99 100 99 100 100 97 100 100 100 100 100 100 100 100 100 100 100 100 100 100 100 100 100 100
100 85 98 100 100 100 100 100 100 100 100 100 100 100 100 100 100 100 100 100 100 100 99 97 93 88 73 100 100 100 100 100 100 100 100 100 100 100 100 100 100 100 100 100
100 87 100 100 100 100 100 100 100 100 100 100 100 100 100 100 100 100 100 100 100 100 98 98 90 97 93 73 9 92 100 100 100 100 100 100 100 100 100 100 100 100 100 100
100 100 100 100 100 100 100 100 100 100 100 100 100 100 100 96 100 98 96 94 96 70 84 97 82 90 98 42 5 5 79 41 97 99 100 100 100 100 100 100 100 100 100 100
100 100 100 100 100 100 100 100 100 100 100 100 100 100 100 82 96 62 17 5 5 5 24 73 73 88 87 18 5 5 69 95 83 78 29 12 70 86 99 24 54 100 100 100
100 100 100 100 100 100 100 100 100 100 100 100 100 96 40 26 9 5 5 5 5 5 5 49 60 79 86 39 5 5 5 26 67 72 20 5 5 50 76 70 56 6 89 100
98 100 100 100 100 100 100 100 100 100 94 79 79 97 100 68 5 5 5 5 5 5 5 13 100 5 36 64 30 8 5 13 36 64 5 5 5 5 93 99 89 74 79 63
95 5 92 100 100 100 100 100 100 88 85 70 83 98 5 5 68 97 5 5 5 5 5 5 51 19 5 90 43 74 77 67 38 81 16 5 33 48 78 91 86 82 90 31
83 57 43 99 100 100 100 79 80 66 70 54 19 69 88 90 99 64 5 5 5 5 5 4 49 67 48 51 45 90 96 95 100 100 95 88 82 78 88 100 100 100 98 74
99 99 91 100 100 33 60 79 61 57 50 82 99 61 40 50 59 7 5 5 18 10 5 1 6 73 63 5 26 12 77 100 100 100 90 100 100 100 100 83 97 100 100 99
100 96 80 100 77 51 10 50 84 99 91 44 58 65 56 49 60 90 7 5 5 5 0 0 1 5 18 24 5 42 68 99 100 100 100 100 100 100 100 100 100 100 100 100
100 100 100 74 92 100 85 32 45 64 58 47 36 6 7 5 6 16 5 9 5 5 5 5 5 22 34 27 5 5 25 86 94 92 94 90 100 100 100 100 100 100 100 100
100 100 99 90 50 37 62 26 26 5 5 20 29 51 33 63 62 39 6 23 5 50 10 5 5 5 11 70 77 69 52 72 90 93 70 29 21 93 100 100 100 100 100 100
100 99 99 100 100 67 46 43 48 70 72 55 74 62 90 75 77 68 55 51 14 6 6 5 5 20 5 5 5 15 54 58 98 100 100 72 80 67 93 100 100 100 100 98
100 100 98 57 43 60 73 88 54 50 84 100 96 100 69 80 91 98 100 100 99 84 6 5 62 67 58 70 76 76 92 94 86 97 99 98 100 99 92 100 88 99 100 100
96 61 60 81 100 100 100 98 99 100 100 100 100 87 78 73 86 99 100 100 100 90 82 99 100 100 100 100 100 100 100 100 100 100 100 100 86 90 100 100 100 100 100 100
85 68 95 91 87 100 100 100 100 100 91 51 56 67 70 48 88 77 84 100 99 94 97 90 80 62 80 87 99 100 100 100 100 100 100 100 100 100 100 100 100 100 100 100

GFSNGP_prec_cloud_102.txt.gz
Cloud_Cover
100 100 100 100 100 100 100 100 100 100 100 100 74 44 8 76 58 61 79 74 99 98 70 82 80 100 100 100 100 100 100 100 100 100 100 100 100 100 100 100 100 100 100 100
100 100 100 100 100 100 100 100 47 98 100 96 14 66 86 100 66 100 100 99 100 100 87 100 87 100 100 100 100 100 100 100 100 100 100 100 100 100 100 100 100 100 100 100
100 100 100 100 100 100 86 70 57 35 76 66 72 100 100 100 99 100 100 99 100 100 100 100 100 100 100 100 100 100 100 100 100 100 100 100 100 100 100 100 100 100 100 100
100 100 77 93 87 88 80 44 76 86 77 100 96 100 100 100 100 100 100 100 100 100 100 100 100 100 100 100 100 100 100 100 100 100 100 100 100 100 100 100 100 100 100 100
100 100 37 99 56 48 79 81 99 71 74 100 99 100 100 100 100 100 100 100 100 100 100 100 100 100 100 100 100 100 100 100 100 100 100 100 100 100 100 100 100 100 100 100
100 100 97 100 49 90 100 100 100 93 84 100 100 100 100 100 100 100 100 100 100 100 100 100 100 100 100 100 100 100 100 100 100 100 100 100 100 100 100 100 100 100 100 100
100 100 94 96 55 30 100 100 100 100 100 100 100 100 100 100 100 100 100 100 100 100 100 100 100 100 100 100 100 100 100 100 100 100 100 100 100 100 100 100 100 100 100 100
100 100 100 38 83 84 100 100 99 100 100 100 100 100 100 100 100 100 100 100 100 100 100 100 100 100 100 100 100 100 100 100 100 100 100 100 100 100 100 100 100 100 100 100
100 100 100 99 100 100 100 100 100 100 100 100 100 100 100 100 100 100 100 100 100 100 100 100 100 100 100 100 100 100 100 100 100 100 100 100 100 100 100 100 100 100 100 100
95 100 100 97 100 100 100 100 100 100 100 100 100 100 100 100 100 100 100 100 100 100 100 100 100 100 100 100 100 100 100 100 100 100 100 100 100 100 100 100 100 100 100 100
100 100 98 99 100 100 100 100 100 100 100 100 100 100 100 100 100 100 100 100 100 100 100 100 100 100 100 100 100 100 100 100 100 100 100 100 100 100 100 100 100 100 100 100
100 94 99 99 100 100 100 100 100 100 100 100 100 100 100 100 100 100 100 100 100 100 100 92 96 99 100 100 100 100 100 100 100 100 100 100 100 100 100 100 100 100 100 100
92 98 73 100 100 100 100 100 100 100 100 100 100 100 100 100 100 100 100 100 100 100 100 100 100 98 99 91 87 100 100 100 100 100 100 100 100 100 100 100 100 100 100 100
100 95 100 100 100 100 100 100 100 100 100 100 100 100 100 100 100 96 92 99 91 96 100 100 99 97 94 91 67 96 100 92 100 100 100 100 100 100 100 100 100 100 100 100
100 100 100 100 100 100 100 100 100 100 100 100 100 100 99 78 35 20 5 4 17 21 76 100 97 100 100 92 95 77 84 100 98 99 100 100 100 100 100 100 100 100 100 100
95 100 100 100 100 100 100 100 100 100 100 100 100 100 93 56 70 98 78 38 10 3 5 53 60 91 98 98 93 82 92 28 72 100 99 99 100 100 100 100 100 100 100 100
100 100 100 100 100 100 100 100 100 100 100 100 96 47 66 10 9 5 5 5 13 38 5 8 94 96 100 100 97 100 100 95 62 99 100 100 100 100 100 100 100 100 100 39
100 100 100 100 100 100 100 100 100 92 90 88 83 40 25 5 5 10 6 6 55 14 5 5 68 87 92 98 81 88 95 97 98 98 100 100 97 100 100 100 100 100 100 89
100 100 99 100 100 100 100 100 100 79 47 37 53 64 53 66 41 5 5 62 68 52 5 5 73 89 84 28 32 63 92 100 100 100 100 100 100 100 100 100 100 100 100 100
100 100 92 95 100 100 100 98 80 88 98 54 16 13 25 38 30 36 44 5 19 10 29 4 13 56 10 5 4 27 100 100 100 100 100 100 100 100 100 94 96 100 100 100
100 100 100 95 100 100 100 85 45 56 54 5 14 53 63 50 41 30 79 73 52 5 5 4 5 5 5 6 14 100 100 100 100 100 100 100 100 100 100 100 100 100 100 100
100 95 89 87 79 99 94 68 14 5 35 65 100 80 35 30 45 26 5 17 5 5 5 6 5 14 11 58 98 100 100 100 100 100 100 100 100 100 100 100 100 100 100 100
100 100 89 71 14 5 5 7 52 98 90 66 42 37 75 91 92 100 99 95 64 36 69 92 5 5 5 100 100 100 100 100 100 100 100 100 100 100 100 100 100 100 100 100
100 98 87 86 27 42 80 99 83 82 70 95 100 100 67 98 100 98 100 71 72 46 82 81 55 5 69 100 100 100 100 100 100 100 100 100 100 100 100 100 100 100 100 100
98 80 64 54 53 91 100 100 100 100 100 100 99 94 80 89 94 98 100 100 98 80 100 95 93 99 97 100 100 100 100 100 100 100 100 100 100 100 100 100 100 100 100 100
94 95 84 73 98 100 100 100 100 100 100 100 100 99 100 87 100 97 100 100 100 100 100 100 100 100 100 100 100 100 100 100 100 100 100 100 100 100 100 100 100 100 100 100
91 99 75 100 100 100 100 98 100 100 93 100 97 100 100 100 96 93 69 100 100 100 100 100 100 100 100 100 100 100 100 100 100 100 100 100 100 100 100 100 100 100 100 100

GFSNGP_prec_cloud_105.txt.gz
Cloud_Cover
100 100 95 98 100 98 100 100 95 100 100 100 50 95 99 100 100 100 100 100 100 100 100 100 96 94 100 100 100 100 100 100 100 100 100 100 100 100 100 100 100 100 100 100
100 100 100 100 100 100 100 100 100 100 100 100 100 100 100 100 100 100 100 100 100 100 100 100 100 100 100 100 100 100 100 100 100 100 100 100 100 100 100 100 100 100 100 100
79 100 100 100 100 100 100 100 87 100 76 86 71 96 100 100 100 100 100 98 100 100 100 100 100 100 100 100 100 100 100 100 100 100 100 100 100 100 100 100 100 100 100 100
100 100 99 100 100 100 100 100 100 100 98 90 90 100 100 87 99 100 100 87 97 100 100 100 100 100 100 100 100 100 100 100 100 100 100 100 100 100 100 100 100 100 100 100
100 100 95 96 100 90 90 79 77 99 80 99 100 100 100 100 100 100 100 100 100 100 100 100 100 100 100 100 100 100 100 100 100 100 100 100 100 100 100 100 100 100 100 100
100 100 100 100 91 90 81 36 99 93 74 100 100 100 100 100 100 100 100 100 100 100 100 100 100 100 100 100 100 100 100 100 100 100 100 100 100 100 100 100 100 100 100 100
100 100 87 97 74 30 89 100 100 100 100 100 100 100 99 93 100 100 100 100 100 100 100 100 100 100 100 100 100 100 100 100 100 100 100 100 100 100 100 100 100 100 100 100
100 94 96 73 61 80 97 98 100 100 100 100 100 98 100 100 100 100 100 100 100 100 100 100 100 100 100 100 100 100 100 100 100 100 100 100 100 100 100 100 100 100 100 100
70 99 99 88 100 100 100 100 99 100 100 100 99 100 100 100 100 100 100 100 100 100 100 100 100 100 100 100 100 100 100 100 100 100 100 100 100 100 100 100 100 100 100 100
69 99 100 100 100 100 100 100 100 100 100 100 100 100 100 100 100 100 100 100 100 100 100 100 100 100 100 100 100 100 100 100 100 100 100 100 100 100 100 100 100 100 100 100
97 100 99 100 100 100 100 100 100 100 100 100 100 100 100 100 100 100 100 100 100 100 100 100 100 100 100 100 100 100 100 100 100 100 100 100 100 100 100 100 100 100 100 100
100 66 93 98 100 100 100 100 100 100 100 100 100 100 100 100 100 100 100 100 100 100 100 100 100 100 100 100 100 100 100 100 100 100 100 100 100 100 100 100 100 100 100 100
96 100 75 100 100 100 100 100 100 100 100 100 100 100 100 100 100 100 100 100 100 100 100 100 100 100 100 100 100 100 100 100 100 100 100 100 100 100 100 100 100 100 100 100
100 82 100 89 100 100 100 100 100 100 100 100 100 100 100 100 100 100 100 100 100 100 100 99 100 100 100 100 100 78 99 99 100 100 100 100 100 100 100 100 100 100 100 100
100 94 62 89 100 100 100 100 100 100 100 100 100 100 95 88 100 100 57 8 4 32 43 67 84 100 99 94 100 100 98 83 99 100 100 98 100 100 100 100 100 100 100 100
100 100 98 100 100 100 100 100 100 100 100 100 100 100 99 59 10 4 16 27 66 33 9 11 58 96 100 76 73 97 100 83 71 100 100 100 100 100 100 100 100 100 100 75
100 100 100 100 100 100 100 100 100 100 100 100 100 100 48 8 20 22 5 5 12 5 5 62 79 27 5 6 84 82 81 85 20 99 100 100 100 100 100 100 100 100 100 19
100 100 100 100 100 100 100 100 100 100 100 100 100 47 10 52 13 20 53 48 92 21 5 32 62 67 20 5 12 46 76 89 87 96 100 100 100 100 100 100 100 100 100 100
100 100 100 100 100 100 100 100 100 100 100 29 51 85 67 53 53 17 13 24 16 49 50 16 69 71 18 5 4 65 100 100 99 98 100 100 100 100 100 100 100 100 100 100
100 100 100 100 100 100 100 100 100 95 93 70 10 5 5 5 17 14 16 18 5 5 40 38 6 9 5 4 5 96 100 100 100 100 100 100 100 100 100 100 100 100 100 100
98 100 99 100 100 100 100 100 93 92 55 5 17 22 44 21 61 61 79 100 50 6 5 6 6 5 5 4 75 100 100 100 100 100 100 100 100 100 100 100 100 100 100 100
100 100 100 100 100 100 100 100 77 5 9 45 33 43 67 51 58 43 16 40 97 18 56 98 70 5 3 45 100 100 100 100 100 100 100 100 100 100 100 100 100 100 100 100
100 100 100 100 97 98 96 17 15 52 32 86 98 82 100 100 99 100 100 55 93 59 62 100 22 5 5 96 100 100 100 100 100 100 100 100 100 100 100 100 100 100 100 100
100 100 99 93 77 2 5 50 76 100 100 100 100 100 100 100 100 98 100 45 15 22 86 84 55 5 30 100 100 100 100 100 100 100 100 100 100 100 100 100 100 100 100 100
100 100 97 6 22 64 63 96 100 100 100 100 100 100 76 98 94 100 100 100 87 70 100 99 78 24 96 100 100 100 100 100 100 100 100 100 100 100 100 100 100 100 100 100
91 80 91 100 100 98 100 100 100 100 100 100 100 100 100 100 100 98 100 80 100 100 100 100 100 100 100 100 100 100 100 100 100 100 100 100 100 100 100 100 100 100 100 100
100 100 100 92 100 100 100 100 100 100 100 100 100 100 100 100 97 84 69 100 100 100 100 100 100 100 100 100 100 100 100 100 100 100 100 100 100 100 100 100 100 100 100 100

GFSNGP_prec_cloud_108.txt.gz
Cloud_Cover
100 92 80 100 100 100 96 100 100 100 100 100 79 100 100 100 100 95 90 100 100 100 100 100 100 100 100 100 100 100 86 100 100 100 98 100 100 100 100 100 100 100 100 100
100 100 85 23 68 99 100 100 100 100 100 34 65 100 100 100 100 100 100 100 100 100 100 100 100 100 100 100 100 100 100 100 100 100 100 100 100 100 100 100 100 100 100 100
100 96 100 100 99 100 100 100 100 100 97 100 100 100 100 100 100 100 100 100 100 100 100 100 100 100 100 100 98 100 100 100 100 100 100 100 100 100 100 100 100 100 100 100
98 100 100 98 100 100 100 100 100 100 63 49 100 100 100 100 100 100 100 100 100 100 100 100 100 100 100 100 100 99 100 100 100 100 100 100 100 100 100 100 100 100 100 100
99 100 93 100 100 100 100 100 100 79 94 77 100 100 100 100 100 100 100 94 87 100 100 100 100 100 100 99 100 100 100 97 100 100 100 100 100 100 100 100 100 100 100 100
100 100 100 100 100 100 92 97 98 87 74 69 99 100 100 100 100 100 100 100 100 100 100 100 100 100 100 98 100 100 100 100 100 100 100 100 100 100 100 100 100 100 100 100
100 99 98 100 92 67 55 71 100 100 100 95 100 98 100 100 96 100 99 100 100 100 100 100 100 100 100 100 100 100 100 100 100 100 100 100 100 100 100 100 100 100 100 100
100 100 98 58 74 30 91 100 99 100 100 95 99 100 100 99 99 100 100 100 100 100 100 100 100 100 100 100 100 100 100 100 100 100 100 100 100 100 100 100 100 100 100 100
100 97 99 98 95 98 94 92 100 100 100 100 100 100 99 100 100 100 100 100 100 100 100 100 100 100 100 100 100 100 100 100 100 100 100 100 100 100 100 100 100 100 100 100
100 100 100 100 100 100 100 100 100 100 100 100 100 100 100 100 100 100 100 100 100 100 100 100 100 100 100 100 100 100 100 100 100 100 100 100 100 100 100 100 100 100 100 100
91 92 100 100 100 100 100 100 100 100 91 100 100 100 100 100 100 100 100 100 100 100 100 100 100 100 100 100 100 100 100 100 100 100 100 100 100 100 100 100 100 100 100 100
87 17 71 96 100 100 100 100 100 100 100 100 100 100 100 100 100 100 100 100 100 100 100 100 100 100 100 100 100 100 100 100 100 100 100 100 100 100 100 100 100 100 100 100
40 91 58 100 100 100 100 95 100 100 100 100 100 100 100 100 100 100 100 100 100 100 100 100 100 100 100 100 100 100 100 100 100 100 100 100 100 100 100 100 100 100 100 100
67 45 100 100 100 100 92 100 100 100 100 100 100 100 100 100 100 100 100 100 100 100 100 100 89 100 100 97 84 59 100 100 100 100 100 100 100 100 100 100 100 100 100 100
84 94 48 100 84 96 100 100 100 100 100 100 100 100 100 100 100 100 100 100 100 100 100 92 33 7 5 72 74 100 100 38 97 99 86 96 100 100 63 82 96 100 100 100
100 100 100 86 92 98 100 100 100 100 100 100 83 100 44 82 100 100 76 28 33 30 78 84 40 8 5 5 38 50 58 79 67 90 93 85 28 98 23 74 31 78 8 6
100 89 100 94 83 97 100 100 100 100 100 100 100 74 32 86 97 32 17 67 41 5 5 5 5 5 5 5 5 5 5 5 5 84 12 52 6 100 95 100 100 96 91 37
95 98 95 98 100 100 100 100 100 100 100 100 100 100 100 98 5 5 5 5 40 5 5 5 5 5 5 3 2 5 5 5 5 32 34 7 97 11 97 72 77 100 100 99
100 100 93 99 100 100 100 100 100 100 100 100 100 100 100 79 20 18 5 5 5 5 5 5 5 5 5 4 5 5 5 5 5 35 5 6 79 6 97 99 95 100 98 100
100 100 100 100 100 100 100 100 100 100 100 100 100 100 38 33 6 5 5 5 5 5 5 6 6 5 5 4 5 12 52 65 82 47 99 91 90 98 94 99 100 100 100 100
100 100 100 100 100 100 100 100 100 100 100 100 99 28 7 12 26 23 80 100 10 53 15 14 5 5 5 5 63 96 82 84 83 98 95 87 99 92 100 100 100 100 100 100
100 100 100 100 100 100 100 100 100 84 30 35 64 72 32 5 22 18 30 46 32 6 17 97 5 10 5 11 72 90 96 100 96 97 100 100 100 100 76 100 100 100 76 100
100 100 100 100 100 100 100 100 100 100 26 59 34 37 98 96 62 98 98 34 96 5 39 99 25 29 6 5 88 100 100 100 100 100 100 94 80 100 100 97 77 58 100 100
100 100 100 94 100 88 35 88 93 24 5 9 36 99 100 99 100 98 77 26 8 8 15 99 98 45 23 78 100 100 100 100 100 87 95 85 92 85 100 100 100 94 67 91
100 100 100 40 38 27 7 23 5 18 80 100 100 100 100 100 95 91 32 32 77 31 77 95 38 20 54 94 80 40 100 100 92 95 92 6 87 99 100 40 80 100 100 100
100 98 100 91 5 0 2 14 54 98 100 100 100 100 100 100 100 95 86 29 75 87 88 100 89 14 92 90 30 100 94 100 94 61 6 81 98 91 100 77 69 92 100 100
100 100 93 93 100 99 100 100 100 100 100 100 100 100 100 98 32 72 53 99 44 100 100 97 100 84 90 28 98 46 96 95 96 44 98 100 87 86 97 69 68 55 99 94

GFSNGP_prec_cloud_114.txt.gz
Cloud_Cover
100 100 100 100 98 100 100 98 88 18 40 100 100 86 88 100 100 100 100 100 100 100 100 100 100 100 100 100 100 100 100 99 97 100 100 100 100 100 100 90 100 100 100 100
100 100 95 100 100 95 100 63 67 20 92 100 100 100 88 92 100 88 100 100 100 100 100 100 100 100 100 100 100 100 100 100 100 100 100 100 100 100 100 76 83 100 100 100
100 100 100 76 42 100 100 96 62 12 98 100 97 76 100 100 100 97 72 99 96 98 93 99 100 91 100 100 98 85 90 94 100 70 98 99 100 100 100 100 87 98 100 100
100 100 100 50 100 100 82 58 97 92 100 100 100 100 99 98 100 100 88 76 76 89 88 100 100 100 100 100 100 100 100 100 100 100 100 100 100 100 100 100 100 100 100 100
100 100 100 100 100 100 98 39 94 100 100 100 100 100 100 100 100 100 100 100 100 100 100 100 100 100 100 100 100 100 100 100 100 100 100 100 100 100 100 100 100 100 100 100
98 100 54 100 100 99 49 99 5 90 100 100 100 100 100 100 100 100 99 100 100 100 100 98 93 83 99 100 100 100 100 100 100 100 100 100 100 100 100 100 100 100 100 100
100 92 93 100 100 67 100 100 44 62 100 100 100 99 79 100 100 100 100 100 98 100 99 100 100 99 100 100 100 100 100 100 99 90 100 100 100 100 100 100 100 100 100 100
100 98 100 100 100 96 97 100 100 100 72 80 100 100 97 100 100 100 99 98 98 100 100 100 100 99 100 100 100 100 100 100 100 100 100 100 100 100 100 100 100 100 100 100
100 100 100 100 100 100 100 100 100 100 99 88 84 91 97 100 97 99 100 79 96 78 98 100 100 100 100 100 100 100 100 100 100 100 100 100 100 100 100 100 100 100 100 100
100 100 100 100 100 100 100 100 100 100 95 71 85 91 88 90 100 78 100 67 100 100 100 100 100 100 100 100 100 100 100 100 100 100 100 100 100 100 100 100 100 100 100 100
100 100 100 100 100 100 100 100 100 100 72 63 23 76 99 100 95 100 100 100 100 100 100 100 100 100 100 100 100 100 100 100 100 100 100 100 100 100 100 100 100 100 100 100
100 100 100 100 100 100 100 100 98 16 69 12 74 80 95 100 100 100 100 100 100 100 100 100 100 100 100 100 100 100 100 100 100 100 100 100 100 100 100 100 100 100 100 100
100 100 100 100 100 100 100 64 5 22 95 98 97 100 100 100 97 100 100 100 100 100 100 100 100 100 100 100 100 100 100 100 100 100 100 100 100 100 100 100 100 100 100 100
100 100 100 100 100 100 96 53 71 45 100 100 100 99 100 99 100 100 100 100 100 100 100 100 100 100 96 28 52 44 50 39 90 98 95 90 99 96 75 77 95 100 100 100
100 100 100 100 100 97 56 83 9 79 98 100 89 100 100 100 100 100 100 100 100 100 100 100 100 89 72 64 5 5 5 5 5 5 5 5 5 6 27 69 91 65 99 75
100 100 100 100 100 100 27 44 97 93 100 100 100 91 100 100 100 100 100 100 100 100 64 93 85 78 53 24 21 14 10 5 5 5 5 5 5 93 92 69 82 96 91 80
99 96 90 100 100 78 34 60 99 96 100 100 100 100 100 100 100 100 100 100 100 100 100 29 28 9 5 5 5 5 5 5 5 5 5 5 5 5 24 6 84 88 98 100
77 47 5 20 56 46 65 100 100 100 99 100 100 100 100 100 100 100 100 100 100 100 66 14 5 5 5 5 5 5 5 5 5 5 5 5 5 5 17 22 13 46 54 24
98 83 78 39 33 96 100 100 100 100 100 100 100 100 100 100 100 100 100 100 100 92 100 16 8 5 5 5 5 5 5 5 21 36 53 74 51 62 65 68 66 64 57 63
89 93 64 89 99 100 100 100 100 100 100 100 100 100 100 100 100 100 100 100 100 100 90 5 5 5 5 5 45 5 5 33 6 50 9 26 57 70 91 39 82 91 100 93
68 64 94 100 100 100 100 100 100 100 100 100 100 100 100 100 100 100 100 100 100 98 5 5 38 76 9 28 25 80 50 57 56 90 100 96 85 58 85 85 90 100 100 98
92 82 95 100 100 100 100 100 100 100 100 100 100 100 100 100 100 100 100 100 100 24 5 63 99 54 24 63 5 42 36 57 42 30 85 84 100 82 96 95 100 100 100 100
100 100 100 100 100 100 100 100 100 100 100 100 100 100 100 100 100 100 100 100 48 22 34 100 85 71 33 13 55 63 71 40 59 85 99 100 100 100 100 99 72 90 100 100
100 100 100 100 100 100 100 100 100 100 100 100 100 100 100 100 100 100 100 67 58 64 100 99 58 8 55 50 53 92 100 84 94 100 72 91 98 44 26 91 82 50 90 95
99 100 100 100 100 100 100 100 100 100 100 100 100 100 100 100 100 100 80 96 74 100 81 51 11 7 55 25 74 100 98 52 99 100 81 93 99 56 71 83 98 100 97 100
100 100 100 100 100 100 100 100 100 100 100 100 100 100 100 100 100 86 65 86 100 96 86 97 87 64 5 16 84 88 28 46 100 75 74 56 34 56 86 14 89 98 98 100
100 100 100 100 97 86 100 100 100 100 100 100 100 100 100 83 99 99 100 100 79 89 96 96 30 19 34 46 22 5 5 61 92 30 54 52 60 81 70 78 94 24 100 91

GFSNGP_prec_cloud_117.txt.gz
Cloud_Cover
100 72 26 58 100 100 100 100 100 55 19 96 37 20 78 92 76 91 100 100 100 100 100 100 100 100 100 100 100 100 100 100 100 100 100 100 100 100 100 100 94 100 100 100
100 69 90 76 100 97 100 67 100 100 94 69 97 16 88 100 98 100 100 100 100 100 100 100 100 100 100 100 83 79 92 94 80 100 99 100 100 82 86 65 43 53 66 99
79 43 98 100 8 86 100 100 95 96 36 100 98 82 100 100 100 71 98 100 100 100 100 100 99 100 100 100 97 95 92 100 99 90 98 95 69 75 100 86 78 91 74 95
97 88 97 3 39 100 100 100 88 26 33 98 81 89 100 92 95 56 11 95 100 100 100 100 100 100 100 99 90 100 100 100 100 96 100 100 100 94 99 100 91 99 97 89
100 90 14 6 74 87 100 77 93 65 97 100 100 100 93 100 98 86 36 85 98 100 94 76 91 92 97 84 100 97 100 100 100 100 100 100 100 100 99 69 86 94 98 98
98 98 75 28 100 100 100 44 98 66 100 100 100 78 82 96 100 100 95 93 86 82 85 56 71 87 87 99 100 100 100 100 100 100 100 100 100 100 48 77 77 98 99 100
100 91 6 98 100 96 62 100 82 89 86 100 90 77 100 100 100 96 98 72 64 74 77 90 62 75 60 81 92 100 100 100 100 100 99 100 100 100 100 100 100 100 94 100
97 98 79 100 100 94 100 100 98 93 100 100 100 100 100 93 100 100 95 69 62 74 84 82 88 99 100 100 100 100 100 100 100 100 100 100 100 100 100 100 100 96 100 100
81 100 100 100 100 100 100 100 84 100 100 100 100 95 93 100 98 75 94 97 90 54 95 100 100 77 100 100 100 100 100 100 100 100 100 100 100 100 100 100 100 100 100 100
97 100 100 100 100 100 100 100 100 100 98 100 92 97 96 92 86 93 98 85 98 100 100 100 100 100 100 100 100 100 100 100 100 100 100 100 100 100 100 100 100 100 100 100
100 100 100 100 100 100 100 100 100 100 100 96 39 91 75 96 93 80 80 87 100 100 100 100 100 100 100 100 100 100 100 100 100 100 100 100 100 100 100 100 100 100 100 100
99 85 100 100 100 100 100 100 100 100 86 46 18 97 78 100 76 83 100 100 100 100 100 100 100 100 100 100 100 100 100 100 100 100 100 100 100 100 100 100 100 100 100 100
100 100 100 100 100 100 100 100 99 74 77 83 58 22 53 88 100 100 100 100 100 100 100 100 100 100 100 100 100 100 100 100 100 100 100 100 100 100 100 100 100 100 100 100
100 100 100 100 100 100 100 100 73 80 16 22 30 91 88 100 100 100 100 100 100 100 100 100 100 100 100 100 100 98 37 30 50 62 69 75 98 86 94 100 99 52 8 14
100 100 100 100 100 100 90 86 86 95 82 84 56 100 100 100 100 100 100 100 100 100 100 100 100 78 68 65 24 8 5 15 70 75 70 74 70 74 14 36 96 99 53 21
100 100 100 100 100 100 100 87 82 99 92 76 62 100 100 100 100 100 100 100 100 100 100 100 99 10 15 5 5 9 13 7 8 5 27 5 5 5 5 27 41 79 98 100
100 100 100 100 100 95 70 68 74 80 88 83 98 100 100 100 100 100 100 100 100 100 100 100 90 59 37 5 5 5 7 5 5 5 6 5 12 7 8 52 66 60 64 84
100 100 100 100 90 44 68 69 92 91 100 100 100 100 100 100 100 100 100 100 100 100 100 100 100 100 5 5 5 5 5 5 5 20 45 21 20 18 61 40 53 28 23 44
45 48 70 92 93 88 94 93 100 88 100 100 100 100 100 100 100 100 100 100 100 100 100 100 100 70 5 6 24 5 6 33 26 5 18 37 56 68 69 64 84 93 97 84
51 75 74 91 92 100 100 100 100 100 100 100 100 100 100 100 100 100 100 100 100 100 100 100 93 46 5 21 59 5 59 58 7 31 51 49 65 89 38 55 86 100 100 100
27 36 90 100 100 100 100 100 100 100 100 100 100 100 100 100 100 100 100 100 100 100 100 100 100 100 6 29 27 78 44 52 58 77 98 100 69 45 17 21 51 100 100 100
28 70 98 99 100 100 100 100 100 100 100 100 100 100 100 100 100 100 100 100 100 100 100 100 100 95 76 25 44 96 27 16 42 16 96 99 100 100 99 65 71 60 98 100
98 88 98 100 100 100 100 100 100 100 100 100 100 100 100 100 100 100 100 100 100 100 100 72 88 89 51 11 63 46 20 38 85 100 100 100 99 86 100 100 81 98 100 100
77 100 100 100 100 100 100 100 100 100 100 100 100 100 100 100 100 100 100 100 100 100 100 92 82 84 52 55 83 10 68 100 100 98 65 66 90 64 78 99 100 100 100 92
76 100 100 100 100 100 100 100 100 100 100 100 100 100 100 100 100 100 100 100 100 100 80 86 98 65 54 100 25 30 100 100 100 60 61 94 95 99 73 75 100 100 100 97
95 100 100 100 100 100 100 100 100 100 100 100 100 100 100 100 100 100 100 83 82 75 97 76 100 93 100 84 23 58 77 90 68 75 35 38 50 32 58 97 99 89 100 100
100 100 100 100 100 100 100 100 100 100 100 100 100 100 100 100 100 100 100 100 100 100 100 100 100 100 100 23 5 53 79 88 40 19 58 53 48 63 59 100 100 99 100 66

GFSNGP_prec_cloud_120.txt.gz
Cloud_Cover
92 92 100 79 46 100 100 100 100 99 100 96 92 100 99 96 98 66 86 100 100 100 97 100 100 100 100 100 100 100 100 96 68 93 92 96 100 100 100 100 100 100 100 100
74 77 100 100 100 60 61 100 100 100 58 100 100 98 78 100 70 96 96 91 100 100 100 100 100 99 80 100 100 100 97 100 69 85 100 100 100 100 99 100 98 100 100 100
99 100 100 88 56 62 78 30 3 48 93 100 100 100 82 100 96 92 88 100 100 100 100 100 100 96 100 71 80 66 100 100 90 100 100 100 100 100 84 86 98 100 100 100
94 75 96 8 25 91 5 5 35 44 98 100 94 91 100 97 97 99 74 100 100 100 100 100 91 94 79 64 98 100 100 100 100 100 100 100 100 79 78 85 98 100 100 100
92 87 13 5 2 4 1 2 5 23 95 97 92 100 100 100 100 70 43 100 100 100 96 86 69 71 53 75 96 97 100 100 100 100 100 100 100 100 100 100 100 95 100 99
99 97 63 1 0 0 0 5 7 99 74 100 100 100 64 80 72 80 85 85 81 67 66 58 71 68 98 100 98 100 100 100 100 100 100 100 100 100 100 100 100 99 100 100
97 99 9 1 5 4 28 27 90 60 94 87 91 46 74 80 95 98 98 71 66 56 66 76 84 100 100 100 100 100 100 100 100 100 100 100 100 100 100 100 100 100 98 98
94 100 69 2 3 18 79 83 97 99 96 100 100 100 98 65 100 86 91 88 65 71 77 94 99 100 100 100 100 100 100 100 100 100 100 100 100 100 100 100 100 100 100 100
66 4 8 7 26 89 100 96 54 73 100 100 100 100 100 100 94 94 83 90 74 92 99 100 100 100 100 100 100 100 100 100 100 100 100 100 100 100 100 100 100 100 100 100
10 28 44 81 94 100 100 100 100 100 100 100 100 100 98 100 100 86 100 97 93 100 100 100 100 100 100 100 100 100 100 100 100 100 100 100 100 100 100 100 100 100 100 100
44 58 77 100 100 100 100 100 100 100 100 100 100 88 91 100 77 83 94 100 100 95 100 100 100 100 100 100 100 100 100 100 100 100 100 100 100 100 100 100 100 100 100 100
100 71 99 100 100 100 100 100 100 100 100 100 93 75 64 98 86 72 95 59 72 100 100 100 100 100 100 100 100 100 100 100 100 100 100 100 100 100 100 100 100 100 100 100
100 100 100 100 100 100 100 100 100 100 100 84 72 26 14 97 62 5 99 93 78 100 98 100 100 100 100 100 100 85 82 95 100 100 100 100 100 100 100 100 100 100 100 94
100 100 100 100 100 100 100 100 100 100 91 93 78 35 16 5 74 96 97 100 90 89 76 97 100 100 100 100 100 100 100 100 100 80 72 82 100 99 96 100 100 71 23 50
100 100 100 100 100 100 100 100 100 100 92 97 68 87 73 79 78 98 100 100 89 84 100 100 100 100 100 100 100 76 48 60 63 61 64 71 65 60 70 56 45 48 81 23
100 100 100 100 100 100 100 100 100 100 95 98 93 85 100 92 100 100 100 100 100 100 100 100 100 100 100 100 58 62 48 8 31 10 23 43 53 24 5 6 5 5 76 100
100 100 100 100 100 100 100 100 100 83 94 95 99 94 100 84 97 100 100 100 100 100 100 100 100 100 100 100 66 64 67 6 45 7 22 58 82 98 79 79 100 94 77 72
100 100 100 100 100 100 100 100 100 94 98 100 100 100 90 98 100 100 100 100 100 100 100 100 100 100 100 100 90 28 58 40 9 66 29 29 67 62 56 55 74 96 99 66
100 100 100 100 100 100 100 100 100 100 100 100 98 100 100 100 100 100 100 100 100 100 100 100 100 100 100 100 85 99 30 28 5 5 14 32 6 5 43 71 83 80 100 100
43 42 90 89 99 92 98 100 100 100 100 100 99 100 100 100 100 100 100 100 100 100 100 100 100 100 100 100 100 100 5 5 5 28 44 37 12 35 5 15 31 79 96 100
5 5 42 83 100 100 100 100 100 100 100 100 100 100 100 100 100 100 100 100 100 100 100 100 100 100 100 100 100 80 46 5 5 95 98 87 10 42 30 60 20 55 99 100
14 8 52 64 74 98 100 100 100 100 100 100 100 100 100 100 100 100 100 100 100 100 100 100 100 100 100 100 100 30 38 5 34 10 86 60 94 100 100 77 96 100 100 99
33 9 34 51 94 93 100 100 100 100 100 100 100 100 100 100 100 100 100 100 100 100 100 100 100 100 100 100 79 38 20 15 94 94 99 88 83 84 83 100 100 100 100 98
97 81 79 80 100 100 100 100 100 100 100 100 100 100 100 100 100 100 100 100 100 100 100 100 100 100 100 100 78 7 86 98 95 54 9 27 69 35 37 100 100 100 100 98
89 94 100 100 100 100 100 100 100 100 100 100 100 100 100 100 100 100 100 100 82 100 83 88 99 100 71 7 34 86 100 100 79 25 34 54 57 63 58 100 100 100 100 100
84 73 100 99 100 100 100 100 100 100 100 100 100 100 100 100 100 100 100 100 100 100 100 100 98 76 56 46 29 80 76 34 43 27 27 22 30 23 36 82 100 96 100 100
87 100 100 100 100 100 100 100 100 100 100 100 100 100 100 100 100 100 100 100 100 100 100 97 100 84 53 35 75 58 48 67 18 17 48 36 13 42 63 100 100 100 68 81

GFSNGP_prec_cloud_123.txt.gz
Cloud_Cover
6 21 55 98 5 43 90 54 99 48 94 97 100 100 100 100 100 100 82 89 91 100 100 100 100 100 96 98 96 95 98 95 100 95 100 93 100 100 97 89 100 100 100 100
94 94 76 72 5 5 5 98 88 100 13 100 100 100 100 100 100 100 100 69 99 100 100 100 100 100 87 84 92 100 100 96 92 100 100 95 100 100 100 72 94 94 100 100
96 100 100 100 12 5 5 72 100 96 100 6 55 86 70 100 100 100 100 100 100 100 100 100 99 100 80 25 68 79 100 99 100 100 100 100 100 100 98 90 99 98 94 96
100 100 97 12 5 23 55 100 100 75 6 27 66 44 100 100 99 100 100 100 100 100 100 92 90 96 97 20 29 55 95 100 99 100 100 100 100 100 100 91 92 99 96 100
100 100 100 14 27 100 100 92 83 66 19 78 98 100 99 100 100 100 100 100 100 100 96 100 100 78 66 83 79 100 100 100 100 100 100 100 100 100 92 81 100 100 100 98
100 100 98 82 71 98 97 64 74 5 47 94 100 100 97 100 85 94 99 100 100 100 97 100 96 59 71 79 95 100 100 100 100 100 100 100 100 100 100 74 82 100 100 100
100 100 100 99 11 5 4 0 5 5 18 96 85 80 76 100 100 98 100 100 100 100 98 61 54 55 69 99 100 100 100 100 100 100 100 100 100 100 97 100 100 100 100 100
100 100 97 100 54 5 2 13 5 8 20 42 69 100 100 100 100 100 100 100 100 86 87 82 70 100 100 100 100 100 100 100 100 100 100 100 100 100 100 100 100 100 100 100
100 100 100 34 4 5 5 5 30 95 66 22 100 100 100 100 100 100 100 90 82 89 85 83 98 100 100 100 100 100 100 100 100 100 100 100 100 100 100 100 100 100 100 100
100 97 64 5 5 7 7 5 100 96 100 80 100 100 100 100 100 97 81 99 82 85 87 99 92 63 100 100 100 100 100 100 100 100 100 100 100 100 100 100 100 100 100 100
5 28 28 5 29 68 12 38 99 100 100 100 100 100 100 100 100 91 92 92 85 92 97 99 53 94 99 98 100 100 100 100 100 100 100 100 100 100 100 100 100 100 100 100
98 9 77 46 22 51 98 100 100 100 100 100 100 100 100 95 94 86 100 94 98 99 99 98 54 83 79 100 100 100 100 100 100 100 100 100 100 100 100 100 100 100 100 100
16 100 100 96 100 100 100 100 100 100 100 100 100 100 83 93 95 74 98 94 100 96 100 100 99 100 100 100 100 96 100 100 100 100 100 100 100 100 100 63 61 100 95 99
100 93 100 100 100 100 100 100 100 100 100 100 100 100 73 51 83 90 100 100 100 100 91 99 97 100 100 100 92 100 100 100 94 88 38 39 45 40 19 21 80 98 88 10
97 100 100 100 100 100 100 100 100 100 100 100 100 100 93 99 100 100 100 100 100 100 100 100 99 87 100 100 100 100 100 72 9 20 5 5 22 40 75 94 100 100 100 82
100 100 100 100 100 100 100 100 100 100 100 100 100 100 100 100 100 100 100 100 100 100 100 100 100 100 100 100 100 100 100 100 54 58 80 97 100 90 80 74 84 100 100 100
100 100 100 100 100 100 100 100 100 100 100 100 100 100 100 100 100 100 100 100 100 100 100 100 100 100 100 100 84 100 100 100 100 43 65 94 86 62 56 66 67 68 100 100
100 100 100 100 100 100 100 100 100 100 100 100 100 100 100 100 100 100 100 100 100 100 100 100 100 100 100 100 100 100 100 100 99 100 5 5 5 5 14 7 11 66 92 87
100 100 100 100 100 100 100 100 100 100 100 100 100 100 100 100 100 100 100 99 100 100 100 100 100 100 100 100 100 100 100 100 100 100 11 5 5 5 11 6 21 64 74 89
100 100 100 100 100 100 100 100 100 100 100 100 100 100 100 100 100 100 100 100 100 97 100 100 100 100 100 100 100 100 100 100 100 100 63 5 5 6 5 5 5 5 72 100
52 32 18 27 30 68 92 100 100 100 100 100 100 100 100 100 100 100 100 100 100 100 100 100 100 100 100 100 100 100 100 100 100 100 80 6 5 5 5 5 5 53 95 100
5 5 11 27 36 88 94 100 100 100 100 100 100 100 100 100 100 100 100 100 100 100 100 100 100 100 100 100 100 100 100 100 100 94 54 32 5 5 5 5 9 84 100 100
9 24 20 11 44 85 93 100 100 95 100 100 100 100 100 100 100 100 100 100 100 100 100 100 100 99 100 100 100 99 100 100 98 55 9 5 5 5 5 5 65 99 100 100
63 80 91 86 73 94 100 100 100 100 100 100 100 100 100 100 100 100 100 100 100 100 100 100 100 100 100 100 100 100 100 100 92 13 5 21 5 5 5 23 63 82 100 96
99 98 100 90 96 99 95 100 100 100 100 100 100 100 100 100 100 100 100 100 100 100 100 100 100 100 100 100 100 100 100 85 33 11 5 5 5 5 5 62 89 90 100 100
96 92 100 99 94 100 100 100 100 100 100 100 100 100 100 100 100 100 100 100 100 100 100 100 100 100 100 100 100 100 52 15 10 5 5 5 5 5 5 65 87 88 82 81
97 85 100 100 100 100 100 100 98 100 100 100 100 100 100 100 100 100 100 100 100 100 100 100 100 100 100 100 78 73 55 15 25 5 5 5 5 5 54 73 76 75 83 91

GFSNGP_prec_cloud_126.txt.gz
Cloud_Cover
60 80 100 100 100 100 100 93 100 10 100 17 100 18 10 58 98 100 100 100 92 72 92 100 100 100 100 93 66 61 52 6 85 100 100 100 100 100 100 100 87 100 88 100
100 100 100 100 99 78 79 75 100 100 2 95 69 6 48 85 84 100 100 100 100 100 100 100 100 100 100 88 44 5 5 5 5 87 100 100 100 100 100 100 84 97 100 100
100 100 100 94 16 30 5 55 72 18 5 18 16 54 51 92 72 88 85 99 96 99 100 100 100 100 100 79 27 5 44 25 7 97 99 100 100 100 100 99 78 99 92 99
100 100 100 26 14 10 22 97 13 14 59 97 100 75 90 100 98 100 100 94 95 100 100 100 100 100 100 55 11 69 63 71 74 98 100 100 100 100 100 100 100 100 100 100
100 100 41 96 25 85 100 48 84 99 100 93 98 84 81 100 100 100 100 100 100 100 100 100 100 100 100 67 99 99 84 89 99 100 100 100 100 100 100 100 100 100 100 99
100 100 100 79 100 100 100 8 100 99 99 100 89 65 19 100 97 100 100 100 100 100 100 100 100 100 97 97 84 100 100 100 100 100 100 100 100 100 100 100 100 99 87 88
100 100 96 64 80 100 100 29 9 27 76 34 66 38 32 100 100 95 100 100 100 100 100 100 100 95 86 86 97 87 100 100 100 100 100 100 100 100 100 100 97 100 100 100
100 100 98 100 100 89 81 77 54 38 10 32 99 100 100 100 100 100 100 100 100 100 100 100 91 68 81 98 99 94 100 100 100 100 100 100 100 100 100 100 100 100 100 100
100 100 100 100 100 100 100 100 85 16 67 98 100 100 100 100 100 100 100 100 100 100 96 91 78 42 98 96 100 100 100 100 100 100 100 100 100 100 100 100 100 100 100 100
8 97 38 100 100 100 100 94 5 18 51 91 100 100 100 100 100 100 100 100 100 98 97 97 50 13 94 52 100 100 100 100 100 100 100 100 100 100 100 100 100 100 100 100
26 94 100 100 100 87 81 6 5 40 56 94 100 100 100 100 100 100 100 100 99 97 100 82 57 7 90 100 100 100 100 100 100 100 100 100 100 100 100 100 100 100 100 100
97 57 24 7 5 11 19 5 12 58 83 100 100 100 100 100 100 100 100 98 96 100 84 11 16 96 100 100 100 86 90 100 100 100 100 100 100 100 100 100 100 100 100 100
5 5 8 5 10 77 48 7 68 97 98 100 100 100 100 100 100 100 100 100 97 96 77 96 99 100 100 98 100 100 100 100 100 100 100 97 99 96 100 100 36 8 90 100
5 7 42 76 92 99 100 100 100 100 100 100 100 100 100 100 100 100 83 88 92 82 100 84 99 100 100 77 73 70 100 84 100 82 96 92 99 100 100 100 100 100 99 97
24 44 98 100 100 100 100 100 100 100 100 100 100 100 100 100 95 79 77 86 87 94 100 100 100 89 71 82 72 100 85 95 72 72 89 84 100 100 100 100 100 100 100 95
90 92 100 100 100 100 100 100 100 100 100 100 100 100 100 100 94 100 100 100 98 96 100 100 100 100 100 100 96 41 79 99 94 100 99 100 95 68 54 60 80 93 100 91
100 82 100 100 100 100 100 100 100 100 100 100 100 100 100 100 97 93 100 100 100 100 100 100 100 100 100 100 100 100 100 100 100 100 100 100 100 100 79 19 21 46 94 79
100 100 100 100 100 100 100 100 100 100 100 100 100 100 100 100 100 98 100 100 100 100 100 100 100 100 100 100 100 100 100 100 100 100 100 100 100 100 100 52 6 11 89 87
91 97 100 100 100 100 100 100 100 100 100 100 100 100 100 100 100 100 100 100 100 100 100 100 100 100 100 100 100 100 100 100 100 100 100 100 100 100 100 100 89 100 100 100
100 100 100 100 100 96 100 100 100 100 100 100 100 100 100 100 100 100 100 100 100 100 100 100 100 100 100 100 100 100 100 100 100 100 100 100 100 100 100 73 19 100 100 100
97 96 98 97 98 98 99 100 100 100 100 100 100 100 100 100 100 100 100 100 100 100 100 100 100 100 100 100 100 100 100 100 100 100 100 100 100 88 77 98 100 100 100 100
55 50 69 87 96 100 100 97 100 100 100 100 100 100 100 100 100 100 100 100 100 100 100 100 100 100 100 100 100 100 100 100 100 83 92 72 74 96 100 100 100 100 100 100
56 46 63 84 81 100 100 100 100 100 100 100 100 100 100 100 100 100 100 100 100 100 100 100 100 100 100 100 100 100 100 91 77 72 68 72 82 89 88 89 98 100 100 100
52 62 75 98 100 97 92 100 100 100 100 100 100 100 100 100 100 100 100 100 100 100 100 100 100 100 100 100 100 100 100 91 97 97 38 28 75 66 96 99 96 100 100 100
51 74 99 84 85 95 97 98 100 100 100 100 100 100 100 100 100 100 100 100 100 100 100 100 100 100 100 100 100 100 100 99 100 98 96 69 73 73 98 97 94 97 100 100
70 55 68 82 100 95 95 98 98 100 100 100 100 100 100 100 100 100 100 100 100 100 100 100 100 100 100 100 100 100 100 100 100 100 93 38 37 72 60 50 99 100 100 100
92 87 100 100 95 100 100 100 100 100 100 100 100 100 100 100 100 100 100 100 100 100 100 100 100 100 100 100 100 100 100 100 100 85 58 82 37 83 64 83 100 100 100 100

GFSNGP_prec_cloud_129.txt.gz
Cloud_Cover
100 100 100 100 100 100 95 97 100 54 100 99 100 100 100 98 24 45 75 71 67 77 29 100 100 100 96 100 97 94 81 79 9 5 5 5 74 100 100 100 100 100 100 100
100 100 100 100 100 100 100 100 100 100 91 100 100 100 100 68 37 48 82 86 100 70 53 53 80 74 98 98 46 40 5 5 5 5 5 5 68 100 100 100 100 98 100 100
100 100 100 99 100 100 100 100 100 100 100 100 100 100 87 99 17 99 100 100 99 83 99 96 86 100 100 77 23 5 5 5 5 12 6 59 89 100 100 100 100 100 100 100
100 100 100 100 100 100 100 100 100 100 100 100 100 100 84 50 77 62 100 100 89 100 100 100 100 100 100 93 76 5 5 5 7 25 65 83 100 100 100 100 100 100 100 100
100 100 99 97 100 100 100 57 90 100 77 91 78 11 91 99 32 73 100 96 92 100 100 100 100 99 100 100 84 23 5 20 98 100 99 99 100 100 100 100 100 100 100 100
100 100 100 75 100 100 100 52 100 98 28 5 5 7 35 100 96 94 99 87 100 100 100 100 100 100 100 100 100 84 54 14 54 74 99 100 100 100 100 100 100 100 100 100
100 100 100 100 100 94 96 36 60 81 65 13 96 85 51 100 100 88 93 100 100 100 100 100 100 100 100 100 100 56 35 53 96 98 100 100 100 100 100 100 100 100 100 91
100 100 100 100 100 81 56 66 99 100 100 41 78 100 100 100 100 86 100 100 100 100 100 100 100 100 100 83 57 88 83 75 100 100 100 100 100 100 100 100 100 100 100 100
100 100 100 100 100 86 82 63 93 100 99 100 100 100 100 100 100 87 100 100 100 100 100 100 100 100 70 50 77 68 89 81 100 100 100 100 100 100 100 100 100 100 100 100
100 91 100 100 100 100 100 100 100 100 98 100 100 100 100 100 100 100 100 100 100 100 100 100 92 80 73 85 83 64 53 100 100 100 100 100 100 100 100 100 100 100 100 100
97 68 65 22 52 63 100 30 17 100 100 100 100 100 100 100 100 100 100 100 100 100 100 95 92 91 98 98 80 96 100 100 100 100 100 100 100 100 100 100 100 100 100 100
57 54 99 94 84 99 100 100 100 100 99 97 100 100 100 100 100 100 100 100 100 100 100 100 98 86 94 77 100 100 100 99 93 99 100 100 90 83 100 100 100 100 100 100
100 90 100 90 5 12 5 5 18 27 44 76 100 100 100 100 100 100 100 100 100 100 100 100 82 98 100 65 85 92 62 6 23 100 100 100 100 50 99 71 63 12 11 49
100 85 34 9 13 8 52 56 84 92 91 100 100 100 100 100 100 100 100 100 100 99 100 98 98 98 64 14 5 5 45 100 87 82 97 100 100 100 100 100 100 100 50 38
51 34 58 28 14 100 100 100 100 100 100 100 100 100 100 100 100 100 100 100 93 94 100 100 100 100 100 55 5 6 51 87 100 100 95 84 100 100 100 100 100 100 100 76
42 53 13 62 98 100 100 100 100 100 100 100 100 100 100 100 100 100 100 100 100 100 100 100 100 100 100 99 98 92 85 62 96 100 100 100 100 96 97 96 100 100 100 64
29 48 100 100 100 100 100 100 100 100 100 100 100 100 100 100 100 100 100 100 100 100 100 100 100 100 100 100 100 100 100 100 100 100 100 100 100 100 100 100 100 100 100 75
100 100 100 100 100 100 100 100 100 100 100 100 100 100 100 100 100 100 100 100 100 100 100 100 100 100 100 100 100 100 100 100 100 100 100 100 100 100 100 100 100 100 100 100
100 100 100 100 100 100 100 100 100 100 100 100 100 100 100 100 100 100 100 100 100 100 100 100 100 100 100 100 100 100 100 100 100 100 100 100 100 100 100 100 100 100 100 100
100 100 100 100 100 100 100 100 100 100 100 100 100 100 100 100 100 100 100 100 100 100 100 100 100 100 100 100 100 100 100 100 100 100 100 100 100 100 99 95 100 100 100 100
100 100 100 96 98 98 98 96 88 97 100 100 100 100 100 100 100 100 100 100 100 100 100 100 100 100 100 100 100 100 100 100 100 100 100 100 100 99 100 100 100 100 100 100
100 100 100 100 100 98 95 95 100 100 100 100 100 100 100 100 100 100 100 100 100 100 100 100 100 100 100 100 100 100 100 100 100 100 100 100 100 100 100 100 100 100 100 100
100 100 100 100 100 100 100 100 100 100 100 100 100 100 100 100 100 100 100 100 100 100 100 100 100 100 100 100 100 100 100 100 100 100 100 100 100 100 100 100 98 100 100 100
100 100 100 100 100 100 100 100 100 100 100 100 100 100 100 100 100 100 100 100 100 100 100 100 100 100 100 100 100 100 100 100 100 100 99 68 100 92 100 100 100 100 100 92
100 100 100 100 100 100 100 100 100 100 100 100 100 100 100 100 100 100 100 99 100 99 100 100 92 91 100 100 100 100 100 100 100 100 100 100 100 100 100 100 99 99 100 100
89 91 100 100 100 100 100 100 100 100 100 100 100 100 100 100 100 100 100 100 100 100 100 100 97 100 100 100 100 100 100 100 100 97 100 100 100 100 100 94 99 100 100 100
100 100 100 100 100 100 100 100 100 100 100 100 99 100 100 100 100 100 100 100 100 100 100 100 100 100 100 100 100 100 100 100 100 100 100 100 100 100 100 100 100 100 100 100

GFSNGP_prec_cloud_132.txt.gz
Cloud_Cover
100 100 100 100 100 100 100 100 100 100 100 100 100 100 100 100 100 95 57 36 80 95 63 5 5 24 55 69 38 93 88 62 8 16 13 5 5 45 54 62 98 100 100 100
100 100 100 100 100 100 100 100 100 100 100 100 100 100 100 100 100 13 8 100 100 99 100 5 42 69 77 79 72 12 5 5 5 5 5 5 43 72 65 90 100 100 100 100
99 100 100 100 100 100 100 100 100 100 100 100 100 100 100 100 44 66 100 100 23 100 91 37 86 96 100 94 90 64 5 5 19 9 16 5 33 93 93 100 100 100 100 100
100 100 100 100 100 100 100 100 100 100 100 100 100 100 100 94 32 100 100 100 61 10 24 44 92 100 100 100 81 18 63 62 86 57 73 56 59 100 100 100 100 100 99 100
100 100 100 100 93 100 100 100 100 100 100 100 100 100 100 93 100 100 100 68 6 5 13 100 98 100 99 96 91 100 96 100 97 34 8 47 99 100 100 100 100 100 99 100
100 100 100 27 100 100 100 62 100 100 100 100 100 81 84 100 100 100 94 74 54 100 100 100 100 100 100 100 100 100 100 100 67 10 5 63 92 100 100 100 100 100 100 100
100 100 100 100 100 100 100 100 100 100 100 56 93 100 100 100 100 100 100 100 100 99 100 100 100 100 100 100 100 100 100 76 53 20 73 100 100 100 100 100 100 100 100 100
100 100 100 100 100 100 100 100 99 100 98 100 100 100 100 100 100 100 100 100 100 95 100 100 100 100 100 100 100 100 74 5 47 49 99 100 100 96 100 100 100 100 100 79
100 100 100 100 100 100 100 100 96 100 100 100 100 100 100 100 100 100 99 100 100 96 100 100 100 100 100 100 100 34 26 75 78 78 99 100 100 100 100 100 100 100 100 100
100 100 100 100 100 100 100 90 81 68 87 48 100 100 100 100 100 100 100 99 94 91 100 100 100 100 100 90 72 26 51 73 77 100 100 100 100 100 100 100 100 100 100 100
98 98 100 71 78 100 99 100 86 83 16 98 100 100 100 100 100 92 94 84 99 100 100 100 100 100 82 91 67 5 65 26 96 100 100 100 100 100 100 100 100 100 100 100
100 99 65 54 88 100 100 52 8 10 53 100 99 100 100 100 100 88 89 100 93 100 100 100 100 100 100 97 57 15 7 72 99 55 69 99 94 100 94 100 100 100 100 79
89 5 33 72 8 100 100 96 6 85 9 100 100 100 100 100 100 96 100 100 100 100 100 100 100 100 100 100 94 82 84 96 100 50 67 85 95 92 100 100 100 90 100 44
99 96 77 18 84 100 95 11 61 100 82 98 100 100 100 100 100 100 100 100 98 100 100 100 100 100 100 80 100 100 93 70 95 81 62 100 99 99 98 100 100 100 95 19
86 100 100 91 90 25 52 27 60 100 100 100 100 100 100 100 100 100 100 100 100 100 100 100 100 100 100 100 100 100 100 100 93 76 57 100 92 80 85 94 100 89 99 68
97 100 98 72 64 91 96 99 99 100 100 100 100 100 100 100 100 100 100 100 100 100 100 100 100 100 100 100 100 100 100 100 100 99 87 66 44 79 97 96 99 100 100 100
65 66 53 61 67 76 91 88 100 100 100 100 100 100 100 100 100 100 100 100 100 100 100 100 100 100 100 100 100 100 100 100 100 100 100 79 85 95 100 100 100 100 100 100
29 64 69 89 100 100 92 98 100 100 100 100 100 100 100 100 100 100 100 100 100 100 100 100 100 100 100 100 100 100 100 100 100 100 100 100 100 100 100 100 100 100 99 95
100 98 100 100 100 100 100 100 100 100 100 100 100 100 100 100 100 100 100 100 100 100 100 100 100 100 100 100 100 100 100 100 100 100 100 100 100 100 100 100 100 86 60 69
100 100 100 100 100 100 95 100 100 100 99 100 100 100 100 100 100 100 100 100 100 100 100 100 100 100 100 100 100 100 100 100 100 100 100 100 100 100 100 97 84 79 81 99
100 100 100 100 99 100 100 95 92 100 89 98 100 100 100 100 100 100 100 100 100 100 100 100 100 100 100 100 100 100 100 100 100 100 100 100 100 96 100 100 100 99 99 99
100 100 98 87 84 98 95 78 78 76 78 94 100 100 100 100 100 100 100 100 100 100 100 100 100 100 100 100 100 100 100 100 100 100 100 100 100 100 100 100 97 78 99 98
100 100 100 100 100 100 100 97 83 76 72 84 91 98 100 100 100 100 100 100 100 100 100 100 100 100 100 100 100 100 100 100 100 100 100 100 100 100 94 88 92 100 94 86
100 100 100 100 100 100 100 100 100 92 94 73 77 66 66 97 100 100 100 100 100 100 100 100 100 100 100 100 100 100 100 100 100 100 100 100 86 94 100 84 78 70 62 93
100 100 100 100 100 100 100 100 100 100 100 100 100 100 87 87 100 81 100 100 97 100 100 96 100 100 100 100 100 100 100 95 99 100 100 100 100 100 100 94 88 100 100 89
100 100 96 100 97 99 100 100 100 100 100 100 100 100 99 97 99 99 99 99 100 100 100 100 93 100 100 100 100 100 100 95 100 100 100 100 98 97 96 100 100 100 98 100
96 98 99 100 100 100 100 100 100 100 100 100 100 100 100 100 100 81 81 99 99 100 95 100 100 100 100 100 100 100 100 100 100 98 99 100 100 100 100 100 100 100 100 89